[[{"header":{"parameterUnit":"m.s-1","parameterCategory":1,"la1":30.6,"la2":28.766,"lo1":-90.7593,"lo2":-88.6598,"dy":0.0162,"dx":0.0183,"nx":116,"ny":114,"refTime":"2023-09-01T18:00:00:Z","depth":0,"parameterNumber":2,"parameterNumberName":"U-component_of_WINDS"},"data":[0.0,0.0,0.0,0.0,0.0,0.0,0.0,0.0,0.0,0.0,0.0,0.0,0.0,0.0,0.0,0.0,0.0,0.0,0.0,0.0,0.0,0.0,0.0,0.0,0.0,0.0,0.0,0.0,0.0,0.0,0.0,0.0,0.0,0.0,0.0,0.0,0.0,0.0,0.0,0.0,0.0,0.0,0.0,0.0,0.0,0.0,0.0,0.0,0.0,0.0,0.0,0.0,0.0,0.0,0.0,0.0,0.0,0.0,0.0,0.0,0.0,0.0,0.0,0.0,0.0,0.0,0.0,0.0,0.0,0.0,0.0,0.0,0.0,0.0,0.0,0.0,0.0,0.0,0.0,0.0,0.0,0.0,0.0,0.0,0.0,0.0,0.0,0.0,0.0,0.0,0.0,0.0,0.0,0.0,0.0,0.0,0.0,0.0,0.0,0.0,0.0,0.0,0.0,0.0,0.0,0.0,0.0,0.0,0.0,0.0,0.0,0.0,0.0,0.0,0.0,0.0,0.0,0.0,0.0,0.0,0.0,0.0,0.0,0.0,0.0,0.0,0.0,0.0,0.0,0.0,0.0,0.0,0.0,0.0,0.0,0.0,0.0,0.0,0.0,0.0,0.0,0.0,0.0,0.0,0.0,0.0,0.0,0.0,0.0,0.0,0.0,0.0,0.0,0.0,0.0,0.0,0.0,0.0,0.0,0.0,0.0,0.0,0.0,0.0,0.0,0.0,0.0,0.0,0.0,0.0,0.0,0.0,0.0,0.0,0.0,0.0,0.0,0.0,0.0,0.0,0.0,0.0,0.0,0.0,0.0,0.0,0.0,0.0,0.0,0.0,0.0,0.0,0.0,0.0,0.0,0.0,0.0,0.0,0.0,0.0,0.0,0.0,0.0,0.0,0.0,0.0,0.0,0.0,0.0,0.0,0.0,0.0,0.0,0.0,0.0,0.0,0.0,0.0,0.0,0.0,0.0,0.0,0.0,0.0,0.0,0.0,0.0,0.0,0.0,0.0,0.0,0.0,0.0,0.0,0.0,0.0,0.0,0.0,0.0,0.0,0.0,0.0,0.0,0.0,0.0,0.0,0.0,0.0,0.0,0.0,0.0,0.0,0.0,0.0,0.0,0.0,0.0,0.0,0.0,0.0,0.0,0.0,0.0,0.0,0.0,0.0,0.0,0.0,0.0,0.0,0.0,0.0,0.0,0.0,0.0,0.0,0.0,0.0,0.0,0.0,0.0,0.0,0.0,0.0,0.0,0.0,0.0,0.0,0.0,0.0,0.0,0.0,0.0,0.0,0.0,0.0,0.0,0.0,0.0,0.0,0.0,0.0,0.0,0.0,0.0,0.0,0.0,0.0,0.0,0.0,0.0,0.0,0.0,0.0,0.0,0.0,0.0,0.0,0.0,0.0,0.0,0.0,0.0,0.0,0.0,0.0,0.0,0.0,0.0,0.0,0.0,0.0,0.0,0.0,0.0,0.0,0.0,0.0,0.0,0.0,0.0,0.0,0.0,0.0,0.0,0.0,0.0,0.0,0.0,0.0,0.0,0.0,0.0,0.0,0.0,0.0,0.0,0.0,0.0,0.0,0.0,0.0,0.0,0.0,0.0,0.0,0.0,0.0,0.0,0.0,0.0,0.0,0.0,0.0,0.0,0.0,0.0,0.0,0.0,0.0,0.0,0.0,0.0,0.0,0.0,0.0,0.0,0.0,0.0,0.0,0.0,0.0,0.0,0.0,0.0,0.0,0.0,0.0,0.0,0.0,0.0,0.0,0.0,0.0,0.0,0.0,0.0,0.0,0.0,0.0,0.0,0.0,0.0,0.0,0.0,0.0,0.0,0.0,0.0,0.0,0.0,0.0,0.0,0.0,0.0,0.0,0.0,0.0,0.0,0.0,0.0,0.0,0.0,0.0,0.0,0.0,0.0,0.0,0.0,0.0,0.0,0.0,0.0,0.0,0.0,0.0,0.0,0.0,0.0,0.0,0.0,0.0,0.0,0.0,0.0,0.0,0.0,0.0,0.0,0.0,0.0,0.0,0.0,0.0,0.0,0.0,0.0,0.0,0.0,0.0,0.0,0.0,0.0,0.0,0.0,0.0,0.0,0.0,0.0,0.0,0.0,0.0,0.0,0.0,0.0,0.0,0.0,0.0,0.0,0.0,0.0,0.0,0.0,0.0,0.0,0.0,0.0,0.0,0.0,0.0,0.0,0.0,0.0,0.0,0.0,0.0,0.0,0.0,0.0,0.0,0.0,0.0,0.0,0.0,0.0,0.0,0.0,0.0,0.0,0.0,0.0,0.0,0.0,0.0,0.0,0.0,0.0,0.0,0.0,0.0,0.0,0.0,0.0,0.0,0.0,0.0,0.0,0.0,0.0,0.0,0.0,0.0,0.0,0.0,0.0,0.0,0.0,0.0,0.0,0.0,0.0,0.0,0.0,0.0,0.0,0.0,0.0,0.0,0.0,0.0,0.0,0.0,0.0,0.0,0.0,0.0,0.0,0.0,0.0,0.0,0.0,0.0,0.0,0.0,0.0,0.0,0.0,0.0,0.0,0.0,0.0,0.0,0.0,0.0,0.0,0.0,0.0,0.0,0.0,0.0,0.0,0.0,0.0,0.0,0.0,0.0,0.0,0.0,0.0,0.0,0.0,0.0,0.0,0.0,0.0,0.0,0.0,0.0,0.0,0.0,0.0,0.0,0.0,0.0,0.0,0.0,0.0,0.0,0.0,0.0,0.0,0.0,0.0,0.0,0.0,0.0,0.0,0.0,0.0,0.0,0.0,0.0,0.0,0.0,0.0,0.0,0.0,0.0,0.0,0.0,0.0,0.0,0.0,0.0,0.0,0.0,0.0,0.0,0.0,0.0,0.0,0.0,0.0,0.0,0.0,0.0,0.0,0.0,0.0,0.0,0.0,0.0,0.0,0.0,0.0,0.0,0.0,0.0,0.0,0.0,0.0,0.0,0.0,0.0,0.0,0.0,0.0,0.0,0.0,0.0,0.0,0.0,0.0,0.0,0.0,0.0,0.0,0.0,0.0,0.0,0.0,0.0,0.0,0.0,0.0,0.0,0.0,0.0,0.0,0.0,0.0,0.0,0.0,0.0,0.0,0.0,0.0,0.0,0.0,0.0,0.0,0.0,0.0,0.0,0.0,0.0,0.0,0.0,0.0,0.0,0.0,0.0,0.0,0.0,0.0,0.0,0.0,0.0,0.0,0.0,0.0,0.0,0.0,0.0,0.0,0.0,0.0,0.0,0.0,0.0,0.0,0.0,0.0,0.0,0.0,0.0,0.0,0.0,0.0,0.0,0.0,0.0,0.0,0.0,0.0,0.0,0.0,0.0,0.0,0.0,0.0,0.0,0.0,0.0,0.0,0.0,0.0,0.0,0.0,0.0,0.0,0.0,0.0,0.0,0.0,0.0,0.0,0.0,0.0,0.0,0.0,0.0,0.0,0.0,0.0,0.0,0.0,0.0,0.0,0.0,0.0,0.0,0.0,0.0,0.0,0.0,0.0,0.0,0.0,0.0,0.0,0.0,0.0,0.0,0.0,0.0,0.0,0.0,0.0,0.0,0.0,0.0,0.0,0.0,0.0,0.0,0.0,0.0,0.0,0.0,0.0,0.0,0.0,0.0,0.0,0.0,0.0,0.0,0.0,0.0,0.0,0.0,0.0,0.0,0.0,0.0,0.0,0.0,0.0,0.0,0.0,0.0,0.0,0.0,0.0,0.0,0.0,0.0,0.0,0.0,0.0,0.0,0.0,0.0,0.0,0.0,0.0,0.0,0.0,0.0,0.0,0.0,0.0,0.0,0.0,0.0,0.0,0.0,0.0,0.0,0.0,0.0,0.0,0.0,0.0,0.0,0.0,0.0,0.0,0.0,0.0,0.0,0.0,0.0,0.0,0.0,0.0,0.0,0.0,0.0,0.0,0.0,0.0,0.0,0.0,0.0,0.0,0.0,0.0,0.0,0.0,0.0,0.0,0.0,0.0,0.0,0.0,0.0,0.0,0.0,0.0,0.0,0.0,0.0,0.0,0.0,0.0,0.0,0.0,0.0,0.0,0.0,0.0,0.0,0.0,0.0,0.0,0.0,0.0,0.0,0.0,0.0,0.0,0.0,0.0,0.0,0.0,0.0,0.0,0.0,0.0,0.0,0.0,0.0,0.0,0.0,0.0,0.0,0.0,0.0,0.0,0.0,0.0,0.0,0.0,0.0,0.0,0.0,0.0,0.0,0.0,0.0,0.0,0.0,0.0,0.0,0.0,0.0,0.0,0.0,0.0,0.0,0.0,0.0,0.0,0.0,0.0,0.0,0.0,0.0,0.0,0.0,0.0,0.0,0.0,0.0,0.0,0.0,0.0,0.0,0.0,0.0,0.0,0.0,0.0,0.0,0.0,0.0,0.0,0.0,0.0,0.0,0.0,0.0,0.0,0.0,0.0,0.0,0.0,0.0,0.0,0.0,0.0,0.0,0.0,0.0,0.0,0.0,0.0,0.0,0.0,0.0,0.0,0.0,0.0,0.0,0.0,0.0,0.0,0.0,0.0,0.0,0.0,0.0,0.0,0.0,0.0,0.0,0.0,0.0,0.0,0.0,0.0,0.0,0.0,0.0,0.0,0.0,0.0,0.0,0.0,0.0,0.0,0.0,0.0,0.0,0.0,0.0,0.0,0.0,0.0,0.0,0.0,0.0,0.0,0.0,0.0,0.0,0.0,0.0,0.0,0.0,0.0,0.0,0.0,0.0,0.0,0.0,0.0,0.0,0.0,0.0,0.0,0.0,0.0,0.0,0.0,0.0,0.0,0.0,0.0,0.0,0.0,0.0,0.0,0.0,0.0,0.0,0.0,0.0,0.0,0.0,0.0,0.0,0.0,0.0,0.0,0.0,0.0,0.0,0.0,0.0,0.0,0.0,0.0,0.0,0.0,0.0,0.0,0.0,0.0,0.0,0.0,0.0,0.0,0.0,0.0,0.0,0.0,0.0,0.0,0.0,0.0,0.0,0.0,0.0,0.0,0.0,0.0,0.0,0.0,0.0,0.0,0.0,0.0,0.0,0.0,0.0,0.0,0.0,0.0,0.0,0.0,0.0,0.0,0.0,0.0,0.0,0.0,0.0,0.0,0.0,0.0,0.0,0.0,0.0,0.0,0.0,0.0,0.0,0.0,0.0,0.0,0.0,0.0,0.0,0.0,0.0,0.0,0.0,0.0,0.0,0.0,0.0,0.0,0.0,0.0,0.0,0.0,0.0,0.0,0.0,0.0,0.0,0.0,0.0,0.0,0.0,0.0,0.0,0.0,0.0,0.0,0.0,0.0,0.0,0.0,0.0,0.0,0.0,0.0,0.0,0.0,0.0,0.0,0.0,0.0,0.0,0.0,0.0,0.0,0.0,0.0,0.0,0.0,0.0,0.0,0.0,0.0,0.0,0.0,0.0,0.0,0.0,0.0,0.0,0.0,0.0,0.0,0.0,0.0,0.0,0.0,0.0,0.0,0.0,0.0,0.0,0.0,0.0,0.0,0.0,0.0,0.0,0.0,0.0,0.0,0.0,0.0,0.0,0.0,0.0,0.0,0.0,0.0,0.0,0.0,0.0,0.0,0.0,0.0,0.0,0.0,0.0,0.0,0.0,0.0,0.0,0.0,0.0,0.0,0.0,0.0,0.0,0.0,0.0,0.0,0.0,0.0,0.0,0.0,0.0,0.0,0.0,0.0,0.0,0.0,0.0,0.0,0.0,0.0,0.0,0.0,0.0,0.0,0.0,0.0,0.0,0.0,0.0,0.0,0.0,0.0,0.0,0.0,0.0,0.0,0.0,0.0,0.0,0.0,0.0,0.0,0.0,0.0,0.0,0.0,0.0,0.0,0.0,0.0,0.0,0.0,0.0,0.0,0.0,0.0,0.0,0.0,0.0,0.0,0.0,0.0,0.0,0.0,0.0,0.0,0.0,0.0,0.0,0.0,0.0,0.0,0.0,0.0,0.0,0.0,0.0,0.0,0.0,0.0,0.0,0.0,0.0,0.0,0.0,0.0,0.0,0.0,0.0,0.0,0.0,0.0,0.0,0.0,0.0,0.0,0.0,0.0,0.0,-4.0496,0.0,0.0,0.0,0.0,0.0,0.0,0.0,0.0,0.0,0.0,0.0,0.0,0.0,0.0,0.0,0.0,0.0,0.0,0.0,0.0,0.0,0.0,0.0,0.0,0.0,0.0,0.0,0.0,0.0,0.0,0.0,0.0,0.0,0.0,0.0,0.0,0.0,0.0,-3.6054,-3.6477,-3.6692,-3.6677,-3.596,-3.5086,-3.4126,0.0,0.0,0.0,0.0,0.0,0.0,0.0,0.0,0.0,0.0,0.0,0.0,0.0,0.0,0.0,0.0,0.0,0.0,0.0,0.0,0.0,0.0,0.0,0.0,0.0,0.0,0.0,0.0,0.0,0.0,0.0,0.0,0.0,0.0,0.0,0.0,0.0,0.0,0.0,0.0,0.0,0.0,0.0,0.0,0.0,0.0,0.0,0.0,0.0,0.0,0.0,0.0,0.0,0.0,0.0,0.0,0.0,0.0,0.0,0.0,0.0,0.0,0.0,0.0,0.0,0.0,0.0,0.0,0.0,0.0,0.0,-4.0496,0.0,0.0,0.0,0.0,0.0,0.0,0.0,0.0,0.0,0.0,0.0,0.0,0.0,0.0,0.0,0.0,0.0,0.0,0.0,0.0,0.0,0.0,0.0,-3.028,-3.1346,-3.189,-3.3302,-3.446,0.0,0.0,0.0,0.0,0.0,0.0,-3.5504,-3.5504,-3.5504,-3.5504,-3.5504,-3.5444,-3.5295,-3.476,-3.4113,-3.3425,-3.399,0.0,0.0,0.0,0.0,0.0,0.0,0.0,0.0,0.0,0.0,0.0,0.0,0.0,0.0,0.0,0.0,0.0,0.0,0.0,0.0,0.0,0.0,0.0,0.0,0.0,0.0,0.0,0.0,0.0,0.0,0.0,0.0,0.0,0.0,0.0,0.0,0.0,0.0,0.0,0.0,0.0,0.0,0.0,0.0,0.0,0.0,0.0,0.0,0.0,0.0,0.0,0.0,0.0,0.0,0.0,0.0,0.0,0.0,0.0,0.0,0.0,0.0,0.0,-3.9308,-3.9469,-3.9498,-3.9498,-3.9534,-3.9634,-4.0138,-4.0389,-4.0422,-4.0481,0.0,0.0,0.0,0.0,0.0,0.0,0.0,0.0,0.0,0.0,0.0,0.0,0.0,0.0,0.0,0.0,0.0,0.0,0.0,0.0,0.0,-3.0109,-3.0882,-3.0999,-3.2145,-3.3226,-3.4129,0.0,0.0,0.0,0.0,0.0,-3.5504,-3.5504,-3.5504,-3.5504,-3.5504,-3.519,-3.4638,-3.4538,-3.3834,-3.2656,-3.2804,-3.28,-3.2749,0.0,0.0,0.0,0.0,0.0,0.0,0.0,0.0,0.0,0.0,0.0,0.0,0.0,0.0,0.0,0.0,0.0,0.0,0.0,0.0,0.0,0.0,0.0,0.0,0.0,0.0,0.0,0.0,0.0,0.0,0.0,0.0,0.0,0.0,0.0,0.0,0.0,0.0,0.0,0.0,0.0,-3.6011,-3.6542,0.0,0.0,0.0,0.0,0.0,0.0,0.0,0.0,0.0,0.0,0.0,0.0,0.0,-3.8707,-3.8707,-3.8735,-3.8747,-3.8747,-3.8807,-3.8937,-3.9178,-3.9178,-3.9314,-3.9611,-3.969,0.0,-4.0167,-4.0397,0.0,0.0,0.0,0.0,0.0,0.0,0.0,0.0,0.0,0.0,0.0,0.0,0.0,0.0,0.0,0.0,0.0,0.0,0.0,0.0,0.0,-2.8799,-2.9733,-3.0036,-3.1357,-3.2444,-3.3178,-3.3206,0.0,0.0,0.0,-3.4658,-3.4658,-3.5213,-3.5504,-3.5504,-3.5504,-3.5355,-3.504,-3.4698,-3.3978,-3.3036,-3.27,-3.2329,-3.1979,-3.1979,0.0,0.0,0.0,0.0,0.0,0.0,0.0,0.0,0.0,0.0,0.0,0.0,0.0,0.0,0.0,0.0,0.0,0.0,0.0,0.0,0.0,0.0,0.0,0.0,0.0,0.0,0.0,0.0,0.0,0.0,0.0,0.0,0.0,0.0,0.0,0.0,0.0,0.0,0.0,-3.5854,-3.6139,-3.6354,-3.6664,-3.6941,0.0,0.0,0.0,0.0,0.0,0.0,0.0,0.0,0.0,-3.8707,-3.8707,-3.8707,-3.8707,-3.8707,-3.8707,-3.8707,-3.8707,-3.8762,-3.8884,-3.8884,-3.897,-3.91,-3.9244,-3.9401,-3.9564,-3.9863,-4.0101,-4.0286,0.0,0.0,0.0,0.0,-3.8027,-3.7149,0.0,0.0,0.0,0.0,0.0,0.0,0.0,0.0,0.0,0.0,0.0,0.0,-2.6452,-2.7597,-2.8569,-2.9095,-3.0334,-3.1395,-3.2208,-3.2249,-3.2357,-3.2593,-3.3276,-3.3636,-3.3636,-3.4375,-3.4887,-3.5133,-3.5133,-3.5246,-3.5489,-3.4801,-3.4159,-3.3469,-3.2811,-3.2123,-3.1511,-3.1511,-3.1511,-3.1511,0.0,0.0,0.0,0.0,0.0,0.0,0.0,0.0,0.0,0.0,0.0,0.0,0.0,0.0,0.0,0.0,0.0,0.0,0.0,0.0,0.0,0.0,0.0,0.0,0.0,0.0,0.0,0.0,0.0,0.0,0.0,0.0,0.0,0.0,0.0,0.0,0.0,-3.5941,-3.6203,-3.6203,-3.6542,-3.6786,0.0,0.0,0.0,0.0,0.0,0.0,-3.8302,-3.8433,-3.8515,-3.8515,-3.8627,-3.8707,-3.8707,-3.8707,-3.8707,-3.8707,-3.8707,-3.8707,-3.8707,-3.8707,-3.8707,-3.8704,-3.8909,-3.8999,-3.904,-3.9529,-3.9861,-4.0101,-4.0101,-3.9725,-3.9092,-3.8201,-3.7329,-3.6492,0.0,0.0,0.0,0.0,0.0,0.0,0.0,0.0,0.0,0.0,0.0,-2.5441,-2.6383,-2.7024,-2.7578,-2.8119,-2.871,-2.969,-3.1177,-3.1278,-3.1669,-3.2558,-3.2629,-3.2664,-3.2664,-3.2713,-3.3171,-3.4061,-3.4061,-3.4576,-3.5489,-3.4801,-3.4159,-3.3469,-3.2811,-3.2123,-3.1511,-3.1511,-3.1511,-3.1511,-3.1511,0.0,0.0,0.0,0.0,0.0,0.0,0.0,0.0,0.0,0.0,0.0,0.0,0.0,0.0,0.0,0.0,0.0,0.0,0.0,0.0,0.0,0.0,0.0,0.0,0.0,0.0,0.0,0.0,0.0,0.0,0.0,0.0,0.0,0.0,0.0,0.0,0.0,0.0,-3.5644,-3.565,0.0,0.0,0.0,0.0,-3.6478,-3.696,-3.7247,-3.7267,-3.7702,-3.7946,-3.7946,-3.843,-3.8707,-3.8707,-3.8707,-3.8707,-3.8707,-3.8707,-3.8707,-3.8707,-3.8707,-3.8707,-3.8707,-3.8704,-3.8719,-3.8792,-3.9705,-4.0091,-4.0101,-4.0101,-3.9614,-3.8802,-3.7869,-3.7001,-3.6243,0.0,0.0,0.0,0.0,0.0,0.0,0.0,0.0,-2.377,-2.4469,-2.4253,-2.4181,-2.4541,-2.474,-2.5453,-2.7003,-2.732,-2.8236,-3.0177,-3.0317,-3.0457,-3.0771,-3.1365,-3.1997,-3.2593,-3.2593,-3.2749,-3.3101,-3.3101,-3.3276,-3.365,-3.3374,-3.3035,-3.2601,-3.2351,-3.1696,-3.0777,-3.1278,-3.1511,-3.1511,-3.1511,-3.1511,0.0,0.0,0.0,0.0,0.0,0.0,0.0,0.0,0.0,0.0,0.0,0.0,0.0,0.0,0.0,0.0,0.0,0.0,0.0,0.0,0.0,0.0,0.0,0.0,0.0,0.0,0.0,0.0,0.0,0.0,0.0,0.0,0.0,0.0,0.0,0.0,0.0,-3.56,-3.56,0.0,-3.56,-3.5783,-3.6032,-3.6374,-3.658,-3.6843,-3.7173,-3.736,-3.7451,-3.7451,-3.7632,-3.7878,-3.8183,-3.8183,-3.8366,-3.8707,-3.8707,-3.8707,-3.8707,-3.8707,-3.8707,-3.8707,-3.8707,-3.8707,-3.8735,-3.9249,-3.9469,-3.9469,-3.9469,-3.9059,-3.8469,-3.8144,-3.7179,-3.6016,0.0,0.0,0.0,0.0,0.0,0.0,0.0,0.0,-2.275,-2.3404,-2.3184,-2.311,-2.3478,-2.3514,-2.4351,-2.6431,-2.625,-2.7105,-2.9639,-2.9443,-2.9404,-2.9792,-3.0381,-3.1007,-3.1659,-3.1659,-3.1829,-3.2141,-3.2141,-3.2285,-3.2593,-3.2593,-3.227,-3.1673,-3.1673,-3.0991,-2.9889,-3.0419,-3.0837,-3.1117,-3.138,-3.1511,-3.1511,0.0,0.0,0.0,0.0,0.0,0.0,0.0,0.0,0.0,0.0,0.0,0.0,0.0,0.0,0.0,0.0,0.0,0.0,0.0,0.0,0.0,0.0,0.0,0.0,0.0,0.0,0.0,0.0,0.0,0.0,0.0,0.0,0.0,0.0,0.0,-3.56,-3.56,-3.56,-3.56,-3.56,-3.56,-3.5739,-3.6097,-3.6139,-3.6291,-3.6626,-3.6825,-3.6941,-3.6941,-3.7114,-3.7341,-3.7667,-3.7825,-3.8082,-3.8433,-3.8611,-3.8707,-3.8707,-3.8707,-3.8707,-3.8707,-3.8707,-3.8707,-3.8704,-3.888,-3.8975,-3.8971,-3.9058,-3.8707,-3.8181,-3.8169,-3.7324,-3.6171,0.0,0.0,0.0,0.0,0.0,0.0,0.0,-2.1183,-2.127,-2.3147,-2.2553,-2.2328,-2.3294,-2.3404,-2.424,-2.6318,-2.5562,-2.6333,-2.9549,-2.8727,-2.8597,-2.9753,-2.9792,-2.9792,-2.9792,-2.9792,-3.0241,-3.1143,-3.1143,-3.1609,-3.25,-3.25,-3.1888,-3.0764,-3.0764,-3.0102,-2.8971,-2.9002,-2.9473,-3.0299,-3.1087,-3.1438,-3.1467,0.0,0.0,0.0,0.0,0.0,0.0,0.0,0.0,0.0,0.0,0.0,0.0,0.0,0.0,0.0,0.0,0.0,0.0,0.0,0.0,0.0,0.0,0.0,0.0,0.0,0.0,0.0,0.0,0.0,0.0,0.0,0.0,0.0,-3.547,-3.56,-3.56,-3.56,-3.56,-3.56,-3.56,-3.56,-3.56,-3.56,-3.56,-3.56,-3.56,-3.6097,-3.6392,-3.6409,-3.6917,-3.7207,-3.7243,-3.7703,-3.7931,-3.7948,-3.8453,-3.8713,-3.8713,-3.8676,-3.8673,-3.8707,-3.8707,-3.8707,-3.8707,-3.8707,-3.8707,-3.8719,-3.8985,-3.8601,-3.7912,-3.7923,-3.7426,-3.6758,0.0,0.0,0.0,0.0,0.0,0.0,-2.0934,-2.0789,-2.0789,-2.1346,-2.1155,-2.1078,-2.1385,-2.1423,-2.2185,-2.4189,-2.4079,-2.5238,-2.8366,-2.8255,-2.8597,-2.9753,-2.9792,-2.9792,-2.9792,-2.9792,-2.9934,-3.0177,-3.0177,-3.0317,-3.057,-3.057,-3.0307,-2.9787,-2.9787,-2.9146,-2.8117,-2.8716,-2.878,-2.8492,-2.9348,-3.0072,-3.0614,0.0,0.0,0.0,0.0,0.0,0.0,0.0,0.0,0.0,0.0,0.0,0.0,0.0,0.0,0.0,0.0,0.0,0.0,0.0,0.0,0.0,0.0,0.0,0.0,0.0,0.0,0.0,0.0,0.0,0.0,0.0,0.0,-3.4648,-3.4847,-3.5276,-3.56,-3.56,-3.56,-3.56,-3.56,-3.56,-3.56,-3.56,-3.56,-3.56,-3.56,-3.5739,-3.6082,-3.6667,-3.6823,-3.7331,-3.8202,-3.8332,-3.8599,-3.8974,-3.8611,-3.86,-3.8915,-3.8352,-3.8316,-3.8707,-3.8707,-3.8707,-3.8707,-3.8707,-3.8707,-3.8707,-3.8773,-3.8671,-3.8486,-3.849,-3.7974,-3.721,0.0,0.0,0.0,0.0,0.0,0.0,-2.0605,-2.0605,-2.0605,-2.0605,-2.0605,-2.0605,-2.0605,-2.0605,-2.133,-2.3106,-2.3008,-2.4253,-2.7636,-2.8436,-2.9106,-2.9753,-2.9792,-2.9792,-2.9792,-2.9792,-2.9792,-2.9792,-2.9792,-2.9792,-2.9792,-2.9792,-2.9466,-2.8853,-2.8853,-2.8256,-2.7229,-2.7736,-2.767,-2.7229,-2.7769,-2.8684,-2.9766,-2.9766,-3.0042,-3.0494,-3.0866,-3.0777,-3.0554,-3.1248,0.0,0.0,0.0,0.0,0.0,0.0,0.0,0.0,0.0,0.0,0.0,0.0,0.0,0.0,0.0,0.0,0.0,0.0,0.0,0.0,0.0,0.0,0.0,0.0,-3.3297,-3.3761,-3.3761,-3.4823,-3.56,-3.56,-3.56,-3.56,-3.56,-3.56,-3.56,-3.56,-3.56,-3.5735,-3.6079,-3.6096,-3.6468,-3.7229,-3.7246,-3.7596,-3.83,-3.8513,-3.876,-3.9063,-3.8851,-3.874,-3.8686,-3.8258,-3.8184,0.0,-3.8366,-3.8366,-3.8382,-3.8611,-3.8562,0.0,0.0,0.0,0.0,0.0,-3.8395,-3.7936,0.0,0.0,0.0,0.0,0.0,0.0,-2.0605,-2.0605,-2.0605,-2.0605,-2.0605,-2.0605,-2.0605,-2.0605,-2.1152,-2.2592,-2.2211,-2.339,-2.698,-2.8848,-2.9753,-2.9624,-2.974,-2.9792,-2.9792,-2.9792,-2.9792,-2.9792,-2.9792,-2.9792,-2.9792,-2.9792,-2.9189,-2.8109,-2.8109,-2.7494,-2.6499,-2.6499,-2.6499,-2.6499,-2.6499,-2.7451,-2.8844,-2.8844,-2.8907,-2.9097,-2.9889,-2.9659,-2.9223,-3.0718,0.0,0.0,0.0,0.0,0.0,0.0,0.0,0.0,0.0,0.0,0.0,0.0,0.0,0.0,0.0,0.0,0.0,0.0,0.0,0.0,0.0,0.0,0.0,0.0,-3.212,-3.2586,-3.2586,-3.4202,-3.5385,-3.547,-3.5492,-3.5515,-3.56,-3.56,-3.5633,-3.5718,-3.5735,-3.6096,-3.6897,0.0,0.0,0.0,0.0,-3.8075,-3.8159,-3.8557,-3.8777,-3.8777,-3.9171,-3.9039,-3.8448,-3.8292,-3.8105,-3.7933,-3.7861,-3.7825,-3.786,-3.8334,-3.8251,-3.7894,-3.8465,-3.8707,-3.8707,-3.8707,-3.8707,-3.8707,0.0,0.0,0.0,0.0,0.0,0.0,-2.0605,-2.0605,-2.0605,-2.0605,-2.0605,-2.0605,-2.0605,-2.0605,-2.086,-2.1461,-2.1753,-2.2886,-2.5185,-2.814,-2.9404,-2.8466,-2.9326,-2.9792,-2.9792,-2.9792,-2.9792,-2.9792,-2.9792,-2.9792,-2.9792,-2.9792,-2.9189,-2.8109,-2.8109,-2.7494,-2.6499,-2.6499,-2.6499,-2.6499,-2.6499,-2.7061,-2.7953,-2.7953,-2.8395,-2.9034,-2.9192,-2.9129,-2.9066,-2.938,-2.9858,-3.0329,-3.0494,-3.097,0.0,0.0,0.0,0.0,0.0,0.0,0.0,0.0,0.0,0.0,0.0,0.0,0.0,0.0,0.0,0.0,0.0,0.0,0.0,-3.1511,-3.212,-3.2586,-3.2586,-3.3391,-3.4202,-3.4736,-3.4783,-3.5005,-3.5538,-3.56,-3.5876,-3.6502,-3.6575,-3.6891,-3.7652,-3.7686,-3.8024,-3.8751,-3.8785,-3.9056,-3.9673,-3.9755,-3.9812,-3.9812,0.0,0.0,-3.9376,-3.8187,-3.7854,-3.8191,-3.7589,-3.7341,-3.7341,-3.7451,-3.7433,-3.7433,-3.8334,-3.8707,-3.8707,-3.8707,-3.8707,-3.8707,0.0,0.0,0.0,0.0,0.0,0.0,-2.0605,-2.0605,-2.0605,-2.0605,-2.0605,-2.0605,-2.0605,-2.0605,-2.0742,-2.1151,-2.233,-2.3545,-2.4703,-2.6912,-2.8119,-2.8096,-2.8648,-2.9236,-2.9792,-2.9792,-2.9792,-2.9792,-2.9792,-2.9641,-2.9365,-2.9365,-2.8762,-2.7695,-2.7695,-2.7231,-2.6499,-2.6499,-2.6499,-2.6499,-2.6499,-2.6748,-2.7095,-2.7095,-2.7384,-2.7802,-2.8214,-2.8084,-2.7887,-2.8716,-2.9002,-2.9097,-2.9504,-2.9919,-3.0329,0.0,0.0,0.0,0.0,0.0,0.0,0.0,0.0,0.0,0.0,0.0,0.0,0.0,0.0,-3.1511,0.0,0.0,-3.1511,-3.1511,-3.1796,-3.2064,-3.2064,-3.2339,-3.2944,-3.3987,-3.4112,-3.4358,-3.5012,-3.5098,-3.5572,-3.6721,-3.6795,-3.7286,-3.8396,-3.8447,-3.8785,-3.9537,-3.9554,-3.974,-4.0096,-4.0096,-4.0096,-4.0096,-3.974,-3.9481,-3.9303,-3.8191,-3.7771,-3.7866,-3.7116,-3.6803,-3.6803,-3.6803,-3.696,-3.7248,-3.7756,-3.8083,-3.8316,-3.8611,-3.8707,-3.8707,0.0,0.0,0.0,0.0,0.0,0.0,0.0,-2.0605,-2.0605,-2.0605,-2.0605,-2.0605,-2.0605,-2.0605,-2.082,-2.1278,-2.293,-2.4115,-2.4458,-2.5668,-2.6687,-2.7429,-2.7884,-2.8518,-2.9456,-2.9702,-2.9741,-2.9628,-2.9628,-2.9327,-2.8737,-2.8737,-2.8235,-2.7281,-2.7281,-2.7014,-2.6499,-2.6499,-2.6499,-2.6499,-2.6499,-2.6499,-2.6499,-2.6499,-2.6499,-2.6589,-2.7229,-2.704,-2.6714,-2.8051,-2.8149,-2.7835,-2.8524,-2.8876,-2.9129,-2.9858,-3.0042,0.0,0.0,0.0,0.0,0.0,0.0,0.0,0.0,0.0,-3.1511,-3.1511,-3.1511,-3.1511,-3.1511,-3.1511,-3.1511,-3.1511,-3.1511,-3.1511,-3.1511,-3.1511,-3.1923,-3.305,-3.3313,-3.3659,-3.4333,-3.4659,-3.5361,-3.6703,-3.7064,-3.7811,-3.9123,-3.9208,-3.9503,-4.0079,-4.0096,-4.0096,-4.0096,-4.0096,-4.0096,-4.0096,-4.0096,-3.9791,-3.9174,-3.8311,-3.7791,-3.7538,-3.6624,-3.6228,-3.6228,-3.6228,-3.6501,-3.6904,-3.7001,-3.7285,-3.7667,-3.8218,-3.8483,-3.8546,0.0,0.0,0.0,0.0,0.0,0.0,0.0,0.0,-2.0605,-2.0605,-2.0605,-2.0605,-2.0605,-2.0605,-2.0938,-2.1738,-2.2581,-2.3132,-2.3264,-2.4909,-2.5676,-2.5178,-2.7052,-2.8176,-2.8307,-2.9287,-2.9541,-2.8988,-2.8988,-2.87,-2.8197,-2.8197,-2.7871,-2.7281,-2.7281,-2.7014,-2.6499,-2.6499,-2.6499,-2.6499,-2.6499,-2.6499,-2.6499,-2.6499,-2.6499,-2.6499,-2.6589,-2.6589,-2.6521,-2.6714,-2.7196,-2.7736,-2.7802,-2.8363,-2.9034,-2.9129,-2.916,-2.9317,-3.0208,-3.097,-3.1511,-3.1511,-3.1511,-3.1511,0.0,0.0,-3.1511,-3.1511,-3.1511,-3.1511,-3.1511,-3.1511,-3.1511,-3.1511,-3.1511,-3.1511,-3.1511,-3.1511,-3.1553,-3.171,-3.2327,-3.2975,-3.3633,-3.4847,-3.5935,-3.6746,-3.8019,-3.9114,-3.9943,-3.9977,-4.0011,-4.0096,-4.0096,-4.0096,-4.0096,-4.0096,-4.0096,-4.0096,-4.0096,-4.0062,-3.9943,-3.8531,-3.7879,-3.778,-3.6322,-3.5694,-3.5694,-3.5694,-3.5717,-3.5832,-3.6291,-3.6519,-3.6623,-3.7154,-3.7614,-3.798,0.0,0.0,0.0,0.0,0.0,0.0,0.0,0.0,0.0,-2.0605,-2.0605,-2.0605,-2.0605,-2.0801,-2.1103,-2.1475,-2.1999,-2.2575,-2.3194,-2.3433,-2.3933,-2.4875,-2.5797,-2.6322,-2.6413,-2.8008,-2.8413,-2.7566,-2.8164,-2.816,-2.762,-2.762,-2.7331,-2.6839,-2.6839,-2.6713,-2.6499,-2.6499,-2.6499,-2.6499,-2.6499,-2.6499,-2.6499,-2.6499,-2.6499,-2.6499,-2.6499,-2.6499,0.0,-2.6499,-2.6714,-2.7007,-2.7007,-2.7263,-2.7637,-2.8117,-2.8247,0.0,-2.9919,-3.0554,0.0,0.0,-3.1511,-3.1511,-3.1511,-3.1511,-3.1511,-3.1511,-3.1511,-3.1511,-3.1511,-3.1511,-3.1511,0.0,-3.1511,-3.1511,-3.1511,-3.1511,-3.1511,-3.1511,-3.1768,-3.2244,-3.2933,-3.3879,-3.5079,-3.6684,-3.7742,-3.8832,-4.0037,-4.0096,-4.0096,-4.0096,-4.0096,-4.0096,-4.0096,-4.0096,-4.0096,-4.0096,-4.0096,-4.0096,-4.0045,-3.8565,-3.7415,-3.6512,-3.587,-3.56,-3.56,-3.56,-3.56,-3.5622,-3.5849,-3.5941,-3.6032,-3.6884,-3.7323,-3.7488,0.0,0.0,0.0,0.0,0.0,0.0,0.0,0.0,0.0,0.0,-2.0605,-2.0605,-2.0605,-2.0859,-2.1064,-2.1181,-2.1416,-2.1927,-2.2848,-2.2148,-2.2534,-2.4434,-2.4563,-2.4887,-2.552,-2.695,-2.7397,-2.6771,-2.7519,-2.7595,-2.709,-2.709,-2.6876,-2.6499,-2.6499,-2.6499,-2.6499,-2.6499,-2.6499,-2.6499,-2.6499,-2.6499,-2.6499,-2.6499,-2.6499,-2.6499,-2.6499,-2.6499,-2.6499,-2.6499,-2.6499,-2.6499,-2.6499,-2.6499,-2.6624,-2.7196,-2.755,-2.7986,-2.9254,0.0,0.0,-3.097,-3.1161,-3.1219,-3.1438,-3.1511,-3.1511,-3.1511,-3.1511,-3.1511,-3.1511,-3.1511,-3.1511,-3.1511,-3.1511,-3.1511,-3.1511,-3.1511,-3.1511,-3.1511,-3.1511,-3.1786,-3.2504,-3.3329,-3.4556,-3.6346,-3.7297,-3.8274,-3.9394,-3.9454,-3.9558,-3.9756,-3.9782,-3.9876,-4.0096,-4.0096,-4.0096,-4.0096,-4.0096,-4.0096,-4.0045,-3.8565,-3.7077,-3.56,-3.56,-3.56,-3.56,-3.56,-3.56,-3.56,-3.56,-3.56,-3.5694,-3.6481,-3.6845,-3.698,0.0,0.0,0.0,0.0,0.0,0.0,0.0,0.0,0.0,0.0,0.0,0.0,0.0,-2.0615,-2.0762,-2.1161,-2.085,-2.1006,-2.1909,-2.1484,-2.185,-2.3301,-2.3492,-2.4445,-2.6422,-2.6576,-2.6858,-2.727,-2.7306,-2.7065,-2.6512,-2.6512,-2.6512,-2.6499,-2.6499,-2.6499,-2.6499,-2.6499,-2.6499,-2.6499,-2.6499,-2.6499,-2.6499,-2.6499,-2.6499,-2.6499,-2.6499,-2.6499,-2.6499,-2.6499,-2.6499,-2.6499,-2.6499,-2.6499,-2.6499,-2.6521,-2.7095,-2.7703,-2.7769,0.0,-2.9254,-3.0103,-3.0329,-3.0554,-3.1322,-3.1511,-3.1511,-3.1511,-3.1511,-3.1511,-3.1511,-3.1511,-3.1511,-3.1511,-3.1511,-3.1511,-3.1511,-3.1511,-3.1511,-3.1511,-3.1511,-3.175,0.0,-3.3808,-3.4922,-3.5604,-3.6999,-3.7819,-3.7879,-3.7879,-3.8206,-3.8908,-3.8935,-3.9315,-4.0096,-4.0096,-4.0096,-4.0096,-4.0096,-4.0096,-4.0045,-3.8565,-3.7077,-3.56,-3.56,-3.56,-3.56,-3.56,-3.56,-3.56,-3.56,-3.56,-3.56,-3.5644,-3.5985,-3.6416,0.0,0.0,0.0,0.0,0.0,0.0,0.0,0.0,0.0,0.0,0.0,0.0,0.0,0.0,0.0,0.0,-2.0693,-2.0985,-2.1929,-2.1242,-2.1301,-2.2373,-2.2499,-2.2538,-2.2587,-2.3857,-2.4289,-2.3787,-2.5098,-2.5693,-2.5511,-2.6198,-2.6499,-2.6499,-2.6499,-2.6499,-2.6499,-2.6499,-2.6499,-2.6499,-2.6499,-2.6499,-2.6499,-2.6499,-2.6499,-2.6499,0.0,-2.6499,-2.6499,-2.6499,-2.6499,-2.6499,-2.6499,-2.6499,-2.6499,-2.6499,-2.6679,-2.704,-2.7537,0.0,-2.833,-2.9223,-2.9442,-2.9504,-2.9797,-2.9858,-2.9858,-2.9858,-3.0299,-3.0703,-3.0703,-3.1161,-3.1511,-3.1511,-3.1511,-3.1511,-3.1511,-3.1511,-3.1511,-3.1511,-3.1511,0.0,0.0,0.0,0.0,-3.5516,-3.6453,-3.7249,-3.7764,-3.7793,-3.7921,-3.8161,-3.8177,-3.8318,-3.8569,-3.8569,-3.8569,-3.8569,-3.8134,-3.7643,-3.7169,-3.6671,-3.5889,-3.4965,-3.5407,-3.56,-3.56,-3.56,-3.56,-3.56,-3.56,-3.56,-3.56,-3.56,-3.5717,-3.5876,0.0,0.0,0.0,0.0,0.0,0.0,0.0,0.0,0.0,0.0,0.0,0.0,0.0,0.0,0.0,0.0,0.0,-2.0867,-2.1451,-2.0934,-2.1011,-2.1952,-2.1669,-2.1555,-2.1642,-2.2526,-2.2999,-2.3073,-2.4373,-2.5194,-2.5558,-2.6198,-2.6499,-2.6499,-2.6499,-2.6499,-2.6499,-2.6499,-2.6499,-2.6499,-2.6499,-2.6499,-2.6499,-2.6499,-2.6499,0.0,-2.6499,-2.6499,-2.6499,-2.6499,-2.6499,-2.6499,-2.6499,-2.6499,-2.6499,-2.6499,-2.6499,-2.6624,-2.7129,-2.7263,-2.7484,-2.833,-2.8524,-2.862,-2.8939,-2.9002,-2.9002,-2.9002,-2.9442,-2.9858,-2.9858,-3.0524,-3.1058,-3.1058,-3.1307,-3.1511,-3.1511,-3.1511,-3.1511,-3.1511,-3.1511,-3.2019,0.0,0.0,0.0,-3.5447,-3.5952,-3.643,-3.6951,-3.6981,-3.7086,-3.7352,-3.7368,-3.7515,-3.7793,-3.7793,-3.7793,-3.7806,-3.7126,-3.6421,-3.5705,-3.5448,-3.4945,-3.426,-3.4704,-3.5028,-3.523,-3.523,-3.5385,-3.56,-3.56,-3.56,-3.56,-3.56,-3.56,-3.56,0.0,0.0,0.0,0.0,0.0,0.0,0.0,0.0,0.0,0.0,0.0,0.0,0.0,0.0,0.0,0.0,0.0,0.0,-2.0605,-2.0605,-2.1011,-2.1886,-2.1078,-2.1451,-2.3294,-2.2403,-2.285,-2.4779,-2.4862,-2.5406,-2.6349,-2.6452,-2.6499,-2.6499,-2.6499,-2.6499,-2.6499,-2.6499,-2.6499,-2.6499,-2.6499,-2.6499,-2.6499,-2.6499,-2.6499,-2.6499,-2.6499,-2.6499,-2.6499,-2.6499,-2.6499,-2.6499,-2.6499,-2.6499,-2.6499,-2.6499,-2.6499,-2.6499,-2.6499,-2.6499,-2.6692,-2.7451,-2.7637,-2.7855,-2.8684,-2.8876,-2.8876,-2.8876,-2.8907,-2.8939,0.0,0.0,-3.0299,-3.0299,-3.097,-3.1511,-3.1511,-3.1511,-3.1511,0.0,0.0,0.0,0.0,0.0,0.0,-3.54,0.0,-3.5504,-3.5504,-3.5504,-3.5799,-3.6523,-3.6554,-3.6919,-3.7661,-3.7677,-3.769,-3.7613,-3.6965,-3.6262,-3.5505,-3.4872,-3.4212,-3.3556,-3.3582,-3.3962,-3.4552,-3.4552,-3.4918,-3.5492,-3.5492,-3.5492,-3.5492,-3.5492,-3.5515,-3.5538,0.0,0.0,0.0,0.0,0.0,0.0,0.0,0.0,0.0,0.0,0.0,0.0,0.0,0.0,0.0,0.0,0.0,0.0,-2.0605,-2.0605,-2.0712,-2.0934,-2.0712,-2.0828,-2.1346,-2.1088,-2.1193,-2.1718,-2.3184,-2.4,-2.4289,-2.5791,-2.6499,-2.6499,-2.6499,-2.6499,-2.6499,-2.6499,-2.6499,-2.6499,-2.6499,-2.6499,-2.6499,-2.6499,-2.6499,-2.6499,-2.6499,-2.6499,-2.6499,-2.6499,0.0,0.0,-2.6499,-2.6499,-2.6499,-2.6499,-2.6499,-2.6499,-2.6499,-2.6499,-2.6555,-2.6748,-2.6816,-2.685,-2.7095,-2.7129,-2.7129,-2.7129,-2.7604,-2.8019,0.0,0.0,0.0,-3.0299,-3.097,0.0,-3.1511,-3.1511,0.0,-3.1511,0.0,-3.2019,-3.3365,-3.3499,0.0,0.0,-3.5504,-3.5504,-3.5504,-3.5504,-3.5587,-3.5782,-3.5782,-3.5878,-3.6085,-3.6085,-3.5857,-3.5324,-3.4653,-3.3982,-3.3311,-3.32,-3.304,-3.2895,-3.3391,-3.371,-3.3862,-3.3862,-3.3962,-3.4128,-3.4128,-3.4128,-3.4128,-3.4128,-3.4423,-3.4854,0.0,0.0,0.0,0.0,0.0,0.0,0.0,0.0,0.0,0.0,0.0,0.0,0.0,0.0,0.0,0.0,0.0,0.0,0.0,-2.0605,-2.0605,-2.0605,-2.0605,-2.0605,-2.0605,-2.0605,-2.0789,-2.1221,-2.2301,-2.3073,-2.3514,-2.5099,-2.5616,-2.5205,-2.5652,-2.5838,-2.5804,-2.5358,-2.5429,0.0,0.0,-2.5429,-2.5838,-2.5838,-2.6129,-2.6499,-2.6499,-2.6499,-2.6499,0.0,0.0,-2.6499,-2.6499,-2.6499,-2.6499,-2.6499,0.0,-2.6499,-2.6499,-2.6499,-2.6499,-2.6499,-2.6499,-2.6499,-2.6499,-2.6499,-2.6499,-2.6499,-2.685,0.0,-2.7162,0.0,0.0,0.0,0.0,0.0,-3.1438,-3.1511,-3.1511,0.0,-3.1511,0.0,-3.3365,-3.3499,-3.4053,0.0,-3.5504,-3.5504,-3.5504,-3.5504,-3.5504,-3.5504,-3.5504,-3.5504,-3.5504,-3.5205,-3.4861,-3.4503,-3.3514,-3.2871,-3.2482,-3.2226,-3.212,-3.2148,0.0,-3.2853,-3.3172,-3.3172,-3.3339,-3.3582,-3.3582,-3.3582,-3.3582,-3.3582,-3.3836,-3.4161,0.0,0.0,0.0,0.0,0.0,0.0,0.0,0.0,0.0,0.0,0.0,0.0,0.0,0.0,0.0,0.0,0.0,0.0,0.0,0.0,-2.0644,-2.0789,-2.0673,-2.0644,-2.0789,-2.0673,-2.1011,-2.1811,-2.2065,-2.2664,-2.3514,-2.4528,-2.46,-2.3927,-2.4671,-2.5087,-2.5146,-2.4253,-2.4409,-2.5111,-2.4253,-2.4409,-2.5194,0.0,-2.5734,-2.6499,-2.6499,-2.6499,-2.6499,-2.6499,-2.6499,-2.6499,-2.6499,-2.6499,-2.6499,-2.6499,-2.6499,-2.6499,-2.6499,-2.6499,-2.6499,-2.6499,-2.6499,-2.6499,-2.6499,-2.6499,-2.6499,-2.6499,0.0,-2.6499,-2.6499,-2.7162,-2.7953,-2.8716,0.0,-3.0359,-3.1058,-3.1161,-3.1219,-3.1322,-3.1351,-3.1916,-3.3365,-3.3499,-3.4053,-3.54,-3.5504,-3.5504,-3.5504,-3.5504,-3.5504,-3.5504,-3.5504,-3.5459,-3.537,-3.4771,-3.4414,-3.4234,-3.3066,-3.2437,-3.2333,-3.1765,-3.1511,-3.1511,-3.1511,0.0,-3.2465,-3.2465,-3.2788,-3.3323,-3.3323,-3.3323,-3.3323,-3.3323,-3.3375,-3.3469,0.0,0.0,0.0,0.0,0.0,0.0,0.0,0.0,0.0,0.0,-2.1603,-2.0605,0.0,0.0,0.0,0.0,0.0,0.0,0.0,0.0,0.0,-2.1735,-2.1001,-2.0972,-2.1735,-2.1011,-2.0673,-2.0828,-2.2451,-2.3331,-2.3514,-2.4528,-2.5335,-2.5943,-2.53,-2.5441,-2.6245,-2.6047,-2.6094,-2.6233,-2.606,-2.6082,-2.6245,-2.6245,0.0,0.0,-2.6499,-2.6499,-2.6499,-2.6499,-2.6499,-2.6499,-2.6499,-2.6499,-2.6499,-2.6499,-2.6499,-2.6499,-2.6499,-2.6499,-2.6499,-2.6499,-2.6499,-2.6499,-2.6499,-2.6499,0.0,0.0,-2.6499,-2.6499,-2.6499,-2.7162,-2.7769,-2.7887,0.0,0.0,0.0,0.0,-2.969,0.0,0.0,0.0,0.0,0.0,0.0,0.0,0.0,-3.5504,-3.5504,-3.5504,-3.5504,-3.5504,-3.5504,-3.5235,-3.4698,-3.4563,-3.3918,-3.2856,-3.2617,-3.2198,-3.1675,-3.1555,-3.1511,-3.1511,-3.1511,0.0,-3.1697,-3.1697,-3.1768,-3.1866,-3.1866,-3.1866,-3.1866,-3.1866,-3.2256,-3.2761,0.0,0.0,0.0,0.0,0.0,0.0,0.0,-2.5335,-2.4826,-2.4337,-2.2563,-2.1336,-2.1336,-2.1336,-2.1116,0.0,0.0,0.0,0.0,0.0,0.0,0.0,-2.1298,-2.1555,-2.1989,-2.1555,-2.1336,-2.1336,0.0,-2.201,-2.201,-2.2962,-2.3441,-2.3441,-2.3441,-2.3697,-2.4133,-2.3624,-2.4024,-2.4909,-2.4385,-2.4803,-2.5652,0.0,0.0,0.0,0.0,-2.5734,-2.5804,-2.6314,-2.6129,-2.5804,-2.6349,-2.6499,-2.6499,-2.6499,-2.6499,-2.6499,-2.6499,-2.6499,-2.6499,-2.6499,-2.6499,-2.6499,-2.6499,0.0,0.0,0.0,-2.6499,-2.6499,-2.6499,0.0,0.0,0.0,0.0,0.0,0.0,0.0,0.0,0.0,0.0,0.0,0.0,0.0,0.0,0.0,0.0,-3.4442,-3.5439,-3.5504,-3.5504,-3.5504,-3.5504,-3.5175,-3.4518,-3.4159,-3.3484,-3.2512,-3.2138,-3.1809,-3.1511,-3.1511,-3.1511,-3.1511,-3.1511,0.0,-3.1511,-3.1511,-3.1511,-3.1511,-3.1511,-3.1511,-3.1511,-3.1511,-3.171,-3.2035,0.0,0.0,0.0,0.0,0.0,0.0,0.0,-2.5838,-2.5335,-2.5335,-2.377,-2.2553,-2.2328,-2.214,-2.1631,0.0,0.0,0.0,0.0,0.0,0.0,0.0,0.0,0.0,0.0,0.0,0.0,0.0,-2.1155,0.0,0.0,0.0,0.0,0.0,-2.1773,-2.2103,-2.2253,-2.1527,-2.2113,0.0,0.0,-2.3257,0.0,0.0,0.0,0.0,0.0,0.0,-2.4791,-2.5581,-2.5476,-2.5158,-2.5921,-2.6314,-2.6499,-2.6499,-2.6499,-2.6499,-2.6499,-2.6499,-2.6499,-2.6499,-2.6499,-2.6499,-2.6499,-2.6499,0.0,0.0,-2.6499,-2.6499,-2.6499,0.0,0.0,0.0,0.0,0.0,0.0,0.0,0.0,0.0,0.0,0.0,0.0,0.0,0.0,0.0,0.0,0.0,-3.51,-3.518,-3.5279,-3.5504,-3.5355,-3.4951,-3.4294,-3.3619,-3.2961,-3.2273,-3.175,-3.1511,-3.1511,-3.1511,-3.1511,-3.1511,-3.1511,0.0,0.0,-3.1511,-3.1511,-3.1511,-3.1511,-3.1511,-3.1511,-3.1511,-3.1511,-3.1511,0.0,0.0,0.0,0.0,0.0,0.0,0.0,-2.6418,-2.6349,-2.6349,-2.5406,-2.4384,-2.3441,-2.2553,-2.1631,0.0,0.0,0.0,0.0,0.0,0.0,0.0,0.0,0.0,0.0,0.0,0.0,0.0,0.0,0.0,0.0,0.0,0.0,0.0,0.0,0.0,-2.3368,-2.3257,0.0,0.0,0.0,0.0,0.0,0.0,0.0,0.0,0.0,0.0,0.0,0.0,0.0,-2.5016,-2.5123,-2.5769,-2.6499,-2.6499,0.0,0.0,-2.6499,-2.6499,-2.6499,-2.6499,-2.6499,-2.6499,-2.6499,0.0,0.0,-2.6499,-2.6499,-2.6499,-2.6499,-2.6499,-2.6521,0.0,0.0,-2.6658,0.0,0.0,0.0,0.0,0.0,0.0,0.0,0.0,0.0,0.0,0.0,0.0,-3.4061,-3.4129,-3.4543,-3.5472,-3.4906,-3.4279,-3.3589,-3.2931,-3.2243,-3.1585,-3.1525,-3.1511,-3.1511,-3.1511,-3.1511,-3.1511,-3.1511,0.0,0.0,-3.1511,-3.1511,-3.1511,-3.1511,-3.1511,-3.1511,-3.1511,-3.1511,-3.1511,0.0,0.0,0.0,0.0,0.0,0.0,-2.6499,-2.6499,-2.6499,-2.6499,-2.5616,-2.4862,-2.4456,-2.3526,-2.2301,-2.0712,0.0,0.0,0.0,0.0,0.0,0.0,0.0,0.0,0.0,0.0,-2.1441,-2.1441,0.0,0.0,0.0,0.0,0.0,0.0,0.0,0.0,0.0,-2.1745,0.0,0.0,0.0,0.0,0.0,0.0,0.0,0.0,0.0,0.0,0.0,0.0,0.0,0.0,-2.3891,-2.4779,0.0,0.0,-2.6499,-2.6499,-2.6499,-2.6499,-2.6499,-2.6499,-2.6499,-2.6499,-2.6499,0.0,-2.6499,-2.6499,-2.6499,-2.6499,-2.6499,-2.6499,-2.6499,-2.6499,-2.6499,0.0,0.0,0.0,0.0,0.0,0.0,0.0,0.0,0.0,0.0,0.0,0.0,0.0,-3.2249,-3.2855,-3.319,-3.3278,-3.3006,-3.2391,-3.1389,-3.1131,-3.0671,-3.0011,-3.0011,-3.0011,-3.0011,-3.0011,-3.0269,-3.0777,-3.0777,0.0,0.0,-3.1511,-3.1511,-3.1511,-3.1511,-3.1511,-3.1511,-3.1511,-3.1511,-3.1511,0.0,0.0,0.0,0.0,0.0,-2.6499,-2.6499,-2.6499,-2.6499,-2.6499,-2.5873,-2.5335,-2.5052,-2.4108,-2.2813,-2.1155,-2.1631,0.0,0.0,0.0,0.0,0.0,0.0,0.0,0.0,0.0,-2.1593,-2.1593,-2.0934,-2.0605,0.0,0.0,0.0,0.0,0.0,0.0,0.0,0.0,0.0,0.0,0.0,0.0,0.0,0.0,0.0,0.0,0.0,0.0,0.0,0.0,0.0,0.0,-2.285,-2.3745,-2.4707,0.0,-2.5826,-2.599,-2.5687,-2.5838,-2.5978,-2.5687,-2.5838,-2.599,0.0,0.0,-2.5604,-2.5604,-2.5604,-2.5687,-2.5978,-2.606,-2.6164,-2.6465,-2.6499,-2.6499,-2.6499,0.0,0.0,0.0,0.0,0.0,0.0,0.0,0.0,0.0,0.0,0.0,0.0,-3.1229,-3.1621,-3.1778,-3.1598,-3.1003,-3.0012,-2.9785,-2.9481,-2.9002,-2.9002,-2.9002,-2.9002,-2.9002,-2.9317,-2.9919,-2.9919,0.0,0.0,-3.0777,-3.0777,-3.0807,-3.1029,-3.1161,-3.1161,-3.1409,-3.1511,-3.1511,0.0,0.0,0.0,0.0,0.0,0.0,-2.6499,-2.6499,-2.6499,-2.6499,-2.6499,-2.6094,-2.5123,-2.4108,-2.311,-2.2065,-2.1989,0.0,0.0,0.0,0.0,0.0,0.0,0.0,0.0,0.0,-2.0605,-2.0605,-2.0605,-2.0605,-2.0605,-2.0605,0.0,0.0,0.0,0.0,0.0,0.0,0.0,0.0,0.0,0.0,0.0,0.0,0.0,0.0,0.0,0.0,0.0,0.0,0.0,0.0,0.0,-2.2702,-2.3514,-2.3514,-2.4228,-2.4791,-2.3818,-2.4264,-2.4791,-2.3781,-2.4264,-2.4743,0.0,-2.3514,-2.3514,-2.3514,-2.3514,-2.3854,-2.4826,-2.5016,-2.5335,-2.6349,-2.6499,-2.6499,0.0,0.0,0.0,0.0,0.0,0.0,0.0,0.0,0.0,0.0,0.0,0.0,0.0,-2.9252,-2.9803,-3.173,-3.1163,-3.0555,-3.0012,-2.9338,-2.9016,-2.9002,-2.9002,-2.9002,-2.9002,-2.9002,-2.9002,0.0,0.0,0.0,0.0,-2.9034,-2.9034,-2.9097,-2.9981,-3.0299,-3.0419,-3.1219,-3.1511,-3.1511,0.0,0.0,0.0,0.0,0.0,0.0,0.0,-2.6499,-2.6499,-2.6499,-2.6499,-2.6383,-2.606,-2.4516,-2.3368,-2.3036,-2.1821,0.0,0.0,0.0,0.0,0.0,0.0,0.0,0.0,-2.0605,-2.0605,-2.0605,-2.0605,-2.0605,-2.0605,-2.0605,-2.0605,-2.0605,0.0,0.0,0.0,0.0,0.0,0.0,0.0,0.0,0.0,0.0,0.0,0.0,0.0,0.0,0.0,0.0,0.0,0.0,0.0,0.0,0.0,-2.1707,-2.2675,0.0,-2.3588,-2.3745,-2.3891,-2.3599,-2.3745,-2.3891,-2.3551,-2.3514,-2.3514,-2.3514,-2.3514,-2.3599,-2.3927,-2.3963,-2.4072,-2.4397,-2.4433,-2.4696,0.0,0.0,0.0,0.0,0.0,0.0,0.0,0.0,0.0,0.0,0.0,0.0,-2.8637,-2.8461,-2.8642,-2.9256,-2.8698,-2.8161,-2.759,-2.7408,-2.7284,-2.7284,-2.7284,-2.7284,-2.7284,-2.7284,-2.7571,0.0,0.0,0.0,0.0,-2.9002,-2.9002,-2.9034,-2.9286,-2.9411,-2.9442,-2.969,-2.9797,-2.9797,0.0,0.0,0.0,0.0,0.0,0.0,0.0,-2.6499,-2.6499,-2.6499,-2.6499,-2.6349,-2.599,-2.4469,-2.3331,-2.2962,-2.1489,0.0,0.0,0.0,0.0,0.0,0.0,0.0,-2.0605,-2.0605,-2.0605,-2.0605,-2.0605,-2.0605,-2.0605,-2.0605,-2.0605,-2.0605,-2.0605,-2.0605,0.0,0.0,0.0,0.0,0.0,0.0,-2.0605,0.0,0.0,0.0,0.0,0.0,0.0,0.0,0.0,0.0,0.0,0.0,0.0,0.0,-2.1451,-2.2414,0.0,-2.2664,-2.285,-2.2489,-2.2664,0.0,0.0,-2.2414,-2.2414,-2.2414,-2.2414,-2.2526,-2.2888,-2.2925,-2.3073,-2.3441,-2.3514,0.0,0.0,0.0,0.0,0.0,0.0,0.0,0.0,0.0,0.0,0.0,0.0,0.0,-2.8109,-2.7908,-2.7795,-2.7795,-2.7457,-2.7052,-2.6499,-2.6499,-2.6499,-2.6499,-2.6499,-2.6499,-2.6499,-2.6499,-2.6782,0.0,0.0,0.0,0.0,-2.8051,-2.8051,-2.8084,-2.8395,-2.8524,-2.8556,-2.8876,-2.9002,-2.9002,0.0,0.0,0.0,0.0,0.0,0.0,0.0,-2.6499,-2.6499,-2.6499,-2.6499,-2.6129,-2.5123,-2.4108,-2.311,-2.2103,0.0,0.0,0.0,0.0,0.0,0.0,0.0,0.0,-2.0605,-2.0605,-2.0605,-2.0605,-2.0605,-2.0605,-2.0605,-2.0605,-2.0605,-2.0605,-2.0605,-2.0605,0.0,0.0,0.0,0.0,-2.0605,-2.0605,0.0,0.0,0.0,0.0,0.0,0.0,0.0,0.0,0.0,0.0,0.0,0.0,0.0,0.0,0.0,0.0,0.0,-2.1231,-2.1697,0.0,0.0,0.0,-2.0789,-2.0605,0.0,-2.0605,-2.0605,-2.0857,-2.1735,-2.1886,-2.2215,-2.3147,0.0,0.0,0.0,0.0,0.0,0.0,0.0,0.0,0.0,0.0,0.0,0.0,0.0,0.0,-2.7752,-2.7315,-2.7028,-2.7028,-2.7028,-2.6862,-2.6499,-2.6499,-2.6499,-2.6499,-2.6499,-2.6499,-2.6499,-2.6499,-2.6499,0.0,0.0,0.0,0.0,-2.6499,-2.6499,-2.6555,-2.7317,-2.7604,-2.7703,-2.8524,-2.8812,-2.8812,0.0,0.0,0.0,0.0,0.0,0.0,0.0,0.0,0.0,0.0,-2.6499,-2.6129,-2.5123,-2.4108,-2.311,0.0,0.0,0.0,0.0,0.0,0.0,0.0,0.0,0.0,-2.0605,-2.0605,-2.0605,-2.0605,-2.0605,-2.0605,-2.0605,-2.0605,-2.0605,-2.0605,-2.0605,-2.0605,0.0,0.0,0.0,0.0,-2.0605,-2.0605,0.0,0.0,0.0,0.0,-2.0605,-2.0605,0.0,0.0,0.0,0.0,0.0,0.0,0.0,0.0,-2.0605,-2.0605,-2.0605,0.0,-2.0895,-2.0644,-2.0789,-2.0857,0.0,-2.0605,-2.0605,-2.0605,0.0,-2.0673,-2.0895,-2.0934,-2.1011,0.0,0.0,0.0,0.0,0.0,0.0,0.0,0.0,0.0,0.0,0.0,0.0,0.0,0.0,-2.4574,-2.4574,-2.4459,-2.439,-2.439,-2.439,-2.5076,-2.6499,-2.6499,-2.6499,-2.6499,-2.6499,-2.6499,-2.6499,-2.6499,-2.6499,0.0,0.0,0.0,-2.6499,-2.6499,-2.6499,-2.6521,-2.6714,-2.6782,-2.6816,-2.7007,-2.7095,-2.7095,0.0,0.0,0.0,0.0,0.0,0.0,0.0,0.0,0.0,0.0,0.0,-2.5441,-2.4409,-2.3404,0.0,0.0,0.0,0.0,0.0,0.0,0.0,0.0,0.0,-2.0605,-2.0605,-2.0605,-2.0605,-2.0605,-2.0605,-2.0605,-2.0605,-2.0605,-2.0605,-2.0605,-2.0605,-2.0605,0.0,0.0,0.0,0.0,-2.0605,0.0,0.0,0.0,0.0,0.0,-2.0605,-2.0605,0.0,-2.0605,-2.0605,-2.0605,0.0,0.0,0.0,0.0,-2.0605,-2.0605,-2.0605,-2.0605,-2.0605,-2.0605,-2.0605,-2.0605,-2.0605,-2.0605,-2.0605,0.0,0.0,0.0,0.0,0.0,0.0,0.0,0.0,0.0,0.0,0.0,0.0,0.0,0.0,0.0,0.0,0.0,0.0,0.0,0.0,-2.3514,-2.3514,-2.3514,-2.3514,-2.3514,-2.3514,-2.4024,-2.5099,-2.5581,-2.5804,-2.5804,-2.628,-2.6499,-2.6499,-2.6499,-2.6499,0.0,0.0,0.0,-2.6499,-2.6499,-2.6499,-2.6499,-2.6499,-2.6499,-2.6499,-2.6499,-2.6499,-2.6499,0.0,0.0,0.0,0.0,0.0,0.0,0.0,0.0,0.0,0.0,0.0,0.0,0.0,0.0,0.0,0.0,0.0,0.0,0.0,0.0,0.0,0.0,-2.0605,-2.0605,-2.0605,-2.0605,-2.0605,-2.0605,-2.0605,-2.0605,-2.0605,-2.0605,-2.0605,-2.0605,-2.0605,-2.0605,0.0,0.0,0.0,0.0,-2.0605,0.0,0.0,0.0,0.0,0.0,0.0,0.0,0.0,-2.0527,-2.0605,-2.0605,-2.0605,0.0,0.0,0.0,0.0,0.0,-2.0605,-2.0605,-2.0605,-2.0605,-2.0605,-2.0605,-2.0605,0.0,0.0,0.0,0.0,0.0,0.0,0.0,0.0,0.0,0.0,0.0,0.0,0.0,0.0,0.0,0.0,0.0,0.0,0.0,0.0,0.0,0.0,-2.3047,-2.3047,-2.3047,-2.3047,-2.3047,-2.3047,-2.3047,-2.3047,-2.4192,-2.4779,-2.4791,-2.5616,-2.6047,-2.6047,-2.6047,-2.6047,-2.6047,0.0,0.0,-2.6047,-2.6198,-2.628,-2.628,-2.6452,-2.6499,-2.6499,-2.6499,-2.6499,-2.6499,0.0,0.0,0.0,0.0,0.0,0.0,0.0,0.0,0.0,0.0,0.0,0.0,0.0,0.0,0.0,0.0,0.0,0.0,0.0,0.0,0.0,-2.0605,-2.0605,-2.0605,-2.0605,-2.0605,-2.0605,-2.0605,-2.0605,-2.0605,-2.0605,-2.0605,-2.0605,-2.0605,-2.0605,-2.0605,-2.0605,-2.0605,0.0,-2.0605,-2.0605,0.0,0.0,0.0,0.0,0.0,0.0,0.0,0.0,-2.0284,-2.0605,-2.0605,-2.0605,0.0,0.0,0.0,0.0,0.0,-2.0605,-2.0605,-2.0605,-2.0605,-2.0605,-2.0605,-2.0605,-2.0605,0.0,0.0,0.0,0.0,0.0,0.0,0.0,0.0,0.0,0.0,0.0,0.0,0.0,0.0,0.0,0.0,0.0,0.0,0.0,0.0,0.0,0.0,-2.1049,-2.1049,-2.1049,-2.1049,-2.1049,-2.1049,-2.1049,-2.2824,-2.3745,-2.3745,-2.3891,-2.3963,-2.3963,-2.3963,-2.3963,-2.3963,0.0,-2.3963,-2.4036,-2.4898,-2.5229,-2.53,-2.6164,-2.6499,-2.6499,-2.6499,-2.6499,-2.6499,0.0,0.0,0.0,0.0,0.0,0.0,0.0,0.0,0.0,0.0,0.0,0.0,0.0,0.0,0.0,0.0,0.0,0.0,0.0,0.0,-2.0605,-2.0605,-2.0605,-2.0605,-2.0605,-2.0605,-2.0605,-2.0605,-2.0605,-2.0605,-2.0605,-2.0605,-2.0605,-2.0605,-2.0605,-2.0605,-2.0605,-2.0605,-2.0605,-2.0605,0.0,0.0,0.0,0.0,0.0,0.0,0.0,0.0,0.0,0.0,-2.0118,-2.0605,-2.0605,0.0,0.0,0.0,0.0,0.0,-2.044,-2.0605,-2.044,-1.9883,-1.9717,-1.9559,-1.8948,-1.9274,-1.9717,0.0,0.0,0.0,0.0,0.0,0.0,0.0,0.0,0.0,0.0,0.0,0.0,0.0,0.0,0.0,0.0,0.0,0.0,0.0,0.0,0.0,-2.0605,-2.0605,-2.0605,-2.0605,-2.0605,-2.0605,-2.0605,-2.1489,-2.2188,-2.2702,-2.3257,-2.3514,-2.3514,-2.3514,-2.3514,-2.3514,0.0,-2.3514,-2.3526,-2.4,-2.4192,-2.4228,-2.4696,-2.4874,-2.4874,-2.4874,-2.4874,-2.4874,0.0,0.0,0.0,0.0,0.0,0.0,0.0,0.0,0.0,0.0,0.0,0.0,0.0,0.0,0.0,0.0,0.0,0.0,0.0,-2.0605,-2.0605,-2.0605,-2.0605,-2.0605,-2.0605,-2.0605,-2.0605,-2.0605,-2.0605,-2.0605,-2.0605,-2.0605,-2.0605,-2.0605,-2.0605,-2.0605,-2.0605,-2.0605,-2.044,-2.0245,0.0,0.0,0.0,0.0,0.0,0.0,0.0,0.0,0.0,0.0,0.0,0.0,0.0,0.0,0.0,-1.9923,-1.9441,-1.8798,-1.9599,-1.9835,-1.955,-1.851,-1.863,-1.8718,-1.7545,-1.7989,-1.8598,0.0,0.0,0.0,0.0,0.0,0.0,0.0,0.0,0.0,0.0,0.0,0.0,0.0,0.0,0.0,0.0,0.0,0.0,0.0,0.0,0.0,-2.0605,-2.0605,-2.0605,-2.0605,-2.0605,-2.0605,-2.0605,-2.0605,-2.0972,-2.1669,-2.244,-2.2824,-2.2824,-2.2824,-2.2824,-2.2824,-2.2824,-2.2824,-2.2861,-2.3073,-2.3147,-2.3184,-2.3404,-2.3514,-2.3514,-2.3514,-2.3514,-2.3514,0.0,0.0,0.0,0.0,0.0,0.0,0.0,0.0,0.0,0.0,0.0,0.0,0.0,0.0,0.0,0.0,0.0,0.0,0.0,-2.0605,-2.0605,-2.0605,-2.0605,-2.0605,-2.0605,-2.0605,-2.0605,-2.0605,-2.0605,-2.0605,-2.0605,-2.0605,-2.0605,-2.0605,-2.0605,-2.0605,-2.0605,-2.0605,-2.004,-1.9116,-1.9116,0.0,0.0,0.0,0.0,0.0,0.0,0.0,0.0,0.0,0.0,0.0,0.0,0.0,-1.7666,-1.8798,-1.831,-1.7455,-1.7504,-1.7536,-1.7293,-1.6232,-1.7488,-1.8718,-1.7545,-1.7374,0.0,-1.7415,0.0,0.0,0.0,0.0,0.0,0.0,0.0,0.0,0.0,0.0,0.0,0.0,0.0,0.0,0.0,0.0,0.0,0.0,0.0,0.0,-2.0605,-2.0605,-2.0605,-2.0605,-2.0605,-2.0605,-2.0605,-2.0605,-2.0644,-2.0712,-2.0789,-2.0828,-2.0828,-2.0828,-2.0828,-2.0828,-2.0828,-2.0828,-2.0867,-2.1735,-2.2103,-2.2215,-2.3147,-2.3514,-2.3514,-2.3514,-2.3514,-2.3514,0.0,0.0,0.0,0.0,0.0,0.0,0.0,0.0,0.0,0.0,0.0,0.0,0.0,0.0,0.0,0.0,0.0,0.0,0.0,-2.0605,-2.0605,-2.0605,-2.0605,-2.0605,-2.0605,-2.0605,-2.0605,-2.0605,-2.0605,-2.0605,-2.0605,-2.0605,-2.0245,-1.9599,-1.9599,-1.9195,-1.8541,-1.8541,-1.8301,-1.7948,-1.7948,-1.7658,0.0,0.0,0.0,0.0,0.0,0.0,0.0,0.0,-1.6764,-1.7374,-1.7827,-1.7172,-1.6519,-1.7617,-1.7172,-1.6437,-1.7131,-1.7302,-1.705,-1.5985,-1.6347,-1.6683,0.0,-1.5835,-1.6314,-1.6314,-1.6846,0.0,0.0,0.0,0.0,0.0,0.0,0.0,0.0,0.0,0.0,0.0,0.0,0.0,0.0,0.0,0.0,0.0,0.0,0.0,0.0,-2.0605,-2.0605,-2.0605,-2.0605,-2.0605,-2.0605,-2.0605,-2.0605,-2.0605,-2.0605,-2.0605,-2.0605,-2.0605,-2.0605,-2.0605,-2.0605,-2.0605,-2.0644,-2.0972,-2.1116,-2.1155,-2.1565,-2.1718,-2.1718,-2.1718,-2.1718,-2.1718,0.0,0.0,0.0,0.0,0.0,0.0,0.0,0.0,0.0,0.0,0.0,0.0,0.0,0.0,0.0,0.0,0.0,0.0,-2.0605,-2.0605,-2.0605,-2.0605,-2.0605,-2.0605,-2.0605,-2.0605,-2.0605,-2.0605,-2.0245,-2.0079,-2.0089,-1.9717,-1.9155,-1.847,-1.847,-1.8029,-1.7302,-1.7302,-1.709,-1.6805,-1.6805,-1.6601,0.0,0.0,0.0,0.0,0.0,0.0,0.0,0.0,-1.567,-1.6363,-1.6683,-1.6075,-1.5421,-1.6478,-1.6034,-1.5338,-1.6083,-1.6281,-1.6116,-1.5379,-1.5171,0.0,-1.425,-1.4657,-1.5171,-1.5171,-1.5794,0.0,0.0,0.0,0.0,0.0,0.0,0.0,0.0,0.0,0.0,0.0,0.0,0.0,0.0,0.0,0.0,0.0,0.0,0.0,0.0,-1.9559,-1.9559,-1.9559,-1.9923,-2.0079,-2.0079,-2.044,-2.0605,-2.0605,-2.0605,-2.0605,-2.0605,-2.0605,-2.0605,-2.0605,-2.0605,-2.0605,-2.0605,-2.0605,-2.0605,-2.0605,-2.0605,-2.0605,-2.0605,-2.0605,-2.0605,-2.0605,0.0,0.0,0.0,0.0,0.0,0.0,0.0,0.0,0.0,0.0,0.0,0.0,0.0,0.0,0.0,0.0,0.0,0.0,-2.0605,-2.0605,-2.0605,-2.0605,-2.0605,-2.0605,-2.0605,-2.0605,-2.0566,-2.0566,-1.952,-1.8997,-1.8957,-1.7827,-1.7293,-1.7302,-1.7302,-1.7302,-1.7253,-1.7253,-1.6642,-1.5696,-1.5696,-1.5061,-1.4088,0.0,0.0,0.0,0.0,0.0,0.0,0.0,-1.4088,-1.4292,-1.5338,-1.4977,-1.4292,-1.5379,-1.4936,-1.4088,-1.4088,-1.4088,-1.4088,0.0,0.0,0.0,-1.4088,-1.4088,-1.4088,-1.4088,0.0,-1.4088,-1.4088,0.0,0.0,0.0,0.0,0.0,0.0,0.0,0.0,0.0,0.0,0.0,0.0,0.0,0.0,0.0,0.0,0.0,0.0,-1.7302,-1.7302,-1.7302,-1.839,-1.8997,-1.8997,-2.004,-2.0566,-2.0566,-2.0566,-2.0566,-2.0605,-2.0605,-2.0605,-2.0605,-2.0605,-2.0605,-2.0605,-2.0605,-2.0605,-2.0605,-2.0605,-2.0605,-2.0605,-2.0605,-2.0605,-2.0605,0.0,0.0,0.0,0.0,0.0,0.0,0.0,0.0,0.0,0.0,0.0,0.0,0.0,0.0,0.0,0.0,0.0,0.0,-2.0605,-2.0605,-2.0605,-2.0605,-2.0605,-2.0605,-2.0605,-1.9844,-1.9481,-1.9481,-1.835,-1.7779,-1.7787,-1.7464,-1.6887,-1.6191,-1.6191,-1.5752,-1.5068,-1.5068,-1.4859,-1.4573,-1.4573,-1.437,-1.4088,0.0,0.0,0.0,0.0,0.0,0.0,0.0,0.0,0.0,-1.4447,-1.437,-1.4166,-1.4489,-1.4334,-1.4088,-1.4088,-1.4088,0.0,-1.4088,0.0,0.0,0.0,-1.4088,0.0,0.0,-1.4088,-1.4088,0.0,0.0,0.0,0.0,0.0,0.0,0.0,0.0,0.0,0.0,0.0,0.0,0.0,0.0,0.0,0.0,0.0,0.0,0.0,-1.7302,-1.7302,-1.7302,-1.7626,-1.7779,-1.7779,-1.8101,-1.827,-1.827,-1.827,-1.9107,-2.0605,-2.0605,-2.0605,-2.0605,-2.0605,-2.0605,-2.0605,-2.0605,-2.0605,-2.0605,-2.0605,-2.0605,-2.0605,-2.0605,-2.0605,-2.0605,0.0,0.0,0.0,0.0,0.0,0.0,0.0,0.0,0.0,0.0,-2.4742,-2.372,0.0,0.0,0.0,0.0,0.0,0.0,0.0,-2.1134,-2.1134,-2.1134,-2.1134,-2.1006,-2.083,-1.9197,-1.831,-1.831,-1.7212,-1.6642,-1.6642,-1.6247,-1.567,-1.5054,-1.5054,-1.4692,-1.4088,-1.4088,-1.4088,-1.4088,-1.4088,-1.4088,-1.4088,0.0,0.0,0.0,0.0,0.0,0.0,0.0,0.0,0.0,-1.4088,-1.4088,-1.4088,-1.4088,-1.4088,-1.4088,-1.4088,-1.4088,0.0,-1.4088,-1.4088,-1.4088,-1.4088,0.0,0.0,0.0,0.0,0.0,0.0,0.0,0.0,0.0,0.0,0.0,0.0,0.0,0.0,0.0,0.0,0.0,0.0,0.0,0.0,0.0,0.0,0.0,0.0,-1.6041,-1.6041,-1.6041,-1.6445,-1.6642,-1.6642,-1.709,-1.7302,-1.7302,-1.7302,-1.798,-1.9274,-1.9274,-1.9274,-1.9274,-1.9274,-1.955,-1.9962,-1.9962,-2.0206,-2.0605,-2.0605,-2.0605,-2.0605,-2.0605,-2.0605,-2.0605,0.0,0.0,0.0,0.0,0.0,0.0,0.0,0.0,0.0,0.0,-2.5651,-2.4602,0.0,0.0,0.0,0.0,0.0,0.0,0.0,-2.1885,-2.1885,-2.1885,-2.1885,-2.1639,-2.1079,-1.8626,-1.7286,-1.7131,-1.6067,-1.5538,-1.5538,-1.4573,-1.4088,-1.4088,-1.4088,-1.4088,-1.4088,-1.4088,-1.4088,-1.4088,-1.4088,-1.4088,-1.4088,-1.4088,0.0,0.0,0.0,0.0,0.0,0.0,0.0,0.0,-1.4088,-1.4088,-1.4088,-1.4088,-1.4088,-1.4088,-1.4088,-1.4088,0.0,-1.4088,-1.4088,0.0,-1.4088,0.0,0.0,0.0,0.0,0.0,0.0,0.0,0.0,0.0,0.0,0.0,0.0,0.0,0.0,0.0,0.0,0.0,0.0,0.0,0.0,0.0,0.0,0.0,0.0,-1.4088,-1.4088,-1.4088,-1.5061,-1.5538,-1.5538,-1.6519,-1.7017,-1.7017,-1.7017,-1.7017,-1.7017,-1.7212,-1.7302,-1.7302,-1.7302,-1.7908,-1.8838,-1.8838,-1.9402,-2.0284,-2.0284,-2.0284,-2.0284,-2.0284,-2.0284,-2.0323,0.0,0.0,0.0,0.0,0.0,0.0,0.0,0.0,0.0,0.0,0.0,0.0,0.0,0.0,0.0,0.0,0.0,0.0,0.0,-2.1885,-2.1885,-2.1885,-2.1885,-2.1291,-1.997,-1.8551,-1.7251,-1.6026,-1.4977,-1.4454,-1.4454,-1.4208,-1.4088,-1.4088,-1.4088,-1.4088,-1.4088,-1.4088,-1.4088,-1.4088,-1.4088,-1.4088,-1.4088,-1.4088,-1.4088,0.0,0.0,0.0,0.0,0.0,0.0,0.0,-1.4088,-1.4088,-1.4088,-1.4088,-1.4088,-1.4088,-1.4088,-1.4088,0.0,0.0,-1.4088,-1.4088,-1.4088,0.0,0.0,0.0,0.0,0.0,0.0,0.0,0.0,0.0,0.0,0.0,0.0,0.0,0.0,0.0,0.0,0.0,0.0,0.0,0.0,0.0,0.0,0.0,-1.4088,-1.4088,-1.4088,-1.4088,-1.4328,-1.4454,-1.4454,-1.4657,-1.4783,0.0,-1.4783,-1.4783,-1.4866,-1.6527,-1.7302,-1.7302,-1.7302,-1.7455,-1.7666,-1.7666,-1.7779,-1.802,-1.802,-1.802,-1.802,-1.802,-1.802,-1.8149,0.0,0.0,0.0,0.0,0.0,0.0,0.0,0.0,0.0,0.0,0.0,0.0,0.0,0.0,0.0,0.0,0.0,0.0,0.0,0.0,-2.248,-2.248,-2.1759,-2.0931,-2.0144,-1.8302,-1.6854,-1.5886,-1.483,-1.4222,-1.4088,-1.4088,-1.4088,-1.4088,-1.4088,-1.4088,-1.4088,-1.4088,-1.4088,-1.4088,-1.4088,-1.4088,-1.4088,-1.4088,-1.4088,-1.4088,-1.4088,0.0,0.0,0.0,0.0,0.0,0.0,0.0,-1.3997,-1.3421,-1.3245,-1.3245,-1.3245,0.0,0.0,-1.3955,0.0,-1.4088,-1.4088,0.0,0.0,0.0,0.0,0.0,0.0,0.0,0.0,0.0,0.0,0.0,0.0,0.0,0.0,0.0,0.0,0.0,0.0,0.0,0.0,0.0,0.0,-1.4088,-1.4088,-1.4088,-1.4088,-1.4088,-1.4088,-1.4088,-1.4088,-1.4088,-1.4088,-1.4088,-1.4088,-1.4088,-1.413,-1.5269,-1.576,-1.576,-1.576,-1.6075,-1.6519,-1.6519,-1.6846,-1.7302,-1.7302,-1.7302,-1.7302,-1.7302,-1.7302,-1.7374,0.0,0.0,0.0,0.0,0.0,0.0,0.0,0.0,0.0,0.0,0.0,0.0,0.0,0.0,0.0,0.0,0.0,0.0,0.0,0.0,0.0,-2.3091,-2.1802,-2.0918,-2.0411,-1.8217,-1.6614,-1.5805,-1.4936,-1.4369,-1.4088,-1.4088,-1.4088,-1.4088,-1.4088,-1.4088,-1.4088,-1.4088,-1.4088,-1.4088,-1.4088,-1.4088,-1.4088,-1.4088,-1.4088,-1.4088,-1.4088,-1.4088,-1.4088,-1.4088,0.0,0.0,0.0,0.0,-1.3343,-1.2547,-1.2151,-1.2029,-1.2029,0.0,-1.2334,-1.3737,-1.3955,0.0,-1.4039,0.0,0.0,0.0,0.0,0.0,0.0,0.0,0.0,0.0,0.0,0.0,0.0,0.0,0.0,0.0,0.0,0.0,0.0,0.0,0.0,0.0,0.0,-1.4088,-1.4088,-1.4088,-1.4088,-1.4088,-1.4088,-1.4088,-1.4088,-1.4088,-1.4088,-1.4088,-1.4088,-1.4088,-1.4088,-1.4088,-1.4088,-1.4088,-1.4088,-1.4615,-1.5421,-1.5421,-1.5951,-1.6731,-1.6731,-1.6731,-1.6731,-1.6731,-1.6731,-1.6772,0.0,0.0,0.0,0.0,0.0,0.0,0.0,0.0,0.0,0.0,-2.7168,0.0,0.0,0.0,0.0,0.0,0.0,0.0,-2.3091,0.0,0.0,-2.3091,-2.2902,-2.1711,-1.9367,-1.8955,-1.7427,-1.4726,-1.4559,-1.4369,-1.4088,-1.4088,-1.4088,-1.4088,-1.4088,-1.4088,-1.4088,-1.4088,-1.4088,-1.4088,-1.4088,-1.4088,-1.4088,-1.4088,-1.4088,-1.4088,-1.4088,-1.4088,-1.4088,-1.4088,-1.3421,0.0,0.0,0.0,-1.1214,-1.2066,-1.1595,-1.0826,-1.0826,0.0,-1.1343,0.0,-1.3294,-1.2808,0.0,0.0,0.0,0.0,0.0,0.0,0.0,0.0,0.0,0.0,0.0,0.0,0.0,0.0,0.0,0.0,0.0,0.0,0.0,0.0,0.0,0.0,-1.4088,-1.4088,-1.4088,-1.4088,-1.4088,-1.4088,-1.4088,-1.4088,-1.4088,-1.4088,-1.4088,-1.4088,-1.4088,-1.4088,-1.4088,-1.4088,-1.4088,-1.4088,-1.4088,-1.4166,-1.4328,-1.4328,-1.4412,-1.4538,-1.4538,-1.4538,-1.4538,-1.4538,-1.4538,-1.4657,0.0,0.0,0.0,0.0,0.0,0.0,0.0,0.0,0.0,0.0,0.0,-2.6058,0.0,0.0,0.0,-2.3091,-2.3091,-2.3091,-2.3091,-2.3091,-2.3091,-2.3091,-2.2448,-2.123,-1.9355,-1.8678,-1.7228,-1.501,-1.485,-1.4616,-1.4322,-1.4162,-1.4088,-1.4088,-1.4088,-1.4088,-1.4088,-1.4088,-1.4088,-1.4088,-1.4088,-1.4088,-1.4088,-1.4088,-1.4088,-1.4088,-1.4088,0.0,-1.4088,-1.4088,-1.3294,-1.237,-1.2942,0.0,0.0,0.0,-1.0053,-0.9666,-0.9666,-1.0091,-1.0869,0.0,-1.1735,-1.1472,-1.204,0.0,0.0,0.0,0.0,0.0,0.0,0.0,0.0,0.0,0.0,0.0,0.0,0.0,0.0,0.0,0.0,0.0,0.0,0.0,0.0,0.0,-1.4088,-1.4088,-1.4088,-1.4088,-1.4088,-1.4088,-1.4088,-1.4088,-1.4088,-1.4088,-1.4088,-1.4088,-1.4088,-1.4088,-1.4088,-1.4088,-1.4088,-1.4088,-1.4088,-1.4088,-1.4088,-1.4088,-1.4088,-1.4088,-1.4088,-1.4088,-1.4088,-1.4088,-1.4088,-1.4173,0.0,0.0,0.0,0.0,0.0,0.0,0.0,0.0,0.0,0.0,0.0,0.0,0.0,0.0,0.0,0.0,-2.3091,-2.3091,-2.3091,-2.3091,-2.3091,-2.3091,-2.2262,-2.1212,-1.9988,-1.8772,-1.7381,-1.5837,-1.5352,-1.4883,-1.4516,-1.4302,-1.4162,-1.4088,-1.4088,-1.4088,-1.4088,-1.4088,-1.4088,-1.4088,-1.4088,-1.4088,-1.4088,-1.4088,-1.3906,-1.3646,-1.3646,0.0,0.0,0.0,0.0,0.0,0.0,0.0,0.0,0.0,0.0,0.0,0.0,0.0,-0.9874,-1.0438,-1.0394,-1.0221,0.0,0.0,0.0,0.0,0.0,0.0,0.0,0.0,0.0,0.0,0.0,0.0,0.0,0.0,0.0,0.0,0.0,0.0,0.0,0.0,0.0,0.0,-1.4088,-1.4088,-1.4088,-1.4088,-1.4088,-1.4088,-1.4088,-1.4088,-1.4088,-1.4088,-1.4088,-1.4088,-1.4088,-1.4088,-1.4088,-1.4088,-1.4088,-1.4088,-1.4088,-1.4088,-1.4088,-1.4088,-1.4088,-1.4088,-1.4088,-1.4088,-1.4088,-1.4088,-1.4088,-1.4088,0.0,0.0,0.0,0.0,0.0,0.0,0.0,0.0,0.0,0.0,0.0,0.0,-2.4787,-2.38,-2.3091,-2.3091,-2.3091,-2.3091,-2.3091,-2.3091,-2.3091,-2.3091,-2.3047,0.0,-2.1248,-2.0034,-1.8635,-1.7116,-1.5954,-1.5084,-1.4522,-1.4502,-1.4349,-1.4088,-1.4088,-1.4088,-1.4088,-1.4088,-1.4088,-1.4088,-1.4088,-1.4088,-1.4088,-1.4088,0.0,0.0,0.0,0.0,0.0,0.0,0.0,0.0,0.0,0.0,-0.7489,0.0,0.0,0.0,0.0,-0.8101,0.0,-1.0048,-0.9792,0.0,0.0,0.0,0.0,0.0,0.0,0.0,0.0,0.0,0.0,0.0,0.0,0.0,0.0,0.0,0.0,0.0,0.0,0.0,0.0,0.0,0.0,0.0,-1.4088,-1.4088,-1.4088,-1.4088,-1.4088,-1.4088,-1.4088,-1.4088,-1.4088,-1.4088,-1.4088,-1.4088,-1.4088,-1.4088,-1.4088,-1.4088,-1.4088,-1.4088,-1.4088,-1.4088,-1.4088,-1.4088,-1.4088,-1.4088,-1.4088,-1.4088,-1.4088,-1.4088,-1.4088,-1.4088,0.0,0.0,0.0,0.0,0.0,0.0,0.0,0.0,0.0,0.0,0.0,0.0,0.0,-2.38,-2.3091,-2.3091,-2.3091,-2.3091,-2.3091,-2.3091,-2.3091,-2.3091,-2.2359,-2.1391,-2.0169,-1.8956,-1.7663,-1.6306,-1.5709,-1.519,-1.4803,-1.4609,-1.4362,-1.4088,-1.4088,-1.4088,-1.4088,-1.4088,-1.4088,-1.4088,0.0,0.0,0.0,0.0,0.0,0.0,0.0,0.0,0.0,0.0,0.0,0.0,0.0,-0.8404,-0.7183,-0.7621,-0.7445,0.0,0.0,0.0,0.0,-0.8141,-0.8057,0.0,0.0,0.0,0.0,0.0,0.0,0.0,0.0,0.0,0.0,0.0,0.0,0.0,0.0,0.0,0.0,0.0,0.0,0.0,0.0,0.0,0.0,0.0,0.0,-1.4088,-1.4088,-1.4088,-1.4088,-1.4088,-1.4088,-1.4088,-1.4088,-1.4088,-1.4088,-1.4088,-1.4088,-1.4088,-1.4088,-1.4088,-1.4088,-1.4088,-1.4088,-1.4088,-1.4088,-1.4088,-1.4088,-1.4088,-1.4088,-1.4088,-1.4088,-1.4088,-1.4088,-1.4088,0.0,0.0,0.0,0.0,0.0,0.0,0.0,0.0,0.0,-2.5975,0.0,0.0,0.0,0.0,-2.3091,-2.3091,-2.3091,-2.3091,-2.3091,-2.3091,-2.3091,-2.3091,-2.235,-2.1346,-2.0124,-1.8835,-1.7611,-1.6433,-1.5724,-1.5251,-1.5008,-1.4763,-1.4462,-1.4088,-1.4088,-1.4088,-1.4088,-1.4088,0.0,-1.4088,0.0,0.0,-1.3955,0.0,0.0,0.0,0.0,0.0,0.0,0.0,0.0,0.0,0.0,-0.7753,-0.7095,-0.7095,-0.7095,0.0,-0.7095,0.0,0.0,0.0,0.0,0.0,0.0,0.0,0.0,0.0,0.0,0.0,0.0,0.0,0.0,0.0,0.0,0.0,0.0,0.0,0.0,0.0,0.0,0.0,0.0,0.0,0.0,0.0,0.0,0.0,-1.4088,-1.4088,-1.4088,-1.4088,-1.4088,-1.4088,-1.4088,-1.4088,-1.4088,-1.4088,-1.4088,-1.4088,-1.4088,-1.4088,-1.4088,-1.4088,-1.4088,-1.4088,-1.4088,-1.4088,-1.4088,-1.4088,-1.4088,-1.4088,-1.4088,-1.4088,-1.4088,-1.4088,0.0,0.0,0.0,0.0,0.0,0.0,0.0,0.0,-2.6005,-2.4872,0.0,0.0,0.0,0.0,0.0,-2.3091,-2.3091,-2.3091,-2.3091,-2.3047,-2.3047,-2.3047,-2.296,-2.2403,-2.1203,-1.973,-1.8574,-1.7638,-1.6142,-1.5257,-1.5008,-1.5008,-1.4693,-1.4088,-1.4088,-1.4088,-1.4088,0.0,-1.4088,-1.4088,0.0,-1.4088,-1.3955,0.0,0.0,0.0,-0.9323,-0.8101,0.0,0.0,0.0,0.0,0.0,-0.7095,-0.7095,-0.7095,-0.7095,0.0,0.0,0.0,0.0,0.0,0.0,0.0,0.0,0.0,0.0,0.0,0.0,0.0,0.0,0.0,0.0,0.0,0.0,0.0,0.0,0.0,0.0,0.0,0.0,0.0,0.0,0.0,0.0,0.0,-1.4004,-1.3997,-1.4039,-1.4088,-1.4088,-1.4088,-1.4088,-1.4088,-1.4088,-1.4088,-1.4088,-1.4088,-1.4088,-1.4088,-1.4088,-1.4088,-1.4088,-1.4088,-1.4088,-1.4088,-1.4088,-1.4088,-1.4088,-1.4088,-1.4088,-1.4088,-1.4088,-1.4088,-1.4088,-1.4088,0.0,0.0,0.0,0.0,0.0,-2.6077,-2.5775,-2.4755,-2.393,0.0,0.0,0.0,-2.3091,-2.3091,-2.3091,-2.3091,-2.3091,-2.3091,-2.3091,-2.2262,-2.18,-2.18,-2.0133,-1.9047,-1.868,-1.7402,-1.6577,-1.6339,-1.5886,-1.5451,-1.5008,-1.5008,-1.4693,-1.4088,-1.4088,-1.4088,-1.4088,-1.4088,0.0,-1.4088,-1.4088,-1.4088,0.0,0.0,0.0,0.0,0.0,-0.8101,-0.7095,0.0,-0.7095,-0.7095,0.0,0.0,0.0,-0.7095,0.0,0.0,-0.7095,0.0,0.0,0.0,0.0,0.0,0.0,0.0,0.0,0.0,0.0,0.0,0.0,0.0,0.0,0.0,0.0,0.0,0.0,0.0,0.0,0.0,0.0,0.0,0.0,0.0,0.0,0.0,-1.1563,-1.1949,-1.2766,-1.3646,-1.4088,-1.4088,-1.4088,-1.4088,-1.4088,-1.4088,-1.4088,-1.4088,-1.4088,-1.4088,-1.4088,-1.4088,-1.4088,-1.4088,-1.4088,-1.4088,-1.4088,-1.4088,-1.4088,-1.4088,-1.4088,-1.4088,-1.4088,-1.4088,-1.4088,-1.4088,0.0,0.0,0.0,0.0,0.0,-2.5336,-2.4872,-2.4253,-2.3637,0.0,0.0,0.0,-2.3091,-2.3091,-2.3091,-2.3091,-2.3091,-2.3091,-2.3091,-2.2448,-2.1845,-2.1337,-1.9943,-1.8726,-1.7738,-1.6854,-1.6201,-1.5784,-1.5705,-1.5418,-1.5008,-1.5008,-1.4693,-1.4088,-1.4088,-1.4088,-1.4088,0.0,0.0,0.0,-1.4088,0.0,0.0,-1.2766,-1.1595,0.0,0.0,0.0,-0.7095,-0.7095,-0.7095,0.0,0.0,0.0,0.0,0.0,0.0,0.0,0.0,0.0,0.0,0.0,0.0,0.0,-0.7095,-0.7095,0.0,0.0,0.0,0.0,0.0,0.0,0.0,0.0,0.0,0.0,0.0,0.0,0.0,0.0,0.0,0.0,0.0,-0.9879,-1.0096,-1.0567,-1.0611,-1.0907,-1.1552,-1.2254,-1.265,-1.265,-1.265,-1.2863,-1.3336,-1.2863,-1.2863,-1.3336,-1.2863,-1.265,-1.265,-1.3124,-1.3075,-1.265,-1.3124,-1.3082,-1.2693,-1.316,-1.3646,-1.4088,-1.4088,-1.4088,-1.4088,-1.4088,-1.4088,-1.4088,0.0,0.0,-2.6265,-2.6141,-2.6099,-2.5766,-2.4745,-2.4617,-2.4253,0.0,-2.3091,-2.3091,-2.3091,-2.3091,-2.3091,-2.3091,-2.3003,-2.2906,-2.2906,-2.2633,-2.2041,-2.0935,-2.0747,-1.9662,-1.7552,-1.7194,-1.6643,-1.5784,-1.5571,-1.5284,-1.5008,-1.5008,-1.4693,-1.4088,-1.4088,0.0,0.0,0.0,0.0,-1.4088,-1.4088,-1.4088,0.0,0.0,-1.1729,0.0,-0.9449,-0.8233,-0.7095,-0.7095,-0.7095,0.0,0.0,0.0,0.0,0.0,-0.7095,0.0,0.0,0.0,0.0,0.0,0.0,0.0,-0.7095,-0.7095,-0.7095,0.0,0.0,0.0,0.0,0.0,0.0,0.0,0.0,0.0,0.0,0.0,0.0,0.0,0.0,0.0,-0.8584,-0.8715,-0.9104,-1.0135,-1.0351,-1.0394,-1.0394,-1.0524,-1.0611,-1.0611,-1.0611,-1.1085,-1.2114,-1.1123,-1.1123,-1.2114,-1.108,-1.0611,-1.0611,-1.1638,-1.1552,-1.0654,-1.1681,-1.1552,-1.0697,-1.1681,-1.2808,-1.3906,-1.4039,-1.4088,-1.4088,-1.4088,-1.4088,-1.4088,0.0,-2.5126,-2.484,-2.393,-2.3767,-2.3681,-2.3464,-2.343,-2.3343,-2.3135,-2.3091,-2.3091,-2.3091,-2.3091,-2.3091,-2.3091,-2.2208,-2.1658,-2.1658,-1.9815,-1.8642,-1.8411,-1.7436,-1.6655,-1.6204,-1.6095,-1.5994,-1.5784,-1.5772,-1.5478,-1.5008,-1.5008,-1.4693,-1.4088,-1.4088,-1.4088,0.0,0.0,0.0,-1.4088,-1.4088,0.0,-1.4088,-1.3822,-1.2431,-1.0567,-1.0351,-0.8921,-0.7095,0.0,-0.7095,-0.7095,0.0,0.0,0.0,0.0,0.0,0.0,0.0,0.0,0.0,0.0,0.0,0.0,-0.7095,-0.7095,-0.7095,0.0,0.0,0.0,0.0,0.0,0.0,0.0,0.0,0.0,0.0,0.0,0.0,0.0,0.0,0.0,-0.7448,-0.7445,-0.7533,-0.7749,-0.8667,-0.9235,-0.9235,-1.0096,-1.0611,-1.0611,-1.0611,-1.0697,-1.0907,-1.0697,-1.0697,-1.0907,-1.0697,-1.0611,-1.0611,-1.0826,-1.0826,-1.0611,-1.0826,-1.0826,-1.0611,-1.0826,-1.1601,-1.2766,-1.373,-1.4088,-1.4088,-1.4088,-1.4088,-1.4088,-2.4178,-2.3963,-2.3871,-2.3506,-2.3467,-2.3535,-2.3695,-2.3734,-2.3734,-2.3734,-2.3549,-2.3379,-2.312,-2.3091,-2.3091,-2.3091,-2.1987,-2.1293,-2.1293,-1.9579,-1.8326,-1.7738,-1.7084,-1.6433,-1.5825,-1.5784,-1.5784,-1.5784,-1.5784,-1.5531,-1.5008,-1.5008,-1.4693,-1.4088,-1.4088,-1.4088,0.0,0.0,-1.4088,-1.4088,-1.4088,0.0,-1.4088,-1.4088,-1.2644,-1.0611,-1.0611,-0.9096,-0.7095,-0.7095,-0.7095,0.0,0.0,-0.7095,-0.7095,0.0,-0.7095,-0.7095,0.0,0.0,0.0,-0.7095,0.0,0.0,0.0,-0.7095,-0.7095,-0.7095,0.0,0.0,0.0,0.0,0.0,0.0,0.0,0.0,0.0,0.0,0.0,0.0,0.0,0.0,-0.7095,-0.7095,-0.7095,-0.7095,-0.7665,-0.8017,-0.8017,-0.8532,-0.8834,-0.8834,-0.8834,-0.9139,-0.9749,-0.9139,-0.9139,-0.9749,-0.9139,-0.8834,-0.8877,-0.9488,-0.9444,-0.8877,-0.9488,-0.9401,-0.8921,-0.9488,-1.0096,-1.074,-1.1912,-1.2345,-1.2345,-1.2345,-1.2345,-1.2431,-2.3511,-2.3335,-2.3452,-2.3848,-2.3906,-2.4023,-2.4365,-2.4414,-2.4385,-2.4307,-2.4004,-2.3534,-2.2813,-2.2765,-2.2677,-2.2413,-2.1302,-2.0621,-2.0621,-1.9443,-1.8357,-1.7365,-1.7318,-1.685,-1.5825,-1.5784,-1.5784,-1.5784,-1.5784,-1.5531,-1.5008,-1.5008,-1.4693,-1.4088,-1.4088,-1.4088,0.0,0.0,0.0,-1.4088,0.0,-1.4088,-1.4088,-1.3822,-1.2559,-1.0869,-1.0438,-0.8921,-0.7095,-0.7095,0.0,-0.7095,-0.7095,-0.7095,0.0,0.0,0.0,0.0,0.0,0.0,0.0,0.0,0.0,-0.7095,0.0,0.0,0.0,-0.7095,0.0,0.0,0.0,0.0,0.0,0.0,0.0,0.0,0.0,0.0,0.0,0.0,0.0,0.0,0.0,-0.7095,-0.7095,-0.7095,-0.7095,-0.7095,-0.7095,-0.7095,-0.7095,-0.7095,-0.7095,-0.7577,-0.854,-0.7577,-0.7577,-0.854,-0.7577,-0.7095,-0.7139,-0.8105,-0.8017,-0.7139,-0.8145,-0.8017,-0.7183,-0.8149,-0.854,-0.8671,-1.0048,-1.0611,-1.0611,-1.0611,-1.0611,-1.074,-2.4268,-2.4268,-2.4287,-2.4336,-2.4346,-2.4365,-2.4414,-2.4414,-2.4287,-2.3906,-2.3818,-2.3201,-2.1659,-2.1525,0.0,0.0,0.0,0.0,-1.8095,0.0,-1.615,-1.6015,-1.6015,-1.5967,-1.5784,-1.5784,-1.5784,-1.5784,-1.5784,-1.5531,-1.5008,-1.5008,-1.4693,-1.4088,-1.4088,0.0,0.0,0.0,-1.4088,0.0,-1.4088,-1.4088,0.0,-1.2893,-1.2328,-1.1852,-0.9836,-0.8233,-0.7095,0.0,-0.7095,-0.7095,0.0,-0.7095,0.0,0.0,0.0,0.0,0.0,0.0,0.0,0.0,-0.7095,0.0,0.0,0.0,-0.7095,-0.7095,0.0,0.0,0.0,0.0,0.0,0.0,0.0,0.0,0.0,0.0,0.0,0.0,0.0,0.0,0.0,-0.7095,-0.7095,-0.7095,-0.7095,-0.7095,-0.7095,-0.7095,-0.7095,-0.7095,-0.7095,-0.7183,-0.7316,-0.7183,-0.7183,-0.7316,-0.7183,-0.7095,-0.7095,-0.7228,-0.7228,-0.7095,-0.7228,-0.7228,-0.7095,-0.7228,-0.7316,-0.7533,-0.9744,-1.0611,-1.0611,-1.0611,-1.0611,-1.0611,-2.4463,-2.4414,-2.4492,-2.4746,-2.4795,-2.4883,-2.5146,-2.5128,-2.4884,-2.4248,-2.415,-2.3706,0.0,0.0,0.0,0.0,0.0,-1.7692,0.0,0.0,-1.5784,-1.5784,-1.5784,0.0,-1.5784,-1.5784,-1.5784,-1.5784,-1.5784,-1.5531,-1.5008,-1.5008,-1.4693,-1.4088,-1.4088,0.0,-1.4088,0.0,-1.4088,0.0,0.0,0.0,0.0,-1.2766,-1.1895,-1.108,-0.9492,-0.8584,-0.8013,0.0,-0.7095,0.0,0.0,0.0,0.0,0.0,0.0,0.0,0.0,0.0,0.0,0.0,0.0,0.0,-0.7095,0.0,-0.7095,0.0,0.0,0.0,0.0,0.0,0.0,0.0,-0.7058,0.0,0.0,0.0,0.0,0.0,0.0,0.0,0.0,0.0,0.0,0.0,-0.7095,-0.7095,-0.7095,-0.7095,-0.7095,-0.7095,-0.7095,-0.7095,-0.7095,-0.7095,-0.7095,-0.7095,-0.7095,-0.7095,-0.7095,-0.7095,-0.7095,-0.7095,-0.7095,-0.7095,-0.7095,-0.7095,-0.7095,-0.7183,-0.8181,-0.8571,-0.8571,-0.8571,-0.8571,-0.8663,-2.4844,0.0,0.0,-2.5195,-2.5254,-2.5361,-2.5635,-2.5693,-2.5372,-2.4531,-2.4127,0.0,-2.2223,-2.1033,0.0,0.0,-1.8172,-1.7178,0.0,0.0,-1.5784,0.0,0.0,0.0,0.0,-1.5784,-1.5784,-1.5784,-1.5752,-1.5451,-1.5008,-1.4921,-1.4569,-1.4088,0.0,-1.4088,-1.4088,0.0,0.0,-1.4088,-1.4088,-1.3906,-1.3512,-1.2632,-1.1595,-1.0481,-0.9666,-0.9148,-0.8759,-0.7885,-0.736,0.0,-0.7095,0.0,0.0,0.0,0.0,0.0,-0.7095,0.0,0.0,0.0,0.0,0.0,0.0,0.0,0.0,0.0,0.0,0.0,0.0,0.0,0.0,0.0,0.0,0.0,0.0,0.0,0.0,0.0,0.0,0.0,0.0,0.0,0.0,-0.7095,-0.7095,-0.7095,-0.7095,-0.7095,-0.7095,-0.7095,-0.7095,-0.7095,-0.7095,-0.7095,-0.7095,-0.7095,-0.7095,-0.7095,-0.7095,-0.7095,-0.7095,-0.7095,-0.7095,-0.7095,-0.7095,-0.7095,-0.7095,-0.7095,-0.7095,-0.7095,-0.7095,-0.7095,-0.7095,-0.7228,-2.5645,-2.5645,0.0,0.0,-2.5664,-2.5674,-2.5693,-2.5693,-2.5372,-2.4531,0.0,0.0,0.0,0.0,0.0,0.0,0.0,-1.5872,-1.5872,0.0,-1.5784,0.0,0.0,-1.5784,0.0,0.0,0.0,-1.5784,-1.5545,-1.5257,-1.5001,-1.4669,-1.4376,-1.4088,-1.4088,-1.4088,-1.4088,-1.4088,-1.4088,-1.4088,-1.4088,-1.3385,-1.237,0.0,-1.1595,-1.0611,-1.0567,0.0,0.0,-0.8846,-0.8061,0.0,0.0,0.0,0.0,0.0,0.0,0.0,0.0,0.0,0.0,-0.7095,0.0,0.0,0.0,0.0,-0.7095,0.0,0.0,0.0,0.0,0.0,0.0,0.0,0.0,0.0,0.0,0.0,0.0,0.0,0.0,0.0,0.0,0.0,0.0,-0.7095,-0.7095,-0.7095,-0.7095,-0.7095,-0.7095,-0.7095,-0.7095,-0.7095,-0.7095,-0.7095,-0.7095,-0.7095,-0.7095,-0.7095,-0.7095,-0.7095,-0.7095,-0.7095,-0.7095,-0.7095,-0.7095,-0.7095,-0.7095,-0.7095,-0.7095,-0.7095,-0.7095,-0.7095,-0.7095,-0.7095,0.0,0.0,0.0,0.0,0.0,-2.5693,-2.5693,-2.5693,-2.5121,0.0,0.0,0.0,0.0,-1.8411,-1.7552,0.0,0.0,-1.5784,-1.5784,-1.5784,0.0,0.0,0.0,-1.5784,0.0,0.0,0.0,0.0,-1.5538,-1.5251,-1.5001,-1.4663,-1.4362,-1.4088,-1.4088,-1.4088,0.0,0.0,0.0,0.0,0.0,-1.3864,-1.347,0.0,0.0,-1.1724,-1.1724,-1.1466,0.0,-1.0265,-0.9231,-0.8281,-0.8281,-0.7753,-0.7095,-0.7095,-0.7095,0.0,0.0,0.0,-0.7095,-0.7095,0.0,0.0,0.0,0.0,0.0,0.0,0.0,0.0,0.0,0.0,0.0,0.0,0.0,0.0,0.0,0.0,0.0,0.0,0.0,0.0,0.0,0.0,0.0,-0.7095,-0.7095,-0.7095,-0.7095,-0.7095,-0.7095,-0.7095,-0.7095,-0.7095,-0.7095,-0.7095,-0.7095,-0.7095,-0.7095,-0.7095,-0.7095,-0.7095,-0.7095,-0.7095,-0.7095,-0.7095,-0.7095,-0.7095,-0.7095,-0.7095,-0.7095,-0.7095,-0.7095,-0.7095,-0.7095,-0.7095,-2.5693,0.0,0.0,0.0,0.0,-2.5693,-2.5693,0.0,0.0,0.0,-2.1716,0.0,-1.9012,0.0,-1.7037,0.0,-1.6244,-1.5784,-1.5784,-1.5784,0.0,-1.5784,-1.5784,0.0,0.0,0.0,0.0,0.0,0.0,-1.515,-1.5001,-1.4549,-1.4269,-1.4088,-1.4088,-1.4088,-1.4088,0.0,-1.4088,0.0,0.0,-1.4088,0.0,0.0,-1.3603,-1.2893,0.0,-1.2285,-1.2194,-1.1466,-1.0438,-0.9492,-0.9492,-0.8711,-0.7753,-0.7753,-0.7448,-0.7095,-0.7095,-0.7095,0.0,-0.7095,-0.7095,0.0,-0.7095,0.0,0.0,0.0,0.0,0.0,0.0,0.0,0.0,0.0,0.0,0.0,0.0,-0.7095,0.0,0.0,0.0,0.0,0.0,0.0,-0.7095,-0.7095,-0.7095,-0.7095,0.0,0.0,-0.7095,-0.7095,-0.7095,-0.7095,-0.7095,-0.7095,-0.7095,-0.7095,-0.7095,-0.7095,-0.7095,-0.7095,-0.7095,-0.7095,-0.7095,-0.7095,-0.7095,-0.7095,-0.7095,-0.7095,-0.7095,-0.7095,-0.7095,-0.7095,-0.7095,-0.7095,0.0,0.0,0.0,0.0,-2.5586,0.0,0.0,0.0,-2.3009,0.0,-2.0035,-1.8138,-1.7682,-1.6527,-1.5784,-1.5784,-1.5784,0.0,-1.5784,-1.5784,0.0,0.0,-1.5784,-1.5784,-1.5784,0.0,0.0,0.0,0.0,-1.5001,-1.4975,-1.4355,-1.4088,-1.4088,-1.4088,0.0,-1.4088,-1.4088,-1.4088,-1.4088,-1.4088,-1.4088,-1.4088,-1.4088,-1.4088,-1.3955,-1.2808,-1.237,-1.237,-1.237,-1.1638,-1.0697,-1.0697,-0.9879,-0.8978,-0.8934,-0.8105,-0.7183,-0.7095,-0.7095,-0.7095,-0.7095,0.0,0.0,0.0,0.0,-0.7095,0.0,0.0,0.0,0.0,0.0,0.0,0.0,0.0,0.0,0.0,0.0,0.0,0.0,0.0,0.0,0.0,-0.7095,-0.7095,-0.7095,-0.7095,-0.7095,0.0,0.0,-0.7095,-0.7095,-0.7095,-0.7095,-0.7095,-0.7095,-0.7095,-0.7095,-0.7095,-0.7095,-0.7095,-0.7095,-0.7095,-0.7095,-0.7095,-0.7095,-0.7095,-0.7095,-0.7095,-0.7095,-0.7095,-0.7095,-0.7095,-0.7095,-0.7095,-0.7095,-2.5693,-2.5693,-2.5382,0.0,-2.4196,-2.389,0.0,0.0,0.0,0.0,-1.8895,-1.7805,-1.6421,-1.6015,-1.5784,-1.5784,-1.5784,0.0,0.0,0.0,0.0,-1.5784,-1.5784,-1.5784,-1.5784,-1.5784,0.0,-1.5504,0.0,0.0,-1.4629,-1.4255,-1.4088,-1.4088,0.0,0.0,-1.4088,-1.4088,-1.4088,-1.4088,-1.4088,-1.4088,0.0,0.0,-1.4088,-1.4046,-1.3737,-1.3646,-1.3646,-1.3646,-1.2857,-1.1852,-1.1852,-1.108,-1.0009,-0.9148,-0.8671,-0.8237,-0.736,-0.7095,-0.7095,-0.7095,-0.7095,-0.7095,0.0,0.0,0.0,0.0,0.0,0.0,0.0,0.0,0.0,0.0,0.0,0.0,0.0,0.0,0.0,0.0,0.0,0.0,0.0,-0.7095,-0.7095,-0.7095,-0.7095,-0.7095,-0.7095,0.0,0.0,-0.7095,-0.7095,-0.7095,-0.7095,-0.7095,-0.7095,-0.7095,-0.7095,-0.7095,-0.7095,-0.7095,-0.7095,-0.7095,-0.7095,-0.7095,-0.7095,-0.7095,-0.7095,-0.7095,-0.7095,-0.7095,-0.7095,-0.7095,-0.7095,-0.7095,-2.5693,0.0,0.0,-2.2265,0.0,0.0,-2.1537,-2.084,0.0,-1.8841,-1.8059,0.0,-1.6274,-1.6213,-1.6213,-1.6213,-1.6099,0.0,-1.6019,0.0,0.0,-1.5784,-1.5784,-1.5784,-1.5784,-1.5784,0.0,-1.5398,0.0,0.0,-1.4466,-1.4222,-1.4088,-1.4088,0.0,-1.4088,0.0,-1.4088,-1.4088,-1.4088,-1.4088,0.0,0.0,-1.4088,-1.4088,-1.4088,-1.4088,-1.4088,-1.4088,-1.4088,-1.3646,-1.3075,-1.3075,-1.1949,-1.0481,-0.9836,-0.893,-0.7973,-0.7272,-0.7095,-0.7095,-0.7095,-0.7095,-0.7095,-0.7095,-0.7095,-0.7095,0.0,0.0,0.0,0.0,0.0,0.0,0.0,0.0,0.0,0.0,0.0,0.0,0.0,0.0,0.0,0.0,-0.7095,-0.7095,-0.7095,-0.7095,-0.7095,0.0,0.0,0.0,-0.7095,-0.7095,-0.7095,-0.7095,-0.7095,-0.7095,-0.7095,-0.7095,-0.7095,-0.7095,-0.7095,-0.7095,-0.7095,-0.7095,-0.7095,-0.7095,-0.7095,-0.7095,-0.7095,-0.7095,-0.7095,-0.7095,-0.7095,-0.7095,-0.7095,0.0,0.0,0.0,0.0,0.0,0.0,0.0,-1.9679,0.0,-1.8555,0.0,-1.6707,-1.6707,-1.6707,-1.6707,-1.6707,0.0,-1.6362,-1.6279,-1.6032,-1.5872,-1.5784,-1.5784,-1.5784,-1.5784,-1.5784,0.0,0.0,0.0,0.0,-1.4456,-1.4208,-1.4088,-1.4088,0.0,0.0,0.0,-1.4088,-1.4088,-1.4088,-1.4088,-1.4088,-1.4088,-1.4088,-1.4088,-1.4088,-1.4088,-1.4088,-1.4088,-1.4088,-1.4088,-1.4088,-1.4088,-1.2693,-1.0999,-1.0697,-0.9135,-0.7489,-0.7183,-0.7095,-0.7095,-0.7095,-0.7095,-0.7095,-0.7095,-0.7095,-0.7095,-0.7095,-0.7095,-0.7095,0.0,0.0,0.0,0.0,0.0,0.0,0.0,0.0,0.0,0.0,0.0,0.0,0.0,0.0,-0.7095,-0.7095,-0.7095,-0.7095,0.0,0.0,0.0,-0.7095,-0.7095,-0.7095,-0.7095,0.0,-0.7095,-0.7095,-0.7095,-0.7095,-0.7095,-0.7095,-0.7095,-0.7095,-0.7095,-0.7095,-0.7095,-0.7095,-0.7095,-0.7095,-0.7095,-0.7095,-0.7095,-0.7095,-0.7095,-0.7095,0.0,0.0,0.0,0.0,0.0,-1.9214,-1.8091,-1.7698,-1.7531,-1.7476,-1.7005,-1.6707,-1.6707,-1.6707,-1.6707,-1.6707,-1.666,0.0,0.0,0.0,0.0,-1.5791,-1.5784,-1.5784,-1.5784,-1.5784,-1.5571,0.0,0.0,0.0,-1.4162,-1.4115,-1.4088,-1.4088,0.0,0.0,-1.4088,-1.4088,0.0,-1.4088,-1.4088,-1.4088,-1.4088,-1.4088,-1.4088,-1.4088,-1.4088,-1.4088,-1.4088,-1.4088,-1.4088,-1.4088,-1.4088,-1.3822,-1.313,-1.1171,-1.0308,-0.957,-0.7617,-0.7095,-0.7095,-0.7095,-0.7095,-0.7095,-0.7095,-0.7095,-0.7095,-0.7095,-0.7095,-0.7095,-0.7095,0.0,0.0,0.0,0.0,0.0,0.0,0.0,0.0,0.0,0.0,0.0,0.0,0.0,0.0,0.0,0.0,0.0,0.0,0.0,0.0,0.0,-0.7095,0.0,0.0,0.0,-0.7095,-0.7095,-0.7095,-0.7095,-0.7095,-0.7095,-0.7095,-0.7095,-0.7095,-0.7095,-0.7095,-0.7095,-0.7095,-0.7095,-0.7095,-0.7095,-0.7095,-0.7095,-0.7095,-0.7095,0.0,0.0,0.0,0.0,0.0,0.0,0.0,-1.7427,0.0,-1.7219,-1.7154,-1.7161,-1.7161,-1.7161,-1.7161,-1.7161,-1.7021,-1.6814,-1.652,-1.6359,-1.6139,-1.5798,-1.5784,0.0,-1.5784,-1.5784,-1.5545,-1.5008,0.0,0.0,-1.4088,-1.4088,-1.4088,-1.4088,0.0,-1.4088,0.0,0.0,0.0,-1.4088,-1.4088,-1.4088,-1.4088,-1.4088,-1.4088,-1.4088,-1.4088,-1.4088,-1.4088,-1.4088,-1.4088,-1.4088,-1.4088,-1.3688,-1.2942,-1.1815,-1.108,-1.0221,-0.8492,-0.8013,-0.7885,-0.7272,-0.7095,-0.7095,-0.7095,-0.7095,-0.7095,-0.7095,-0.7095,-0.7095,-0.7095,-0.7095,0.0,0.0,0.0,0.0,0.0,0.0,0.0,0.0,0.0,0.0,0.0,0.0,0.0,0.0,0.0,0.0,0.0,0.0,0.0,0.0,0.0,0.0,0.0,0.0,0.0,-0.7095,-0.7095,-0.7095,-0.7095,-0.7095,-0.7095,-0.7095,-0.7095,-0.7095,-0.7095,-0.7095,-0.7095,-0.7095,-0.7095,-0.7095,-0.7095,-0.7095,-0.7095,-0.7095,0.0,-1.9169,0.0,0.0,-1.7582,0.0,-1.7582,-1.7582,-1.7502,-1.7326,-1.7494,-1.7582,-1.7582,-1.7582,-1.7582,-1.7582,-1.7427,-1.7166,-1.682,-1.6526,-1.6233,-1.5939,-1.5865,-1.5784,-1.5784,-1.5784,-1.5578,0.0,0.0,0.0,0.0,-1.4115,0.0,0.0,0.0,0.0,0.0,0.0,-1.4088,-1.4088,-1.4088,-1.4088,-1.4088,-1.4088,-1.4088,-1.4088,-1.4088,-1.4088,-1.4088,-1.4088,-1.4088,-1.4088,-1.4088,-1.3464,-1.2632,-1.237,-1.1638,-1.0654,-0.9279,-0.889,-0.8627,-0.7401,-0.7095,-0.7095,-0.7095,-0.7095,-0.7095,-0.7095,-0.7095,-0.7095,-0.7095,-0.7095,0.0,0.0,0.0,0.0,0.0,0.0,0.0,0.0,0.0,0.0,0.0,0.0,0.0,0.0,0.0,0.0,0.0,0.0,0.0,0.0,0.0,-0.7095,-0.7095,0.0,-0.7095,-0.7095,-0.7095,-0.7095,-0.7095,-0.7095,-0.7095,-0.7095,-0.7095,-0.7095,-0.7095,-0.7095,-0.7095,-0.7095,-0.7095,-0.7095,-0.7095,-0.7095,-0.7095,-0.7095,0.0,0.0,0.0,0.0,0.0,0.0,-1.7582,-1.7582,-1.7569,-1.7549,-1.7562,-1.7582,-1.7582,-1.7582,-1.7582,-1.7582,-1.7555,-1.7474,-1.7179,-1.6827,-1.6533,-1.6295,-1.5972,-1.5784,-1.5784,-1.5784,-1.5671,0.0,0.0,0.0,0.0,0.0,0.0,0.0,0.0,0.0,0.0,-1.4088,-1.4088,-1.4088,-1.4088,-1.4088,-1.4088,-1.4088,-1.4088,-1.4088,-1.4088,-1.4088,-1.4088,-1.4088,-1.4088,-1.4088,-1.4088,-1.3997,-1.3737,-1.2632,-1.2237,-1.1686,-0.9492,-0.889,-0.8627,-0.7401,-0.7095,-0.7095,-0.7095,-0.7095,-0.7095,-0.7095,-0.7095,-0.7095,-0.7095,-0.7095,-0.7095,0.0,0.0,0.0,0.0,0.0,0.0,0.0,0.0,0.0,0.0,-0.7095,0.0,0.0,0.0,0.0,0.0,0.0,0.0,-0.7095,0.0,-0.7095,-0.7095,-0.7095,-0.7095,-0.7095,-0.7095,-0.7095,-0.7095,-0.7095,-0.7095,-0.7095,-0.7095,-0.7095,-0.7095,-0.7095,-0.7095,-0.7095,-0.7095,-0.7095,-0.7095,-0.7095,-0.7095,-0.7095,0.0,0.0,0.0,0.0,0.0,0.0,0.0,-1.7582,-1.7582,-1.7582,-1.7582,-1.7582,-1.7582,-1.7582,-1.7582,-1.7582,-1.7582,-1.7514,-1.7219,-1.7092,-1.6817,-1.6342,-1.6159,-1.6012,-1.5784,-1.5784,-1.5691,0.0,0.0,0.0,0.0,0.0,0.0,0.0,0.0,-1.4088,-1.4088,-1.4088,-1.4088,-1.4088,-1.4088,-1.4088,-1.4088,-1.4088,-1.4088,-1.4088,-1.4088,-1.4088,-1.4088,-1.4088,-1.4088,-1.4088,-1.4088,-1.4088,-1.3997,-1.3512,-1.3379,-1.3033,-1.1386,-1.0438,-0.9618,-0.8492,-0.7621,-0.7095,-0.7095,-0.7095,-0.7095,-0.7095,-0.7095,-0.7095,-0.7095,-0.7095,-0.7095,0.0,0.0,0.0,0.0,0.0,0.0,0.0,0.0,0.0,0.0,0.0,-0.7095,0.0,0.0,0.0,0.0,0.0,0.0,-0.7095,0.0,-0.7095,-0.7095,-0.7095,-0.7095,-0.7095,-0.7095,-0.7095,-0.7095,-0.7095,-0.7095,-0.7095,-0.7095,-0.7095,-0.7095,-0.7095,-0.7095,-0.7095,-0.7095,-0.7095,-0.7095,-0.7095,-0.7095,-0.7095,-1.7582,0.0,-1.7582,0.0,-1.7582,-1.7582,-1.7582,-1.7582,-1.7582,-1.7582,-1.7582,-1.7582,-1.7582,-1.7582,-1.7582,-1.7582,-1.7582,-1.7495,-1.734,-1.7246,-1.6978,-1.642,-1.6319,0.0,-1.5791,-1.5784,-1.5732,-1.5524,-1.5438,0.0,0.0,0.0,0.0,0.0,-1.4215,-1.4168,-1.4088,-1.4088,-1.4088,-1.4088,-1.4088,-1.4088,-1.4088,-1.4088,-1.4088,-1.4088,-1.4088,-1.4088,-1.4039,-1.3688,-1.3561,-1.3646,-1.3997,-1.4088,-1.4088,-1.4088,-1.4088,-1.3779,-1.2206,-1.1209,-1.0221,-0.8755,-0.7709,-0.7095,-0.7095,-0.7095,-0.7095,-0.7095,-0.7095,-0.7095,-0.7095,-0.7095,-0.7095,-0.7095,0.0,0.0,0.0,0.0,0.0,0.0,0.0,-0.7095,-0.7095,-0.7095,0.0,0.0,0.0,0.0,0.0,0.0,0.0,0.0,0.0,0.0,-0.7095,-0.7095,-0.7095,-0.7095,-0.7095,-0.7095,-0.7095,-0.7095,-0.7095,-0.7095,-0.7095,-0.7095,-0.7095,-0.7095,-0.7095,-0.7095,-0.7095,-0.7095,-0.7095,-0.7095,-0.7095,-0.7095,-1.7582,-1.7582,-1.7582,-1.7582,-1.7582,-1.7582,-1.7582,-1.7582,-1.7582,-1.7582,-1.7582,-1.7582,-1.7582,-1.7582,-1.7582,-1.7582,-1.7582,-1.7582,-1.7582,-1.736,-1.7065,0.0,0.0,-1.6132,-1.5791,-1.5784,-1.5784,-1.5778,0.0,0.0,-1.5384,0.0,-1.4803,-1.4516,-1.4516,-1.4355,-1.4088,-1.4088,-1.4088,-1.4088,-1.4088,-1.4088,-1.4088,-1.4088,-1.4088,-1.4088,-1.4088,-1.4088,-1.3913,-1.2723,-1.2328,-1.2547,-1.373,-1.4088,-1.4088,-1.4088,-1.4088,-1.3603,-1.1257,-1.0611,-1.0048,-0.7705,-0.7095,-0.7095,-0.7095,-0.7095,-0.7095,-0.7095,-0.7095,-0.7095,-0.7095,-0.7095,-0.7095,-0.7095,0.0,0.0,0.0,0.0,0.0,0.0,-0.7095,-0.7095,-0.7095,0.0,0.0,0.0,0.0,0.0,0.0,0.0,0.0,-0.7095,-0.7095,0.0,-0.7095,-0.7095,-0.7095,-0.7095,-0.7095,-0.7095,-0.7095,-0.7095,-0.7095,-0.7095,-0.7095,-0.7095,-0.7095,-0.7095,-0.7095,-0.7095,-0.7095,-0.7095,-0.7095,-0.7095,-0.7095,-0.7095,-1.7582,-1.7582,-1.7582,-1.7582,-1.7582,-1.7582,-1.7582,-1.7582,-1.7582,-1.7582,-1.7582,-1.7582,-1.7582,-1.7582,-1.7582,0.0,-1.7582,-1.7582,0.0,-1.7495,-1.7367,-1.7072,-1.6727,-1.6433,-1.6139,-1.5932,-1.5784,-1.5784,0.0,0.0,0.0,-1.5304,-1.5104,-1.4823,-1.4823,-1.477,-1.4713,-1.4469,-1.4382,-1.4362,-1.4168,-1.4088,-1.4088,-1.4088,-1.4088,-1.4088,-1.4088,-1.4088,-1.3913,-1.2723,-1.2285,-1.2242,-1.1821,-1.1692,-1.1692,-1.1692,-1.1692,-1.1563,-1.0783,-1.0009,-0.9279,-0.8496,-0.7709,-0.7095,-0.7095,-0.7095,-0.7095,-0.7095,-0.7095,-0.7095,-0.7095,-0.7095,-0.7095,-0.7095,-0.7095,0.0,0.0,0.0,0.0,0.0,-0.7095,-0.6786,0.0,-0.5938,0.0,0.0,0.0,0.0,0.0,0.0,0.0,0.0,-0.6694,0.0,-0.7095,-0.7095,-0.7095,-0.7095,-0.7095,-0.7095,-0.7095,-0.7095,-0.7095,-0.7095,-0.7095,-0.7095,-0.7095,-0.7095,-0.7095,-0.7095,-0.7095,-0.7095,-0.7095,-0.7095,-0.7095,-0.7095,-1.7582,-1.7582,-1.7582,-1.7582,-1.7582,-1.7582,-1.7582,-1.7582,-1.7582,-1.7582,-1.7582,-1.7582,-1.7582,-1.7582,0.0,-1.7582,-1.7582,-1.7582,-1.7582,-1.7582,-1.7507,-1.7213,-1.7025,-1.668,-1.6328,-1.6092,0.0,-1.5784,-1.5784,-1.5684,-1.5558,-1.5558,-1.5404,-1.5169,-1.5169,-1.5109,-1.4995,-1.4763,-1.4689,-1.4669,-1.4489,-1.4459,-1.4459,-1.4459,-1.4459,-1.4372,-1.3877,-1.4013,-1.4087,-1.1853,-1.1424,-1.1543,-0.9811,-0.9266,-0.944,-1.0351,-1.0611,-1.0524,-1.0096,-0.9449,-0.8803,-0.8324,-0.7665,-0.7095,-0.7095,-0.7095,-0.7095,-0.7095,-0.7095,-0.7095,-0.7095,-0.7095,-0.7095,-0.7095,-0.7095,-0.7095,-0.7095,0.0,0.0,0.0,0.0,0.0,0.0,-0.5403,-0.491,0.0,0.0,0.0,0.0,0.0,0.0,-0.473,-0.5847,0.0,-0.6473,-0.6874,-0.7095,-0.7095,-0.7095,-0.7095,-0.7095,-0.7095,-0.7095,-0.7095,-0.7095,-0.7095,-0.7095,-0.7095,-0.7095,-0.7095,-0.7095,-0.7095,-0.7095,-0.7095,-0.7095,-0.7095,-1.7642,-1.7642,-1.7642,0.0,-1.7642,0.0,-1.7615,-1.7615,-1.7609,-1.7589,-1.7582,-1.7582,-1.7582,-1.7582,-1.7582,-1.7582,0.0,0.0,0.0,-1.7582,-1.7514,-1.7246,-1.7213,-1.6931,-1.6319,-1.6335,-1.6126,-1.5784,-1.5784,-1.5784,-1.5784,-1.5784,-1.5685,-1.5424,-1.5424,-1.5277,-1.5068,-1.5048,-1.5035,-1.5035,-1.5015,-1.5008,-1.5008,-1.5008,-1.4963,-1.4687,-1.3432,-1.3755,-1.4135,-1.04,-0.9934,-1.0528,-0.7964,-0.7129,-0.7561,-0.971,-1.0351,-1.0135,-0.9061,-0.8759,-0.8496,-0.736,-0.7095,-0.7095,-0.7095,-0.7095,-0.7095,-0.7095,-0.7095,-0.7095,-0.7095,-0.7095,-0.7095,-0.7095,-0.7095,-0.7095,-0.7095,0.0,0.0,0.0,0.0,0.0,0.0,-0.527,-0.4732,0.0,0.0,0.0,0.0,0.0,-0.3392,-0.3481,-0.4732,-0.5403,-0.5403,-0.6517,-0.7095,-0.7095,-0.7095,-0.7095,-0.7095,-0.7095,-0.7095,-0.7095,-0.7095,-0.7095,-0.7095,-0.7095,-0.7095,-0.7095,-0.7095,-0.7095,-0.7095,-0.7095,-0.7102,-0.7112,0.0,0.0,-1.8277,-1.8277,-1.8277,-1.8196,-1.7916,-1.7936,-1.7849,-1.7615,-1.7582,-1.7582,-1.7582,-1.7582,-1.7582,-1.7582,-1.7582,-1.7582,-1.7582,-1.7582,-1.7549,-1.7534,-1.732,-1.7025,-1.6613,-1.6386,-1.6126,-1.5784,-1.5784,-1.5784,-1.5784,-1.5784,-1.5792,-1.5732,-1.5732,-1.5691,-1.5611,-1.5391,-1.5297,-1.5277,-1.5102,-1.5008,-1.5008,-1.5008,-1.436,-1.3432,-1.3109,-1.2603,-1.172,-0.9887,-0.946,-0.9456,-0.7959,-0.7489,-0.7537,-0.7823,-0.7921,-0.7878,-0.7621,-0.7536,-0.7445,-0.7183,-0.7095,-0.7095,-0.7095,-0.7095,-0.7095,-0.7095,-0.7095,-0.7095,-0.7095,-0.7095,-0.7095,-0.7095,-0.7095,-0.7095,-0.7095,-0.7095,0.0,0.0,-0.7095,-0.629,-0.4239,-0.4016,-0.3127,0.0,0.0,0.0,0.0,-0.0718,-0.1254,-0.2191,-0.4287,-0.5403,-0.5403,-0.6517,-0.7095,-0.7095,-0.7095,-0.7095,-0.7095,-0.7095,-0.7095,-0.7095,-0.7095,-0.7095,-0.7095,-0.7095,-0.7095,-0.7095,-0.7095,-0.7095,-0.7095,-0.7095,-0.7214,-0.7316,-1.849,-1.849,-1.849,-1.849,-1.849,-1.839,-1.8035,-1.7995,-1.7882,-1.7622,-1.7582,-1.7582,-1.7582,-1.7582,-1.7582,-1.7582,-1.7582,-1.7582,-1.7582,-1.7582,-1.7582,-1.7582,-1.7481,-1.7259,-1.6914,-1.662,-1.6259,-1.5784,-1.5784,-1.5784,-1.5784,-1.5784,-1.5784,-1.5784,-1.5784,-1.5784,-1.5771,-1.5658,-1.5591,-1.5578,-1.5424,-1.5357,-1.5357,-1.5357,-1.4553,-1.3316,-1.2709,-1.2052,-1.1189,-0.9265,-0.9005,-0.9319,-0.7991,-0.76,-0.7567,-0.74,-0.735,-0.735,-0.735,-0.735,-0.7333,-0.7261,-0.7244,-0.7227,-0.7112,-0.7095,-0.7095,-0.7095,-0.7095,-0.7095,-0.7095,-0.7095,-0.7095,-0.7095,-0.7095,-0.7095,-0.7095,-0.7095,0.0,-0.7095,-0.7095,-0.6201,-0.3837,-0.3614,-0.2592,-0.018,0.0,0.0,0.0,0.0,-0.0314,-0.0941,-0.2772,-0.3753,-0.3753,-0.4907,-0.58,-0.6337,-0.6337,-0.6605,-0.7095,-0.7095,-0.7095,-0.7095,-0.7095,-0.7095,-0.7095,-0.7095,-0.7095,-0.7095,-0.7095,-0.7139,-0.7244,-0.7244,-0.7343,-0.7475,-1.8624,-1.8624,-1.8624,-1.8624,-1.8624,-1.8524,-1.8169,-1.8089,-1.8003,-1.7695,-1.7609,-1.7582,-1.7582,-1.7582,-1.7582,-1.7582,-1.7582,-1.7582,-1.7582,-1.7582,-1.7582,-1.7582,-1.7582,-1.7442,-1.7206,-1.6814,-1.6393,-1.5899,-1.5804,-1.5784,-1.5784,-1.5784,-1.5784,-1.5778,-1.5581,-1.5486,-1.5486,-1.5486,-1.5391,-1.5242,-1.5439,-1.5391,-1.5201,-1.5201,-1.4411,-1.3151,-1.2042,-1.1458,-1.0942,-0.8609,-0.8564,-0.9304,-0.8032,-0.7665,-0.7665,-0.7665,-0.7665,-0.7655,-0.7611,-0.76,-0.7567,-0.7438,-0.7453,-0.737,-0.7193,-0.7166,-0.7159,-0.7136,-0.7132,-0.7125,-0.7098,-0.7095,-0.7095,-0.7095,-0.7095,-0.7095,-0.7095,0.0,-0.7095,-0.7095,-0.7095,-0.6201,-0.3837,-0.3614,-0.2592,-0.018,0.0,0.0,0.0,0.0,0.0,0.0,-0.1165,-0.1879,-0.2057,-0.3081,-0.4196,-0.5403,-0.5403,-0.5983,-0.7095,-0.7095,-0.7095,-0.7095,-0.7095,-0.7095,-0.7095,-0.7095,-0.7109,-0.7132,-0.7132,-0.7268,-0.7453,-0.7453,-0.7502,-0.7631,-1.9232,-1.9232,-1.9232,-1.9232,-1.9232,-1.9132,-1.8831,-1.8577,-1.8317,-1.7955,-1.7749,-1.7582,-1.7582,-1.7582,-1.7582,-1.7582,-1.7582,-1.7582,-1.7582,-1.7582,-1.7582,-1.7582,-1.7582,-1.7442,-1.7206,-1.667,-1.6342,-1.6206,-1.5952,-1.5784,-1.5784,-1.5784,-1.5784,-1.573,-1.4657,-1.4166,-1.4166,-1.4166,-1.3542,-1.2576,-1.3734,-1.3542,-1.2528,-1.2528,-1.1702,-1.0583,-1.0386,-0.9558,-0.8524,-0.811,-0.81,-0.8245,-0.8026,-0.7921,-0.7921,-0.7921,-0.7921,-0.7867,-0.7665,-0.76,-0.7594,-0.757,-0.7563,-0.7556,-0.7533,-0.7529,-0.7492,-0.7363,-0.7336,-0.7295,-0.7122,-0.7095,-0.7095,-0.7095,-0.7095,-0.7095,-0.7095,0.0,-0.7095,-0.7095,-0.7095,-0.6201,-0.3837,-0.3614,-0.2592,-0.018,0.0,0.0,0.0,0.0,0.0,0.0,-0.1165,-0.2281,-0.3303,-0.3525,-0.4196,-0.5403,-0.5403,-0.5983,-0.7095,-0.7095,-0.7095,-0.7095,-0.7095,-0.7095,-0.7095,-0.7095,-0.7217,-0.7336,-0.7336,-0.7428,-0.7563,-0.7563,-0.7655,-0.7777,-1.9424,-1.9424,-1.9424,-1.9424,-1.9424,-1.9265,-1.8965,-1.8677,-1.8384,-1.8035,-1.7776,-1.7582,-1.7582,-1.7582,-1.7582,-1.7582,-1.7582,-1.7582,-1.7582,-1.7582,-1.7582,-1.7582,-1.7582,-1.7442,-1.7206,-1.6931,-1.6643,-1.6321,-1.6139,-1.5985,-1.5784,-1.5784,-1.5784,-1.573,-1.4459,-1.3926,-1.3872,-1.3151,-1.2479,-1.1945,-1.2576,-1.2425,-1.1896,-1.1896,-1.1121,-0.9998,-0.9998,-0.9118,-0.7988,-0.7988,-0.7988,-0.7988,-0.7988,-0.7988,-0.7988,-0.7988,-0.7988,-0.7961,-0.7826,-0.7838,-0.7818,-0.7733,-0.7712,-0.7692,-0.7617,-0.76,-0.758,-0.7509,-0.7495,-0.7472,-0.74,-0.7387,-0.736,-0.7278,-0.7265,0.0,0.0,-0.7095,-0.7095,-0.7095,-0.7095,-0.6425,-0.473,-0.3972,-0.2858,-0.1121,-0.0359,0.0,0.0,0.0,0.0,0.0,-0.0539,-0.1076,-0.1657,-0.2324,-0.3217,-0.4419,-0.509,-0.5983,-0.7095,-0.7095,-0.7095,-0.7095,-0.7095,-0.7142,-0.7265,-0.7265,-0.7356,-0.7495,-0.7495,-0.7584,-0.7712,-0.7712,-0.7807,-0.7884,-1.9424,-1.9424,-1.9424,-1.9424,-1.9424,-1.9292,-1.9058,-1.8724,-1.841,-1.8129,-1.7816,-1.7582,-1.7582,-1.7582,-1.7582,-1.7582,-1.7582,-1.7582,-1.7582,-1.7582,-1.7582,-1.7582,-1.7582,-1.7475,-1.7306,-1.7239,-1.6978,-1.6529,-1.6388,-1.6152,-1.5932,-1.5519,-1.5343,-1.5289,-1.368,-1.3006,-1.2909,-1.1896,-1.1263,-1.1023,-1.1312,-1.1263,-1.097,-1.097,-1.0386,-0.9558,-0.9558,-0.8871,-0.7988,-0.7988,-0.7988,-0.7988,-0.7988,-0.7988,-0.7988,-0.7988,-0.7988,-0.7988,-0.7988,-0.7988,-0.7961,-0.7892,-0.7865,-0.7834,-0.7726,-0.7702,-0.7692,-0.7655,-0.7648,-0.7638,-0.7604,-0.76,-0.756,-0.7444,0.0,0.0,0.0,-0.7203,-0.7203,-0.7203,-0.7203,-0.6748,-0.5615,-0.4373,-0.315,-0.1938,-0.072,0.0,0.0,0.0,0.0,0.0,0.0,0.0,0.0,-0.0897,-0.2147,-0.3614,-0.4552,-0.5711,-0.7098,-0.7132,-0.7149,-0.7149,-0.7186,-0.7312,-0.7424,-0.7424,-0.7512,-0.7648,-0.7648,-0.7736,-0.7865,-0.7865,-0.7891,-0.7988,-1.9424,-1.9424,-1.9424,-1.9424,-1.9424,-1.9417,-1.9397,-1.8858,-1.8484,-1.8464,-1.7943,-1.7582,-1.7582,-1.7582,-1.7582,-1.7582,-1.7582,-1.7582,-1.7582,-1.7582,-1.7582,-1.7582,-1.7582,-1.7569,-1.7549,-1.734,-1.7179,-1.7132,-1.6589,-1.6308,-1.6233,-1.4726,-1.4022,-1.3926,-1.1404,-1.0288,-1.0288,-1.0194,-0.941,-0.8382,-0.9657,-0.941,-0.8283,-0.8283,-0.8233,-0.8137,-0.8137,-0.8088,-0.7988,-0.7988,-0.7988,-0.7988,-0.7988,-0.7988,-0.7988,-0.7988,-0.7988,-0.7988,-0.7988,-0.7988,-0.7985,-0.7975,-0.7971,-0.7971,-0.7961,-0.7958,-0.7917,-0.7824,-0.7794,-0.7753,-0.7624,-0.76,-0.7597,-0.7584,0.0,0.0,-0.7567,-0.7567,-0.7567,-0.7567,-0.7567,-0.7088,-0.5902,-0.4549,-0.3264,-0.2073,-0.0771,0.0,0.0,0.0,0.0,0.0,0.0,0.0,0.0,-0.009,-0.1299,-0.3614,-0.3703,-0.4905,-0.7102,-0.7288,-0.7398,-0.7363,-0.7506,-0.757,-0.7584,-0.7584,-0.7665,-0.7794,-0.7794,-0.7889,-0.7971,-0.7971,-0.7978,-0.7988,-1.9424,-1.9424,-1.9424,-1.9424,-1.9424,-1.9424,-1.9424,-1.8865,-1.849,-1.849,-1.7963,-1.7582,-1.7582,-1.7582,-1.7582,-1.7582,-1.7582,-1.7582,-1.7582,-1.7582,-1.7582,-1.7582,-1.7582,-1.7582,-1.7582,-1.7475,-1.738,-1.7199,-1.6978,-1.677,-1.6533,-1.5739,-1.4959,-1.4058,-1.2055,-1.073,-0.9948,-0.9118,-0.8482,-0.8038,-0.8577,-0.8432,-0.7988,-0.7988,-0.7988,-0.7988,-0.7988,-0.7988,-0.7988,-0.7988,-0.7988,-0.7988,-0.7988,-0.7988,-0.7988,-0.7988,-0.7988,-0.7988,-0.7988,-0.7988,-0.7988,-0.7988,-0.7988,-0.7988,-0.7988,-0.7988,-0.7975,-0.7914,-0.7904,-0.7887,-0.7833,-0.7872,-0.7841,-0.7746,0.0,-0.7699,-0.7611,-0.76,-0.76,-0.76,-0.76,-0.7073,-0.5782,-0.4522,-0.3287,-0.1976,-0.0702,0.0,0.0,0.0,0.0,0.0,0.0,0.0,0.0,-0.0745,-0.1582,-0.2509,-0.3248,-0.4497,-0.6164,-0.6258,-0.6755,-0.7516,-0.7577,-0.7648,-0.7729,-0.7729,-0.7818,-0.7904,-0.7904,-0.7938,-0.7988,-0.7988,-0.7988,-0.7988,-1.9424,-1.9424,-1.9424,-1.9424,-1.9424,-1.9424,-1.9424,-1.8865,-1.849,-1.849,-1.7963,-1.7582,-1.7582,-1.7582,-1.7582,-1.7582,-1.7582,-1.7582,-1.7582,-1.7582,-1.7582,-1.7582,-1.7582,-1.7582,-1.7582,-1.7582,-1.7482,-1.734,-1.7246,-1.7099,-1.684,-1.6136,-1.5048,-1.3656,-1.2112,-1.0641,-0.9312,-0.8382,-0.7988,-0.7988,-0.7988,-0.7988,-0.7988,-0.7988,-0.7988,-0.7988,-0.7988,-0.7988,-0.7988,-0.7988,-0.7988,-0.7988,-0.7988,-0.7988,-0.7988,-0.7988,-0.7988,-0.7988,-0.7988,-0.7988,-0.7988,-0.7988,-0.7988,-0.7988,-0.7988,-0.7988,-0.7988,-0.7988,-0.7988,-0.7988,-0.7988,-0.7988,-0.7955,-0.7899,-0.7882,-0.7848,-0.775,-0.774,-0.774,-0.774,-0.774,-0.7203,-0.5843,-0.4612,-0.3307,-0.1968,-0.0717,0.0,0.0,0.0,0.0,0.0,0.0,0.0,0.0,-0.0815,-0.1428,-0.1808,-0.2661,-0.3701,-0.4978,-0.5439,-0.6174,-0.7045,-0.7521,-0.7794,-0.7882,-0.7882,-0.7894,-0.7988,-0.7988,-0.7988,-0.7988,-0.7988,-0.7988,-0.7988,-1.9424,-1.9424,-1.9424,-1.9424,-1.9424,-1.9424,-1.9424,-1.8865,-1.849,-1.849,-1.7963,-1.7582,-1.7582,-1.7582,-1.7582,-1.7582,-1.7582,-1.7582,-1.7582,-1.7582,-1.7582,-1.7582,-1.7582,-1.7582,-1.7582,-1.7582,-1.7582,-1.7582,-1.7347,-1.7206,-1.7148,-1.5548,-1.3959,-1.2334,-1.1025,-0.9523,-0.7992,-0.7988,-0.7988,-0.7988,-0.7988,-0.7988,-0.7988,-0.7988,-0.7988,-0.7988,-0.7988,-0.7988,-0.7988,-0.7988,-0.7988,-0.7988,-0.7988,-0.7988,-0.7988,-0.7988,-0.7988,-0.7988,-0.7988,-0.7988,-0.7988,-0.7988,-0.7988,-0.7988,-0.7988,-0.7988,-0.7988,-0.7988,-0.7988,-0.7988,-0.7988,-0.7988,-0.7988,-0.7988,-0.7988,-0.7988,-0.7988,-0.7988,-0.7988,-0.7988,-0.7988,-0.7434,-0.6079,-0.4794,-0.3422,-0.2104,-0.077,0.0,0.0,0.0,0.0,0.0,0.0,0.0,0.0,0.0,-0.062,-0.1809,-0.1809,-0.2425,-0.3657,-0.5083,-0.5761,-0.5866,-0.7375,-0.7988,-0.7988,-0.7988,-0.7988,-0.7988,-0.7988,-0.7988,-0.7988,-0.7988,-0.7988,-0.7988,-1.9424,-1.9424,-1.9424,-1.9424,-1.9424,-1.9424,-1.9424,-1.8865,-1.849,-1.849,-1.7963,-1.7582,-1.7582,-1.7582,-1.7582,-1.7582,-1.7582,-1.7582,-1.7582,-1.7582,-1.7582,-1.7582,-1.7582,-1.7582,-1.7582,-1.7582,-1.7582,-1.7582,-1.7495,-1.7507,-1.7448,-1.6781,-1.5191,-1.277,-1.2112,-1.0444,-0.8194,-0.8035,-0.7988,-0.7988,-0.7988,-0.7988,-0.7988,-0.7988,-0.7988,-0.7988,-0.7988,-0.7988,-0.7988,-0.7988,-0.7988,-0.7988,-0.7988,-0.7988,-0.7988,-0.7988,-0.7988,-0.7988,-0.7988,-0.7988,-0.7988,-0.7988,-0.7988,-0.7988,-0.7988,-0.7988,-0.7988,-0.7988,-0.7988,-0.7988,-0.7988,-0.7988,-0.7988,-0.7988,-0.7235,-0.6581,-0.6581,-0.5774,-0.5168,-0.5168,-0.6027,-0.5677,-0.3417,-0.3699,-0.304,-0.075,-0.0249,0.0,0.0,0.0,0.0,0.0,0.0,0.0,0.0,0.0,-0.0199,-0.0546,-0.0546,-0.1239,-0.2473,-0.2933,-0.4136,-0.5978,-0.6415,-0.6581,-0.6681,-0.7637,-0.7437,-0.6681,-0.7637,-0.7988,-0.7988,-0.7988,-0.7988,-0.7988,-1.9424,-1.9424,-1.9424,-1.9424,-1.9424,-1.9424,-1.9424,-1.8965,-1.8617,-1.8504,-1.807,-1.7716,-1.7595,-1.7582,-1.7582,-1.7582,-1.7582,-1.7582,-1.7582,-1.7582,-1.7582,-1.7582,-1.7582,-1.7582,-1.7582,-1.7582,-1.7582,-1.7582,-1.7582,-1.7582,-1.7582,-1.7454,-1.582,-1.3016,-1.2751,-1.1062,-0.8343,-0.8194,-0.813,-0.8126,-0.8015,-0.7988,-0.7988,-0.7988,-0.7988,-0.7988,-0.7988,-0.7988,-0.7988,-0.7988,-0.7988,-0.7988,-0.7988,-0.7988,-0.7988,-0.7988,-0.7988,-0.7988,-0.7988,-0.7988,-0.7988,-0.7988,-0.7988,-0.7988,-0.7988,-0.7988,-0.7988,-0.7988,-0.7988,-0.7988,-0.7988,-0.7988,-0.7839,-0.7285,-0.6531,-0.5827,-0.5275,-0.4518,-0.4016,-0.4016,-0.4718,-0.437,-0.2213,-0.2715,-0.2314,-0.0151,0.0,0.0,0.0,0.0,0.0,0.0,0.0,0.0,0.0,0.0,0.0,0.0,0.0,-0.0404,-0.1209,-0.1762,-0.2865,-0.4472,-0.4972,-0.5222,-0.5272,-0.6074,-0.5924,-0.5272,-0.6124,-0.6426,-0.6426,-0.6426,-0.6426,-0.6476,-1.9424,-1.9424,-1.9424,-1.9424,-1.9424,-1.9424,-1.9424,-1.9118,-1.8818,-1.8531,-1.823,-1.7876,-1.7615,-1.7582,-1.7582,-1.7582,-1.7582,-1.7582,-1.7582,-1.7582,-1.7582,-1.7582,-1.7582,-1.7582,-1.7582,-1.7582,-1.7582,-1.7582,-1.7582,-1.7582,-1.7582,-1.7582,-1.5986,-1.3056,-1.3036,-1.1353,-0.8492,-0.835,-0.8333,-0.831,-0.8116,-0.8002,-0.7988,-0.7988,-0.7988,-0.7988,-0.7988,-0.7988,-0.7988,-0.7988,-0.7988,-0.7988,-0.7988,-0.7988,-0.7988,-0.7988,-0.7988,-0.7988,-0.7988,-0.7988,-0.7988,-0.7988,-0.7988,-0.7988,-0.7988,-0.7988,-0.7988,-0.7988,-0.7988,-0.7988,-0.7988,-0.7988,-0.7587,-0.6229,-0.5879,-0.5372,-0.4017,-0.3715,-0.3667,-0.3667,-0.3765,-0.3316,-0.1962,-0.1812,-0.131,-0.0101,0.0,0.0,0.0,0.0,0.0,0.0,0.0,0.0,0.0,0.0,0.0,0.0,0.0,0.0,-0.0051,-0.126,-0.1862,-0.2063,-0.3316,-0.3815,-0.3815,-0.3966,-0.3915,-0.3815,-0.3966,-0.4016,-0.4016,-0.4016,-0.4016,-0.4166,-1.9424,-1.9424,-1.9424,-1.9424,-1.9424,-1.9424,-1.9424,-1.9118,-1.8818,-1.8531,-1.823,-1.7876,-1.7615,-1.7582,-1.7582,-1.7582,-1.7582,-1.7582,-1.7582,-1.7582,-1.7582,-1.7582,-1.7582,-1.7582,-1.7582,-1.7582,-1.7582,-1.7582,-1.7582,-1.7582,-1.7582,-1.7582,-1.6037,-1.3237,-1.3055,-1.1376,-0.8652,-0.8499,-0.8374,-0.832,-0.8235,-0.8147,-0.7988,-0.7988,-0.7988,-0.7988,-0.7988,-0.7988,-0.7988,-0.7988,-0.7988,-0.7988,-0.7988,-0.7988,-0.7988,-0.7988,-0.7988,-0.7988,-0.7988,-0.7988,-0.7988,-0.7988,-0.7988,-0.7988,-0.7988,-0.7988,-0.7988,-0.7988,-0.7988,-0.7988,-0.7988,-0.7988,-0.7587,-0.6229,-0.5122,-0.3967,-0.2614,-0.1511,-0.0857,-0.0857,-0.1812,-0.1913,-0.0555,-0.0454,-0.0303,0.0,0.0,0.0,0.0,0.0,0.0,0.0,0.0,0.0,0.0,0.0,0.0,0.0,0.0,0.0,0.0,-0.0303,-0.1008,-0.2013,-0.2314,-0.2414,-0.2514,-0.3565,-0.3366,-0.2514,-0.3565,-0.4016,-0.4016,-0.4016,-0.4016,-0.4066,-1.9424,-1.9424,-1.9424,-1.9424,-1.9424,-1.9424,-1.9424,-1.9232,-1.9032,-1.8738,-1.8444,-1.8143,-1.7836,-1.7669,-1.7582,-1.7582,-1.7582,-1.7582,-1.7582,-1.7582,-1.7582,-1.7582,-1.7582,-1.7582,-1.7582,-1.7582,-1.7582,-1.7582,-1.7582,-1.7582,-1.7582,-1.7582,-1.6068,-1.3313,-1.3192,-1.1545,-0.8808,-0.8655,-0.855,-0.8476,-0.8401,-0.8282,-0.815,-0.815,-0.8102,-0.7988,-0.7988,-0.7988,-0.7988,-0.7988,-0.7988,-0.7988,-0.7988,-0.7988,-0.7988,-0.7988,-0.7988,-0.7988,-0.7988,-0.7988,-0.7988,-0.7988,-0.7988,-0.7988,-0.7988,-0.7988,-0.7988,-0.7988,-0.7988,-0.7988,-0.7988,-0.7988,-0.7332,-0.5372,-0.4468,-0.3316,-0.131,-0.0454,0.0,0.0,-0.0605,-0.0756,-0.005,0.0,0.0,0.0,0.0,0.0,0.0,0.0,0.0,0.0,0.0,0.0,0.0,0.0,0.0,0.0,0.0,0.0,0.0,0.0,-0.0404,-0.1058,-0.1058,-0.1058,-0.1109,-0.1812,-0.1661,-0.1109,-0.1812,-0.2113,-0.2113,-0.2113,-0.2514,-0.2964,-1.9424,-1.9424,-1.9424,-1.9424,-1.9424,-1.9424,-1.9424,-1.9424,-1.9259,-1.8965,-1.8718,-1.843,-1.8029,-1.7769,-1.7582,-1.7582,-1.7582,-1.7582,-1.7582,-1.7582,-1.7582,-1.7582,-1.7582,-1.7582,-1.7582,-1.7582,-1.7582,-1.7582,-1.7582,-1.7582,-1.7582,-1.7582,-1.6068,-1.3318,-1.3318,-1.1647,-0.8875,-0.8804,-0.8733,-0.8699,-0.857,-0.8435,-0.8357,-0.8357,-0.8211,-0.8029,-0.8029,-0.8012,-0.7988,-0.7988,-0.7988,-0.7988,-0.7988,-0.7988,-0.7988,-0.7988,-0.7988,-0.7988,-0.7988,-0.7988,-0.7988,-0.7988,-0.7988,-0.7988,-0.7988,-0.7988,-0.7988,-0.7988,-0.7988,-0.7988,-0.7988,-0.7988,-0.7132,-0.4418,-0.4016,-0.3065,-0.0353,0.0,0.0,0.0,0.0,0.0,0.0,0.0,0.0,0.0,0.0,0.0,0.0,0.0,0.0,0.0,0.0,0.0,0.0,0.0,0.0,0.0,0.0,0.0,0.0,0.0,0.0,0.0,0.0,0.0,0.0,0.0,0.0,0.0,0.0,0.0,0.0,0.0,-0.0706,-0.1511,-1.9424,-1.9424,-1.9424,-1.9424,-1.9424,-1.9424,-1.9424,-1.9424,-1.9259,-1.8965,-1.8891,-1.8657,-1.8049,-1.7769,-1.7582,-1.7582,-1.7582,-1.7582,-1.7582,-1.7582,-1.7582,-1.7582,-1.7582,-1.7582,-1.7582,-1.7582,-1.7582,-1.7582,-1.7582,-1.7582,-1.7582,-1.7582,-1.6068,-1.3318,-1.3318,-1.1647,-0.8881,-0.8861,-0.8832,-0.871,-0.8686,-0.8587,-0.8455,-0.8455,-0.8364,-0.8238,-0.8238,-0.8153,-0.7988,-0.7988,-0.7988,-0.7988,-0.7988,-0.7988,-0.7988,-0.7988,-0.7988,-0.7988,-0.7988,-0.7988,-0.7988,-0.7988,-0.7988,-0.7988,-0.7988,-0.7988,-0.7988,-0.7988,-0.7988,-0.7988,-0.7988,-0.7988,-0.7132,-0.4418,-0.4016,-0.3065,-0.0353,0.0,0.0,0.0,0.0,0.0,0.0,0.0,0.0,0.0,0.0,0.0,0.0,0.0,0.0,0.0,0.0,0.0,0.0,0.0,0.0,0.0,0.0,0.0,0.0,0.0,0.0,0.0,0.0,0.0,0.0,0.0,0.0,0.0,0.0,0.0,0.0,0.0,-0.0101,-0.0252,-1.9424,-1.9424,-1.9424,-1.9424,-1.9424,-1.9424,-1.9424,-1.9424,-1.9377,-1.9192,-1.9025,-1.8824,-1.8508,-1.8116,-1.7842,-1.7842,-1.7682,-1.7582,-1.7582,-1.7582,-1.7582,-1.7582,-1.7582,-1.7582,-1.7582,-1.7582,-1.7582,-1.7582,-1.7582,-1.7582,-1.7582,-1.7582,-1.6068,-1.3318,-1.3318,-1.1647,-0.8885,-0.8885,-0.8844,-0.8838,-0.8838,-0.8747,-0.8611,-0.8611,-0.8516,-0.8387,-0.8387,-0.8343,-0.8275,-0.8194,-0.817,-0.8153,-0.8015,-0.7988,-0.7988,-0.7988,-0.7988,-0.7988,-0.7988,-0.7988,-0.7988,-0.7988,-0.7988,-0.7988,-0.7988,-0.7988,-0.7988,-0.7988,-0.7988,-0.7988,-0.7988,-0.7988,-0.7132,-0.4418,-0.4016,-0.3065,-0.0353,0.0,0.0,0.0,0.0,0.0,0.0,0.0,0.0,0.0,0.0,0.0,0.0,0.0,0.0,0.0,0.0,0.0,0.0,0.0,0.0,0.0,0.0,0.0,0.0,0.0,0.0,0.0,0.0,0.0,0.0,0.0,0.0,0.0,0.0,0.0,0.0,0.0,0.0,0.0]},{"header":{"parameterUnit":"m.s-1","parameterCategory":1,"la1":30.6,"la2":28.766,"lo1":-90.7593,"lo2":-88.6598,"dy":0.0162,"dx":0.0183,"nx":116,"ny":114,"refTime":"2023-09-01T18:00:00:Z","depth":0,"parameterNumber":3,"parameterNumberName":"V-component_of_WINDS"},"data":[0.0,0.0,0.0,0.0,0.0,0.0,0.0,0.0,0.0,0.0,0.0,0.0,0.0,0.0,0.0,0.0,0.0,0.0,0.0,0.0,0.0,0.0,0.0,0.0,0.0,0.0,0.0,0.0,0.0,0.0,0.0,0.0,0.0,0.0,0.0,0.0,0.0,0.0,0.0,0.0,0.0,0.0,0.0,0.0,0.0,0.0,0.0,0.0,0.0,0.0,0.0,0.0,0.0,0.0,0.0,0.0,0.0,0.0,0.0,0.0,0.0,0.0,0.0,0.0,0.0,0.0,0.0,0.0,0.0,0.0,0.0,0.0,0.0,0.0,0.0,0.0,0.0,0.0,0.0,0.0,0.0,0.0,0.0,0.0,0.0,0.0,0.0,0.0,0.0,0.0,0.0,0.0,0.0,0.0,0.0,0.0,0.0,0.0,0.0,0.0,0.0,0.0,0.0,0.0,0.0,0.0,0.0,0.0,0.0,0.0,0.0,0.0,0.0,0.0,0.0,0.0,0.0,0.0,0.0,0.0,0.0,0.0,0.0,0.0,0.0,0.0,0.0,0.0,0.0,0.0,0.0,0.0,0.0,0.0,0.0,0.0,0.0,0.0,0.0,0.0,0.0,0.0,0.0,0.0,0.0,0.0,0.0,0.0,0.0,0.0,0.0,0.0,0.0,0.0,0.0,0.0,0.0,0.0,0.0,0.0,0.0,0.0,0.0,0.0,0.0,0.0,0.0,0.0,0.0,0.0,0.0,0.0,0.0,0.0,0.0,0.0,0.0,0.0,0.0,0.0,0.0,0.0,0.0,0.0,0.0,0.0,0.0,0.0,0.0,0.0,0.0,0.0,0.0,0.0,0.0,0.0,0.0,0.0,0.0,0.0,0.0,0.0,0.0,0.0,0.0,0.0,0.0,0.0,0.0,0.0,0.0,0.0,0.0,0.0,0.0,0.0,0.0,0.0,0.0,0.0,0.0,0.0,0.0,0.0,0.0,0.0,0.0,0.0,0.0,0.0,0.0,0.0,0.0,0.0,0.0,0.0,0.0,0.0,0.0,0.0,0.0,0.0,0.0,0.0,0.0,0.0,0.0,0.0,0.0,0.0,0.0,0.0,0.0,0.0,0.0,0.0,0.0,0.0,0.0,0.0,0.0,0.0,0.0,0.0,0.0,0.0,0.0,0.0,0.0,0.0,0.0,0.0,0.0,0.0,0.0,0.0,0.0,0.0,0.0,0.0,0.0,0.0,0.0,0.0,0.0,0.0,0.0,0.0,0.0,0.0,0.0,0.0,0.0,0.0,0.0,0.0,0.0,0.0,0.0,0.0,0.0,0.0,0.0,0.0,0.0,0.0,0.0,0.0,0.0,0.0,0.0,0.0,0.0,0.0,0.0,0.0,0.0,0.0,0.0,0.0,0.0,0.0,0.0,0.0,0.0,0.0,0.0,0.0,0.0,0.0,0.0,0.0,0.0,0.0,0.0,0.0,0.0,0.0,0.0,0.0,0.0,0.0,0.0,0.0,0.0,0.0,0.0,0.0,0.0,0.0,0.0,0.0,0.0,0.0,0.0,0.0,0.0,0.0,0.0,0.0,0.0,0.0,0.0,0.0,0.0,0.0,0.0,0.0,0.0,0.0,0.0,0.0,0.0,0.0,0.0,0.0,0.0,0.0,0.0,0.0,0.0,0.0,0.0,0.0,0.0,0.0,0.0,0.0,0.0,0.0,0.0,0.0,0.0,0.0,0.0,0.0,0.0,0.0,0.0,0.0,0.0,0.0,0.0,0.0,0.0,0.0,0.0,0.0,0.0,0.0,0.0,0.0,0.0,0.0,0.0,0.0,0.0,0.0,0.0,0.0,0.0,0.0,0.0,0.0,0.0,0.0,0.0,0.0,0.0,0.0,0.0,0.0,0.0,0.0,0.0,0.0,0.0,0.0,0.0,0.0,0.0,0.0,0.0,0.0,0.0,0.0,0.0,0.0,0.0,0.0,0.0,0.0,0.0,0.0,0.0,0.0,0.0,0.0,0.0,0.0,0.0,0.0,0.0,0.0,0.0,0.0,0.0,0.0,0.0,0.0,0.0,0.0,0.0,0.0,0.0,0.0,0.0,0.0,0.0,0.0,0.0,0.0,0.0,0.0,0.0,0.0,0.0,0.0,0.0,0.0,0.0,0.0,0.0,0.0,0.0,0.0,0.0,0.0,0.0,0.0,0.0,0.0,0.0,0.0,0.0,0.0,0.0,0.0,0.0,0.0,0.0,0.0,0.0,0.0,0.0,0.0,0.0,0.0,0.0,0.0,0.0,0.0,0.0,0.0,0.0,0.0,0.0,0.0,0.0,0.0,0.0,0.0,0.0,0.0,0.0,0.0,0.0,0.0,0.0,0.0,0.0,0.0,0.0,0.0,0.0,0.0,0.0,0.0,0.0,0.0,0.0,0.0,0.0,0.0,0.0,0.0,0.0,0.0,0.0,0.0,0.0,0.0,0.0,0.0,0.0,0.0,0.0,0.0,0.0,0.0,0.0,0.0,0.0,0.0,0.0,0.0,0.0,0.0,0.0,0.0,0.0,0.0,0.0,0.0,0.0,0.0,0.0,0.0,0.0,0.0,0.0,0.0,0.0,0.0,0.0,0.0,0.0,0.0,0.0,0.0,0.0,0.0,0.0,0.0,0.0,0.0,0.0,0.0,0.0,0.0,0.0,0.0,0.0,0.0,0.0,0.0,0.0,0.0,0.0,0.0,0.0,0.0,0.0,0.0,0.0,0.0,0.0,0.0,0.0,0.0,0.0,0.0,0.0,0.0,0.0,0.0,0.0,0.0,0.0,0.0,0.0,0.0,0.0,0.0,0.0,0.0,0.0,0.0,0.0,0.0,0.0,0.0,0.0,0.0,0.0,0.0,0.0,0.0,0.0,0.0,0.0,0.0,0.0,0.0,0.0,0.0,0.0,0.0,0.0,0.0,0.0,0.0,0.0,0.0,0.0,0.0,0.0,0.0,0.0,0.0,0.0,0.0,0.0,0.0,0.0,0.0,0.0,0.0,0.0,0.0,0.0,0.0,0.0,0.0,0.0,0.0,0.0,0.0,0.0,0.0,0.0,0.0,0.0,0.0,0.0,0.0,0.0,0.0,0.0,0.0,0.0,0.0,0.0,0.0,0.0,0.0,0.0,0.0,0.0,0.0,0.0,0.0,0.0,0.0,0.0,0.0,0.0,0.0,0.0,0.0,0.0,0.0,0.0,0.0,0.0,0.0,0.0,0.0,0.0,0.0,0.0,0.0,0.0,0.0,0.0,0.0,0.0,0.0,0.0,0.0,0.0,0.0,0.0,0.0,0.0,0.0,0.0,0.0,0.0,0.0,0.0,0.0,0.0,0.0,0.0,0.0,0.0,0.0,0.0,0.0,0.0,0.0,0.0,0.0,0.0,0.0,0.0,0.0,0.0,0.0,0.0,0.0,0.0,0.0,0.0,0.0,0.0,0.0,0.0,0.0,0.0,0.0,0.0,0.0,0.0,0.0,0.0,0.0,0.0,0.0,0.0,0.0,0.0,0.0,0.0,0.0,0.0,0.0,0.0,0.0,0.0,0.0,0.0,0.0,0.0,0.0,0.0,0.0,0.0,0.0,0.0,0.0,0.0,0.0,0.0,0.0,0.0,0.0,0.0,0.0,0.0,0.0,0.0,0.0,0.0,0.0,0.0,0.0,0.0,0.0,0.0,0.0,0.0,0.0,0.0,0.0,0.0,0.0,0.0,0.0,0.0,0.0,0.0,0.0,0.0,0.0,0.0,0.0,0.0,0.0,0.0,0.0,0.0,0.0,0.0,0.0,0.0,0.0,0.0,0.0,0.0,0.0,0.0,0.0,0.0,0.0,0.0,0.0,0.0,0.0,0.0,0.0,0.0,0.0,0.0,0.0,0.0,0.0,0.0,0.0,0.0,0.0,0.0,0.0,0.0,0.0,0.0,0.0,0.0,0.0,0.0,0.0,0.0,0.0,0.0,0.0,0.0,0.0,0.0,0.0,0.0,0.0,0.0,0.0,0.0,0.0,0.0,0.0,0.0,0.0,0.0,0.0,0.0,0.0,0.0,0.0,0.0,0.0,0.0,0.0,0.0,0.0,0.0,0.0,0.0,0.0,0.0,0.0,0.0,0.0,0.0,0.0,0.0,0.0,0.0,0.0,0.0,0.0,0.0,0.0,0.0,0.0,0.0,0.0,0.0,0.0,0.0,0.0,0.0,0.0,0.0,0.0,0.0,0.0,0.0,0.0,0.0,0.0,0.0,0.0,0.0,0.0,0.0,0.0,0.0,0.0,0.0,0.0,0.0,0.0,0.0,0.0,0.0,0.0,0.0,0.0,0.0,0.0,0.0,0.0,0.0,0.0,0.0,0.0,0.0,0.0,0.0,0.0,0.0,0.0,0.0,0.0,0.0,0.0,0.0,0.0,0.0,0.0,0.0,0.0,0.0,0.0,0.0,0.0,0.0,0.0,0.0,0.0,0.0,0.0,0.0,0.0,0.0,0.0,0.0,0.0,0.0,0.0,0.0,0.0,0.0,0.0,0.0,0.0,0.0,0.0,0.0,0.0,0.0,0.0,0.0,0.0,0.0,0.0,0.0,0.0,0.0,0.0,0.0,0.0,0.0,0.0,0.0,0.0,0.0,0.0,0.0,0.0,0.0,0.0,0.0,0.0,0.0,0.0,0.0,0.0,0.0,0.0,0.0,0.0,0.0,0.0,0.0,0.0,0.0,0.0,0.0,0.0,0.0,0.0,0.0,0.0,0.0,0.0,0.0,0.0,0.0,0.0,0.0,0.0,0.0,0.0,0.0,0.0,0.0,0.0,0.0,0.0,0.0,0.0,0.0,0.0,0.0,0.0,0.0,0.0,0.0,0.0,0.0,0.0,0.0,0.0,0.0,0.0,0.0,0.0,0.0,0.0,0.0,0.0,0.0,0.0,0.0,0.0,0.0,0.0,0.0,0.0,0.0,0.0,0.0,0.0,0.0,0.0,0.0,0.0,0.0,0.0,0.0,0.0,0.0,0.0,0.0,0.0,0.0,0.0,0.0,0.0,0.0,0.0,0.0,0.0,0.0,0.0,0.0,0.0,0.0,0.0,0.0,0.0,0.0,0.0,0.0,0.0,0.0,0.0,0.0,0.0,0.0,0.0,0.0,0.0,0.0,0.0,0.0,0.0,0.0,0.0,0.0,0.0,0.0,0.0,0.0,0.0,0.0,0.0,0.0,0.0,0.0,0.0,0.0,0.0,0.0,0.0,0.0,0.0,0.0,0.0,0.0,0.0,0.0,0.0,0.0,0.0,0.0,0.0,0.0,0.0,0.0,0.0,0.0,0.0,0.0,0.0,0.0,0.0,0.0,0.0,0.0,0.0,0.0,0.0,0.0,0.0,0.0,0.0,0.0,0.0,0.0,0.0,0.0,0.0,0.0,0.0,0.0,0.0,0.0,0.0,0.0,0.0,0.0,0.0,0.0,0.0,0.0,0.0,0.0,0.0,0.0,0.0,0.0,0.0,0.0,0.0,0.0,0.0,0.0,0.0,0.0,0.0,0.0,0.0,0.0,0.0,0.0,0.0,0.0,0.0,0.0,0.0,0.0,0.0,0.0,0.0,0.0,0.0,0.0,0.0,0.0,0.0,0.0,0.0,0.0,0.0,0.0,0.0,0.0,0.0,0.0,0.0,0.0,0.0,0.0,0.0,0.0,0.0,0.0,0.0,0.0,0.0,0.0,0.0,0.0,0.0,0.0,0.0,0.0,0.0,0.0,0.0,0.0,0.0,0.0,0.0,0.0,0.0,0.0,0.0,0.0,0.0,0.0,0.0,0.0,0.0,0.0,0.0,0.0,0.0,0.0,0.0,0.0,0.0,0.0,0.0,0.0,0.0,0.0,0.0,0.0,0.0,0.0,0.0,0.0,0.0,0.0,0.0,0.0,0.0,0.0,0.0,0.0,0.0,0.0,0.0,0.0,0.0,0.0,0.0,0.0,0.0,0.0,0.0,0.0,0.0,0.0,0.0,0.0,0.0,0.0,0.0,0.0,0.0,0.0,0.0,0.0,0.0,0.0,0.0,0.0,0.0,0.7095,0.0,0.0,0.0,0.0,0.0,0.0,0.0,0.0,0.0,0.0,0.0,0.0,0.0,0.0,0.0,0.0,0.0,0.0,0.0,0.0,0.0,0.0,0.0,0.0,0.0,0.0,0.0,0.0,0.0,0.0,0.0,0.0,0.0,0.0,0.0,0.0,0.0,0.0,2.8937,2.8371,2.8091,2.8079,2.6792,2.5375,2.3895,0.0,0.0,0.0,0.0,0.0,0.0,0.0,0.0,0.0,0.0,0.0,0.0,0.0,0.0,0.0,0.0,0.0,0.0,0.0,0.0,0.0,0.0,0.0,0.0,0.0,0.0,0.0,0.0,0.0,0.0,0.0,0.0,0.0,0.0,0.0,0.0,0.0,0.0,0.0,0.0,0.0,0.0,0.0,0.0,0.0,0.0,0.0,0.0,0.0,0.0,0.0,0.0,0.0,0.0,0.0,0.0,0.0,0.0,0.0,0.0,0.0,0.0,0.0,0.0,0.0,0.0,0.0,0.0,0.0,0.0,0.0,0.7095,0.0,0.0,0.0,0.0,0.0,0.0,0.0,0.0,0.0,0.0,0.0,0.0,0.0,0.0,0.0,0.0,0.0,0.0,0.0,0.0,0.0,0.0,0.0,2.8924,2.9103,2.9608,2.9593,2.9693,0.0,0.0,0.0,0.0,0.0,0.0,2.9792,2.9792,2.9792,2.9792,2.9792,2.9741,2.9616,2.7835,2.5999,2.4173,2.4357,0.0,0.0,0.0,0.0,0.0,0.0,0.0,0.0,0.0,0.0,0.0,0.0,0.0,0.0,0.0,0.0,0.0,0.0,0.0,0.0,0.0,0.0,0.0,0.0,0.0,0.0,0.0,0.0,0.0,0.0,0.0,0.0,0.0,0.0,0.0,0.0,0.0,0.0,0.0,0.0,0.0,0.0,0.0,0.0,0.0,0.0,0.0,0.0,0.0,0.0,0.0,0.0,0.0,0.0,0.0,0.0,0.0,0.0,0.0,0.0,0.0,0.0,0.0,1.1643,1.1085,1.0907,1.0907,1.0778,1.0481,0.8532,0.7577,0.7401,0.7183,0.0,0.0,0.0,0.0,0.0,0.0,0.0,0.0,0.0,0.0,0.0,0.0,0.0,0.0,0.0,0.0,0.0,0.0,0.0,0.0,0.0,2.9912,3.0547,3.0596,3.1519,3.1807,3.1068,0.0,0.0,0.0,0.0,0.0,2.9792,2.9792,2.9792,2.9792,2.9792,2.9528,2.9001,2.8725,2.7952,2.674,2.5457,2.4885,2.4791,0.0,0.0,0.0,0.0,0.0,0.0,0.0,0.0,0.0,0.0,0.0,0.0,0.0,0.0,0.0,0.0,0.0,0.0,0.0,0.0,0.0,0.0,0.0,0.0,0.0,0.0,0.0,0.0,0.0,0.0,0.0,0.0,0.0,0.0,0.0,0.0,0.0,0.0,0.0,0.0,0.0,1.9756,1.8669,0.0,0.0,0.0,0.0,0.0,0.0,0.0,0.0,0.0,0.0,0.0,0.0,0.0,1.4088,1.4088,1.3955,1.3864,1.3864,1.3695,1.3075,1.2072,1.2072,1.1552,1.0567,1.0265,0.0,0.8584,0.7533,0.0,0.0,0.0,0.0,0.0,0.0,0.0,0.0,0.0,0.0,0.0,0.0,0.0,0.0,0.0,0.0,0.0,0.0,0.0,0.0,0.0,3.0748,3.1128,3.1514,3.1839,3.2022,3.197,3.1997,0.0,0.0,0.0,3.0595,3.0595,3.0075,2.9792,2.9792,2.9792,2.9666,2.9402,2.9051,2.8511,2.772,2.6717,2.6121,2.5838,2.5838,0.0,0.0,0.0,0.0,0.0,0.0,0.0,0.0,0.0,0.0,0.0,0.0,0.0,0.0,0.0,0.0,0.0,0.0,0.0,0.0,0.0,0.0,0.0,0.0,0.0,0.0,0.0,0.0,0.0,0.0,0.0,0.0,0.0,0.0,0.0,0.0,0.0,0.0,0.0,2.0079,1.952,1.9076,1.843,1.7868,0.0,0.0,0.0,0.0,0.0,0.0,0.0,0.0,0.0,1.4088,1.4088,1.4088,1.4088,1.4088,1.4088,1.4088,1.4088,1.3822,1.3294,1.3294,1.3039,1.2516,1.1858,1.1252,1.074,0.957,0.8707,0.8105,0.0,0.0,0.0,0.0,0.6705,0.6509,0.0,0.0,0.0,0.0,0.0,0.0,0.0,0.0,0.0,0.0,0.0,0.0,3.1524,3.1469,3.1729,3.2385,3.2388,3.2511,3.2919,3.2961,3.2855,3.2593,3.1924,3.1573,3.1573,3.0884,3.0394,3.0139,3.0139,3.0037,2.9779,2.9202,2.8599,2.8084,2.7532,2.7014,2.6499,2.6499,2.6499,2.6499,0.0,0.0,0.0,0.0,0.0,0.0,0.0,0.0,0.0,0.0,0.0,0.0,0.0,0.0,0.0,0.0,0.0,0.0,0.0,0.0,0.0,0.0,0.0,0.0,0.0,0.0,0.0,0.0,0.0,0.0,0.0,0.0,0.0,0.0,0.0,0.0,0.0,1.9923,1.9402,1.9402,1.8669,1.8141,0.0,0.0,0.0,0.0,0.0,0.0,1.4943,1.4657,1.4496,1.4496,1.425,1.4088,1.4088,1.4088,1.4088,1.4088,1.4088,1.4088,1.4088,1.4088,1.4088,1.4039,1.316,1.2766,1.2638,1.0869,0.9662,0.889,0.889,0.8218,0.7289,0.7166,0.7045,0.6846,0.0,0.0,0.0,0.0,0.0,0.0,0.0,0.0,0.0,0.0,0.0,3.2272,3.1582,3.2064,3.2721,3.3363,3.3989,3.423,3.395,3.391,3.3518,3.2629,3.2558,3.2522,3.2522,3.25,3.2033,3.1143,3.1143,3.0658,2.9779,2.9202,2.8599,2.8084,2.7532,2.7014,2.6499,2.6499,2.6499,2.6499,2.6499,0.0,0.0,0.0,0.0,0.0,0.0,0.0,0.0,0.0,0.0,0.0,0.0,0.0,0.0,0.0,0.0,0.0,0.0,0.0,0.0,0.0,0.0,0.0,0.0,0.0,0.0,0.0,0.0,0.0,0.0,0.0,0.0,0.0,0.0,0.0,0.0,0.0,0.0,2.0527,2.0479,0.0,0.0,0.0,0.0,1.8838,1.7827,1.722,1.7131,1.615,1.5621,1.5621,1.4608,1.4088,1.4088,1.4088,1.4088,1.4088,1.4088,1.4088,1.4088,1.4088,1.4088,1.4088,1.4039,1.3997,1.3737,1.0361,0.8934,0.889,0.889,0.8646,0.8336,0.8309,0.8161,0.7786,0.0,0.0,0.0,0.0,0.0,0.0,0.0,0.0,3.3401,3.2917,3.3077,3.313,3.2864,3.3056,3.3472,3.4099,3.4346,3.4636,3.4945,3.4953,3.4806,3.4476,3.3856,3.3206,3.2593,3.2593,3.2464,3.2105,3.2105,3.1924,3.1586,3.1395,3.047,2.897,2.8811,2.8166,2.7229,2.6714,2.6499,2.6499,2.6499,2.6499,0.0,0.0,0.0,0.0,0.0,0.0,0.0,0.0,0.0,0.0,0.0,0.0,0.0,0.0,0.0,0.0,0.0,0.0,0.0,0.0,0.0,0.0,0.0,0.0,0.0,0.0,0.0,0.0,0.0,0.0,0.0,0.0,0.0,0.0,0.0,0.0,0.0,2.0605,2.0605,0.0,2.0605,2.0245,1.9717,1.9036,1.8638,1.8069,1.7334,1.6927,1.6723,1.6723,1.6363,1.5835,1.5137,1.5137,1.4776,1.4088,1.4088,1.4088,1.4088,1.4088,1.4088,1.4088,1.4088,1.4088,1.3955,1.1906,1.1085,1.1085,1.1085,1.0512,0.968,0.9687,0.9442,0.9022,0.0,0.0,0.0,0.0,0.0,0.0,0.0,0.0,3.4128,3.3659,3.3811,3.3862,3.3608,3.3582,3.3826,3.4446,3.4756,3.5085,3.5479,3.5718,3.575,3.5504,3.4872,3.4211,3.3581,3.3581,3.3394,3.3066,3.3066,3.2925,3.2593,3.2593,3.1643,2.9925,2.9925,2.9282,2.8117,2.7571,2.7162,2.6871,2.6624,2.6499,2.6499,0.0,0.0,0.0,0.0,0.0,0.0,0.0,0.0,0.0,0.0,0.0,0.0,0.0,0.0,0.0,0.0,0.0,0.0,0.0,0.0,0.0,0.0,0.0,0.0,0.0,0.0,0.0,0.0,0.0,0.0,0.0,0.0,0.0,0.0,0.0,2.0605,2.0605,2.0605,2.0605,2.0605,2.0605,2.0323,1.9599,1.952,1.9195,1.8461,1.806,1.7868,1.7868,1.7504,1.6968,1.6232,1.5861,1.5338,1.4657,1.4292,1.4088,1.4088,1.4088,1.4088,1.4088,1.4088,1.4088,1.4039,1.3245,1.2899,1.2851,1.2456,1.1742,1.0903,1.0945,1.0702,1.0329,0.0,0.0,0.0,0.0,0.0,0.0,0.0,3.5168,3.5138,3.3836,3.4235,3.4382,3.3735,3.3659,3.3906,3.4532,3.5264,3.5668,3.5529,3.6196,3.6275,3.5537,3.5504,3.5504,3.5504,3.5504,3.5019,3.4061,3.4061,3.3602,3.2713,3.2713,3.2027,3.0831,3.0831,3.0168,2.9034,2.9002,2.8524,2.7703,2.6905,2.6555,2.6521,0.0,0.0,0.0,0.0,0.0,0.0,0.0,0.0,0.0,0.0,0.0,0.0,0.0,0.0,0.0,0.0,0.0,0.0,0.0,0.0,0.0,0.0,0.0,0.0,0.0,0.0,0.0,0.0,0.0,0.0,0.0,0.0,0.0,2.0789,2.0605,2.0605,2.0605,2.0605,2.0605,2.0605,2.0605,2.0605,2.0605,2.0605,2.0605,2.0605,1.9599,1.9045,1.9054,1.8006,1.7399,1.7367,1.6345,1.5809,1.5767,1.4713,1.4186,1.4186,1.4173,1.4124,1.4088,1.4088,1.4088,1.4088,1.4088,1.4088,1.3997,1.2808,1.2217,1.1999,1.2094,1.198,1.1634,0.0,0.0,0.0,0.0,0.0,0.0,3.5362,3.547,3.547,3.5091,3.5207,3.5253,3.5068,3.5045,3.5331,3.6032,3.6293,3.638,3.6307,3.6492,3.6275,3.5537,3.5504,3.5504,3.5504,3.5504,3.5359,3.51,3.51,3.4953,3.4706,3.4706,3.3659,3.1803,3.1803,3.1119,2.9889,2.9286,2.9223,2.9504,2.8652,2.792,2.7384,0.0,0.0,0.0,0.0,0.0,0.0,0.0,0.0,0.0,0.0,0.0,0.0,0.0,0.0,0.0,0.0,0.0,0.0,0.0,0.0,0.0,0.0,0.0,0.0,0.0,0.0,0.0,0.0,0.0,0.0,0.0,0.0,2.1914,2.1669,2.1039,2.0605,2.0605,2.0605,2.0605,2.0605,2.0605,2.0605,2.0605,2.0605,2.0605,2.0605,2.0323,2.0311,2.0587,2.0306,1.9902,1.9412,1.9112,1.8566,1.7813,1.7191,1.6484,1.5673,1.5398,1.4852,1.4088,1.4088,1.4088,1.4088,1.4088,1.4088,1.4088,1.373,1.3552,1.3487,1.3536,1.3354,1.2994,0.0,0.0,0.0,0.0,0.0,0.0,3.56,3.56,3.56,3.56,3.56,3.56,3.56,3.56,3.5763,3.6181,3.682,3.6904,3.618,3.6152,3.5943,3.5537,3.5504,3.5504,3.5504,3.5504,3.5504,3.5504,3.5504,3.5504,3.5504,3.5504,3.45,3.2757,3.2757,3.2008,3.0777,3.0269,3.0329,3.0777,3.0238,2.9317,2.8247,2.8247,2.7953,2.7517,2.7129,2.7229,2.7451,2.6748,0.0,0.0,0.0,0.0,0.0,0.0,0.0,0.0,0.0,0.0,0.0,0.0,0.0,0.0,0.0,0.0,0.0,0.0,0.0,0.0,0.0,0.0,0.0,0.0,2.3916,2.3257,2.3257,2.1707,2.0605,2.0605,2.0605,2.0605,2.0605,2.0605,2.0605,2.0605,2.0605,2.0683,2.083,2.084,2.1055,2.1494,2.1504,2.1325,2.0903,2.0424,1.9909,1.9264,1.8583,1.7808,1.7022,1.6784,1.5963,0.0,1.4776,1.4776,1.4734,1.4292,1.437,0.0,0.0,0.0,0.0,0.0,1.3975,1.3808,0.0,0.0,0.0,0.0,0.0,0.0,3.56,3.56,3.56,3.56,3.56,3.56,3.56,3.56,3.5641,3.5721,3.7056,3.7342,3.5966,3.5624,3.5537,3.5619,3.5522,3.5504,3.5504,3.5504,3.5504,3.5504,3.5504,3.5504,3.5504,3.5504,3.4786,3.3499,3.3499,3.2766,3.1511,3.1511,3.1511,3.1511,3.1511,3.0554,2.916,2.916,2.9097,2.8907,2.8117,2.833,2.878,2.7297,0.0,0.0,0.0,0.0,0.0,0.0,0.0,0.0,0.0,0.0,0.0,0.0,0.0,0.0,0.0,0.0,0.0,0.0,0.0,0.0,0.0,0.0,0.0,0.0,2.5664,2.5004,2.5004,2.2638,2.0895,2.0789,2.075,2.0712,2.0605,2.0605,2.0625,2.0674,2.0683,2.084,2.1249,0.0,0.0,0.0,0.0,2.1982,2.2031,2.1044,2.051,2.051,1.953,1.8778,1.8339,1.8213,1.7365,1.5955,1.5876,1.5861,1.5827,1.4859,1.5019,1.5745,1.4573,1.4088,1.4088,1.4088,1.4088,1.4088,0.0,0.0,0.0,0.0,0.0,0.0,3.56,3.56,3.56,3.56,3.56,3.56,3.56,3.56,3.5858,3.6525,3.7395,3.7995,3.8231,3.6507,3.575,3.6353,3.5814,3.5504,3.5504,3.5504,3.5504,3.5504,3.5504,3.5504,3.5504,3.5504,3.4786,3.3499,3.3499,3.2766,3.1511,3.1511,3.1511,3.1511,3.1511,3.0925,3.0042,3.0042,2.9597,2.8971,2.8812,2.8876,2.8939,2.862,2.8149,2.767,2.7517,2.704,0.0,0.0,0.0,0.0,0.0,0.0,0.0,0.0,0.0,0.0,0.0,0.0,0.0,0.0,0.0,0.0,0.0,0.0,0.0,2.6499,2.5664,2.5004,2.5004,2.3818,2.2638,2.1811,2.1735,2.1451,2.0673,2.0605,2.0713,2.1074,2.1064,2.1299,2.1738,2.1758,2.1953,2.2373,2.2393,2.2549,2.2847,2.2664,2.2524,2.2524,0.0,0.0,2.0334,1.9615,1.8668,1.7505,1.713,1.6968,1.6968,1.6772,1.6813,1.6813,1.4859,1.4088,1.4088,1.4088,1.4088,1.4088,0.0,0.0,0.0,0.0,0.0,0.0,3.56,3.56,3.56,3.56,3.56,3.56,3.56,3.56,3.5926,3.6728,3.744,3.8142,3.8869,3.7469,3.6646,3.6615,3.6259,3.5863,3.5504,3.5504,3.5504,3.5504,3.5504,3.5325,3.4996,3.4996,3.4277,3.3006,3.3006,3.2452,3.1511,3.1511,3.1511,3.1511,3.1511,3.1248,3.0896,3.0896,3.0614,3.0208,2.9797,2.9919,3.0103,2.9286,2.9002,2.8907,2.8492,2.8084,2.767,0.0,0.0,0.0,0.0,0.0,0.0,0.0,0.0,0.0,0.0,0.0,0.0,0.0,0.0,2.6499,0.0,0.0,2.6499,2.6499,2.6094,2.5734,2.5734,2.5323,2.4433,2.2925,2.2739,2.2366,2.1403,2.1298,2.1268,2.1201,2.119,2.1473,2.2168,2.2197,2.2393,2.2769,2.2779,2.2886,2.3091,2.3091,2.3091,2.3091,2.2886,2.2394,2.1674,2.1061,2.0031,1.8776,1.8354,1.8149,1.8149,1.8149,1.7827,1.7172,1.6124,1.5387,1.4852,1.4292,1.4088,1.4088,0.0,0.0,0.0,0.0,0.0,0.0,0.0,3.56,3.56,3.56,3.56,3.56,3.56,3.56,3.5971,3.6948,3.7236,3.7854,3.9046,3.8144,3.7414,3.7068,3.6752,3.6337,3.5733,3.5554,3.5444,3.531,3.531,3.4951,3.4324,3.4324,3.3649,3.2512,3.2512,3.2123,3.1511,3.1511,3.1511,3.1511,3.1511,3.1511,3.1511,3.1511,3.1511,3.1409,3.0777,3.097,3.1278,2.995,2.9858,3.0178,2.9473,2.9129,2.8876,2.8149,2.7953,0.0,0.0,0.0,0.0,0.0,0.0,0.0,0.0,0.0,2.6499,2.6499,2.6499,2.6499,2.6499,2.6499,2.6499,2.6499,2.6499,2.6499,2.6499,2.6499,2.5908,2.4289,2.3927,2.3404,2.2403,2.2187,2.1989,2.162,2.1507,2.1775,2.2588,2.2637,2.275,2.3081,2.3091,2.3091,2.3091,2.3091,2.3091,2.3091,2.3091,2.2916,2.2617,2.2119,2.1218,2.0012,1.9525,1.9313,1.9313,1.9313,1.8749,1.79,1.7698,1.709,1.6232,1.5103,1.458,1.4412,0.0,0.0,0.0,0.0,0.0,0.0,0.0,0.0,3.56,3.56,3.56,3.56,3.56,3.56,3.6174,3.7652,3.658,3.7019,3.9792,3.7992,3.7359,3.8586,3.732,3.6554,3.6477,3.5846,3.5205,3.4623,3.4623,3.4279,3.3604,3.3604,3.3215,3.2512,3.2512,3.2123,3.1511,3.1511,3.1511,3.1511,3.1511,3.1511,3.1511,3.1511,3.1511,3.1511,3.1409,3.1409,3.1467,3.1278,3.0807,3.0269,3.0208,2.9628,2.8971,2.8876,2.8844,2.8684,2.7802,2.704,2.6499,2.6499,2.6499,2.6499,0.0,0.0,2.6499,2.6499,2.6499,2.6499,2.6499,2.6499,2.6499,2.6499,2.6499,2.6499,2.6499,2.6499,2.6418,2.6198,2.537,2.4456,2.3441,2.2901,2.2728,2.3017,2.2619,2.2526,2.3003,2.3023,2.3042,2.3091,2.3091,2.3091,2.3091,2.3091,2.3091,2.3091,2.3091,2.3071,2.3003,2.2246,2.1814,2.1593,2.076,2.0401,2.0401,2.0401,2.0362,2.0118,1.9195,1.8758,1.851,1.7374,1.6355,1.5538,0.0,0.0,0.0,0.0,0.0,0.0,0.0,0.0,0.0,3.56,3.56,3.56,3.56,3.6028,3.6552,3.7195,3.7069,3.7293,3.8128,3.7683,3.7298,3.7053,3.6418,3.6064,3.6022,3.4897,3.4391,3.45,3.4089,3.3559,3.2916,3.2916,3.2572,3.1914,3.1914,3.1765,3.1511,3.1511,3.1511,3.1511,3.1511,3.1511,3.1511,3.1511,3.1511,3.1511,3.1511,3.1511,0.0,3.1511,3.1278,3.0999,3.0999,3.0748,3.0359,2.9889,2.9766,0.0,2.8084,2.7451,0.0,0.0,2.6499,2.6499,2.6499,2.6499,2.6499,2.6499,2.6499,2.6499,2.6499,2.6499,2.6499,0.0,2.6499,2.6499,2.6499,2.6499,2.6499,2.6499,2.6129,2.5476,2.448,2.4445,2.4166,2.337,2.3412,2.339,2.3115,2.3091,2.3091,2.3091,2.3091,2.3091,2.3091,2.3091,2.3091,2.3091,2.3091,2.3091,2.3062,2.2266,2.1602,2.1134,2.0762,2.0605,2.0605,2.0605,2.0605,2.0566,2.0128,1.9923,1.9717,1.794,1.7009,1.6642,0.0,0.0,0.0,0.0,0.0,0.0,0.0,0.0,0.0,0.0,3.56,3.56,3.56,3.6129,3.6575,3.6778,3.7094,3.7225,3.7103,3.7412,3.7135,3.6055,3.5991,3.5791,3.5368,3.434,3.3833,3.3959,3.3457,3.2886,3.2213,3.2213,3.1959,3.1511,3.1511,3.1511,3.1511,3.1511,3.1511,3.1511,3.1511,3.1511,3.1511,3.1511,3.1511,3.1511,3.1511,3.1511,3.1511,3.1511,3.1511,3.1511,3.1511,3.1511,3.138,3.0807,3.0464,3.0011,2.8748,0.0,0.0,2.704,2.685,2.6782,2.6555,2.6499,2.6499,2.6499,2.6499,2.6499,2.6499,2.6499,2.6499,2.6499,2.6499,2.6499,2.6499,2.6499,2.6499,2.6499,2.6499,2.626,2.5682,2.5864,2.557,2.4458,2.4686,2.4619,2.4082,2.4059,2.3887,2.3594,2.3551,2.343,2.3091,2.3091,2.3091,2.3091,2.3091,2.3091,2.3062,2.2266,2.1406,2.0605,2.0605,2.0605,2.0605,2.0605,2.0605,2.0605,2.0605,2.0605,2.0401,1.8789,1.802,1.7787,0.0,0.0,0.0,0.0,0.0,0.0,0.0,0.0,0.0,0.0,0.0,0.0,0.0,3.5616,3.596,3.6745,3.6113,3.6293,3.7756,3.7212,3.6817,3.6752,3.6699,3.6071,3.4747,3.4556,3.384,3.2572,3.2542,3.2183,3.1525,3.1525,3.1525,3.1511,3.1511,3.1511,3.1511,3.1511,3.1511,3.1511,3.1511,3.1511,3.1511,3.1511,3.1511,3.1511,3.1511,3.1511,3.1511,3.1511,3.1511,3.1511,3.1511,3.1511,3.1511,3.1467,3.0896,3.0299,3.0238,0.0,2.8748,2.7887,2.767,2.7451,2.6692,2.6499,2.6499,2.6499,2.6499,2.6499,2.6499,2.6499,2.6499,2.6499,2.6499,2.6499,2.6499,2.6499,2.6499,2.6499,2.6499,2.67,0.0,2.6772,2.6676,2.7135,2.6697,2.6419,2.64,2.64,2.5891,2.4787,2.4745,2.4211,2.3091,2.3091,2.3091,2.3091,2.3091,2.3091,2.3062,2.2266,2.1406,2.0605,2.0605,2.0605,2.0605,2.0605,2.0605,2.0605,2.0605,2.0605,2.0605,2.0527,1.9844,1.8957,0.0,0.0,0.0,0.0,0.0,0.0,0.0,0.0,0.0,0.0,0.0,0.0,0.0,0.0,0.0,0.0,3.5752,3.5626,3.5697,3.5883,3.5803,3.5374,3.5317,3.5292,3.5284,3.439,3.3895,3.3892,3.3006,3.2446,3.2216,3.171,3.1511,3.1511,3.1511,3.1511,3.1511,3.1511,3.1511,3.1511,3.1511,3.1511,3.1511,3.1511,3.1511,3.1511,0.0,3.1511,3.1511,3.1511,3.1511,3.1511,3.1511,3.1511,3.1511,3.1511,3.1307,3.097,3.045,0.0,2.9659,2.878,2.8556,2.8492,2.8214,2.8149,2.8149,2.8149,2.7703,2.7284,2.7284,2.685,2.6499,2.6499,2.6499,2.6499,2.6499,2.6499,2.6499,2.6499,2.6499,0.0,0.0,0.0,0.0,2.7314,2.747,2.725,2.6565,2.6524,2.6307,2.5922,2.5933,2.5724,2.5347,2.5347,2.5347,2.5347,2.4942,2.4621,2.4311,2.3026,2.2101,2.1479,2.0857,2.0605,2.0605,2.0605,2.0605,2.0605,2.0605,2.0605,2.0605,2.0605,2.0362,2.004,0.0,0.0,0.0,0.0,0.0,0.0,0.0,0.0,0.0,0.0,0.0,0.0,0.0,0.0,0.0,0.0,0.0,3.5424,3.5005,3.5362,3.5316,3.4624,3.4847,3.4918,3.4887,3.4276,3.3937,3.3887,3.3013,3.2465,3.2203,3.171,3.1511,3.1511,3.1511,3.1511,3.1511,3.1511,3.1511,3.1511,3.1511,3.1511,3.1511,3.1511,3.1511,0.0,3.1511,3.1511,3.1511,3.1511,3.1511,3.1511,3.1511,3.1511,3.1511,3.1511,3.1511,3.138,3.0866,3.0748,3.0524,2.9659,2.9473,2.938,2.9066,2.9002,2.9002,2.9002,2.8556,2.8149,2.8149,2.7484,2.6939,2.6939,2.6679,2.6499,2.6499,2.6499,2.6499,2.6499,2.6499,2.6927,0.0,0.0,0.0,2.8195,2.8533,2.8398,2.7718,2.7678,2.7504,2.7075,2.7087,2.6883,2.6524,2.6524,2.6524,2.6472,2.5876,2.5384,2.4943,2.3798,2.2966,2.2515,2.1897,2.1413,2.1116,2.1116,2.0895,2.0605,2.0605,2.0605,2.0605,2.0605,2.0605,2.0605,0.0,0.0,0.0,0.0,0.0,0.0,0.0,0.0,0.0,0.0,0.0,0.0,0.0,0.0,0.0,0.0,0.0,0.0,3.56,3.56,3.5316,3.4688,3.5253,3.5005,3.3735,3.4333,3.4037,3.2734,3.2695,3.2299,3.1611,3.1524,3.1511,3.1511,3.1511,3.1511,3.1511,3.1511,3.1511,3.1511,3.1511,3.1511,3.1511,3.1511,3.1511,3.1511,3.1511,3.1511,3.1511,3.1511,3.1511,3.1511,3.1511,3.1511,3.1511,3.1511,3.1511,3.1511,3.1511,3.1511,3.1322,3.0554,3.0359,3.0133,2.9317,2.9129,2.9129,2.9129,2.9097,2.9066,0.0,0.0,2.7703,2.7703,2.704,2.6499,2.6499,2.6499,2.6499,0.0,0.0,0.0,0.0,0.0,0.0,2.9704,0.0,2.9792,2.9792,2.9792,2.9314,2.8215,2.8176,2.7695,2.6678,2.6689,2.6637,2.6644,2.6004,2.5509,2.5092,2.4532,2.4011,2.3551,2.3514,2.2962,2.2065,2.2065,2.1555,2.075,2.075,2.075,2.075,2.075,2.0712,2.0673,0.0,0.0,0.0,0.0,0.0,0.0,0.0,0.0,0.0,0.0,0.0,0.0,0.0,0.0,0.0,0.0,0.0,0.0,3.56,3.56,3.5515,3.5362,3.5515,3.5447,3.5091,3.527,3.5184,3.484,3.3811,3.3261,3.305,3.1992,3.1511,3.1511,3.1511,3.1511,3.1511,3.1511,3.1511,3.1511,3.1511,3.1511,3.1511,3.1511,3.1511,3.1511,3.1511,3.1511,3.1511,3.1511,0.0,0.0,3.1511,3.1511,3.1511,3.1511,3.1511,3.1511,3.1511,3.1511,3.1438,3.1248,3.119,3.1161,3.0896,3.0866,3.0866,3.0866,3.0389,2.9981,0.0,0.0,0.0,2.7703,2.704,0.0,2.6499,2.6499,0.0,2.6499,0.0,2.6927,2.7996,2.8109,0.0,0.0,2.9792,2.9792,2.9792,2.9792,2.9663,2.9365,2.9365,2.9248,2.8961,2.8961,2.8714,2.8287,2.775,2.7213,2.6675,2.536,2.4729,2.4564,2.3818,2.3331,2.311,2.311,2.2962,2.275,2.275,2.275,2.275,2.275,2.2301,2.1621,0.0,0.0,0.0,0.0,0.0,0.0,0.0,0.0,0.0,0.0,0.0,0.0,0.0,0.0,0.0,0.0,0.0,0.0,0.0,3.56,3.56,3.56,3.56,3.56,3.56,3.56,3.547,3.5144,3.4423,3.3887,3.3582,3.2489,3.2132,3.2407,3.2104,3.1979,3.2007,3.2312,3.2256,0.0,0.0,3.2256,3.1979,3.1979,3.1768,3.1511,3.1511,3.1511,3.1511,0.0,0.0,3.1511,3.1511,3.1511,3.1511,3.1511,0.0,3.1511,3.1511,3.1511,3.1511,3.1511,3.1511,3.1511,3.1511,3.1511,3.1511,3.1511,3.1161,0.0,3.0837,0.0,0.0,0.0,0.0,0.0,2.6555,2.6499,2.6499,0.0,2.6499,0.0,2.7996,2.8109,2.8574,0.0,2.9792,2.9792,2.9792,2.9792,2.9792,2.9792,2.9792,2.9792,2.9792,2.9541,2.9252,2.8888,2.8122,2.7582,2.7256,2.6154,2.5664,2.5629,0.0,2.4588,2.4156,2.4156,2.3891,2.3514,2.3514,2.3514,2.3514,2.3514,2.3147,2.2664,0.0,0.0,0.0,0.0,0.0,0.0,0.0,0.0,0.0,0.0,0.0,0.0,0.0,0.0,0.0,0.0,0.0,0.0,0.0,0.0,3.5577,3.547,3.5538,3.5577,3.547,3.5538,3.5316,3.4736,3.4552,3.4161,3.3582,3.2922,3.2868,3.3313,3.2815,3.2547,3.2477,3.3077,3.2986,3.2504,3.3077,3.2986,3.2465,0.0,3.2064,3.1511,3.1511,3.1511,3.1511,3.1511,3.1511,3.1511,3.1511,3.1511,3.1511,3.1511,3.1511,3.1511,3.1511,3.1511,3.1511,3.1511,3.1511,3.1511,3.1511,3.1511,3.1511,3.1511,0.0,3.1511,3.1511,3.0837,3.0042,2.9286,0.0,2.7637,2.6939,2.685,2.6782,2.6692,2.6658,2.7019,2.7996,2.8109,2.8574,2.9704,2.9792,2.9792,2.9792,2.9792,2.9792,2.9792,2.9792,2.9754,2.9679,2.9176,2.8813,2.8662,2.7745,2.7278,2.719,2.6713,2.6499,2.6499,2.6499,0.0,2.5194,2.5194,2.4707,2.3879,2.3879,2.3879,2.3879,2.3879,2.3806,2.3708,0.0,0.0,0.0,0.0,0.0,0.0,0.0,0.0,0.0,0.0,3.4911,3.56,0.0,0.0,0.0,0.0,0.0,0.0,0.0,0.0,0.0,3.4783,3.5299,3.5339,3.4783,3.5316,3.5538,3.5447,3.4325,3.371,3.3582,3.2922,3.2355,3.1894,3.2382,3.2272,3.1697,3.1809,3.1796,3.1682,3.1824,3.1781,3.1697,3.1697,0.0,0.0,3.1511,3.1511,3.1511,3.1511,3.1511,3.1511,3.1511,3.1511,3.1511,3.1511,3.1511,3.1511,3.1511,3.1511,3.1511,3.1511,3.1511,3.1511,3.1511,3.1511,0.0,0.0,3.1511,3.1511,3.1511,3.0837,3.0238,3.0103,0.0,0.0,0.0,0.0,2.8298,0.0,0.0,0.0,0.0,0.0,0.0,0.0,0.0,2.9792,2.9792,2.9792,2.9792,2.9792,2.9792,2.9566,2.9051,2.8938,2.8461,2.757,2.7369,2.7077,2.6637,2.6537,2.6499,2.6499,2.6499,0.0,2.6245,2.6245,2.6129,2.5978,2.5978,2.5978,2.5978,2.5978,2.5429,2.4743,0.0,0.0,0.0,0.0,0.0,0.0,0.0,3.2355,3.2722,3.3039,3.4252,3.5075,3.5075,3.5075,3.523,0.0,0.0,0.0,0.0,0.0,0.0,0.0,3.5098,3.4918,3.46,3.4918,3.5075,3.5075,0.0,3.4633,3.4633,3.3962,3.3633,3.3633,3.3633,3.3453,3.314,3.3505,3.3219,3.261,3.2955,3.2691,3.2104,0.0,0.0,0.0,0.0,3.2064,3.2007,3.164,3.1768,3.2007,3.1611,3.1511,3.1511,3.1511,3.1511,3.1511,3.1511,3.1511,3.1511,3.1511,3.1511,3.1511,3.1511,0.0,0.0,0.0,3.1511,3.1511,3.1511,0.0,0.0,0.0,0.0,0.0,0.0,0.0,0.0,0.0,0.0,0.0,0.0,0.0,0.0,0.0,0.0,3.0809,2.9869,2.9792,2.9792,2.9792,2.9792,2.9515,2.89,2.8599,2.8097,2.7281,2.7027,2.6751,2.6499,2.6499,2.6499,2.6499,2.6499,0.0,2.6499,2.6499,2.6499,2.6499,2.6499,2.6499,2.6499,2.6499,2.6198,2.5769,0.0,0.0,0.0,0.0,0.0,0.0,0.0,3.1979,3.2355,3.2355,3.3401,3.4235,3.4382,3.4503,3.4871,0.0,0.0,0.0,0.0,0.0,0.0,0.0,0.0,0.0,0.0,0.0,0.0,0.0,3.5207,0.0,0.0,0.0,0.0,0.0,3.4759,3.4528,3.4431,3.4958,3.4544,0.0,0.0,3.3761,0.0,0.0,0.0,0.0,0.0,0.0,3.2749,3.216,3.2244,3.2492,3.1938,3.164,3.1511,3.1511,3.1511,3.1511,3.1511,3.1511,3.1511,3.1511,3.1511,3.1511,3.1511,3.1511,0.0,0.0,3.1511,3.1511,3.1511,0.0,0.0,0.0,0.0,0.0,0.0,0.0,0.0,0.0,0.0,0.0,0.0,0.0,0.0,0.0,0.0,0.0,3.0177,3.0113,2.9998,2.9792,2.9666,2.9327,2.8712,2.821,2.7657,2.714,2.67,2.6499,2.6499,2.6499,2.6499,2.6499,2.6499,0.0,0.0,2.6499,2.6499,2.6499,2.6499,2.6499,2.6499,2.6499,2.6499,2.6499,0.0,0.0,0.0,0.0,0.0,0.0,0.0,3.1553,3.1611,3.1611,3.2299,3.3029,3.3633,3.4235,3.4871,0.0,0.0,0.0,0.0,0.0,0.0,0.0,0.0,0.0,0.0,0.0,0.0,0.0,0.0,0.0,0.0,0.0,0.0,0.0,0.0,0.0,3.3684,3.3761,0.0,0.0,0.0,0.0,0.0,0.0,0.0,0.0,0.0,0.0,0.0,0.0,0.0,3.2602,3.252,3.2035,3.1511,3.1511,0.0,0.0,3.1511,3.1511,3.1511,3.1511,3.1511,3.1511,3.1511,0.0,0.0,3.1511,3.1511,3.1511,3.1511,3.1511,3.1467,0.0,0.0,3.1351,0.0,0.0,0.0,0.0,0.0,0.0,0.0,0.0,0.0,0.0,0.0,0.0,3.1143,3.1068,3.0696,2.983,2.9289,2.87,2.8185,2.7632,2.7115,2.6562,2.6512,2.6499,2.6499,2.6499,2.6499,2.6499,2.6499,0.0,0.0,2.6499,2.6499,2.6499,2.6499,2.6499,2.6499,2.6499,2.6499,2.6499,0.0,0.0,0.0,0.0,0.0,0.0,3.1511,3.1511,3.1511,3.1511,3.2132,3.2695,3.2975,3.3598,3.4423,3.5515,0.0,0.0,0.0,0.0,0.0,0.0,0.0,0.0,0.0,0.0,3.4988,3.4988,0.0,0.0,0.0,0.0,0.0,0.0,0.0,0.0,0.0,3.48,0.0,0.0,0.0,0.0,0.0,0.0,0.0,0.0,0.0,0.0,0.0,0.0,0.0,0.0,3.3339,3.2734,0.0,0.0,3.1511,3.1511,3.1511,3.1511,3.1511,3.1511,3.1511,3.1511,3.1511,0.0,3.1511,3.1511,3.1511,3.1511,3.1511,3.1511,3.1511,3.1511,3.1511,0.0,0.0,0.0,0.0,0.0,0.0,0.0,0.0,0.0,0.0,0.0,0.0,0.0,3.2961,3.2357,3.1703,3.0897,3.0645,3.0073,2.9143,2.8904,2.8538,2.7986,2.7986,2.7986,2.7986,2.7986,2.7736,2.7229,2.7229,0.0,0.0,2.6499,2.6499,2.6499,2.6499,2.6499,2.6499,2.6499,2.6499,2.6499,0.0,0.0,0.0,0.0,0.0,3.1511,3.1511,3.1511,3.1511,3.1511,3.1951,3.2355,3.2574,3.3182,3.4062,3.5207,3.4871,0.0,0.0,0.0,0.0,0.0,0.0,0.0,0.0,0.0,3.4894,3.4894,3.5362,3.56,0.0,0.0,0.0,0.0,0.0,0.0,0.0,0.0,0.0,0.0,0.0,0.0,0.0,0.0,0.0,0.0,0.0,0.0,0.0,0.0,0.0,0.0,3.4037,3.3443,3.2788,0.0,3.1964,3.1881,3.2076,3.1979,3.1866,3.2076,3.1979,3.1881,0.0,0.0,3.2117,3.2117,3.2117,3.2076,3.1866,3.1824,3.1739,3.1539,3.1511,3.1511,3.1511,0.0,0.0,0.0,0.0,0.0,0.0,0.0,0.0,0.0,0.0,0.0,0.0,3.3636,3.2673,3.164,3.1461,3.0868,2.9816,2.9656,2.9352,2.9002,2.9002,2.9002,2.9002,2.9002,2.8684,2.8084,2.8084,0.0,0.0,2.7229,2.7229,2.7196,2.6973,2.685,2.685,2.6589,2.6499,2.6499,0.0,0.0,0.0,0.0,0.0,0.0,3.1511,3.1511,3.1511,3.1511,3.1511,3.1796,3.252,3.3182,3.3862,3.4552,3.46,0.0,0.0,0.0,0.0,0.0,0.0,0.0,0.0,0.0,3.56,3.56,3.56,3.56,3.56,3.56,0.0,0.0,0.0,0.0,0.0,0.0,0.0,0.0,0.0,0.0,0.0,0.0,0.0,0.0,0.0,0.0,0.0,0.0,0.0,0.0,0.0,3.4137,3.3582,3.3582,3.3119,3.2749,3.3391,3.3093,3.2749,3.3417,3.3093,3.2761,0.0,3.3582,3.3582,3.3582,3.3582,3.3365,3.2722,3.2602,3.2355,3.1611,3.1511,3.1511,0.0,0.0,0.0,0.0,0.0,0.0,0.0,0.0,0.0,0.0,0.0,0.0,0.0,3.4861,3.3612,3.1661,3.1095,3.0488,2.9816,2.9274,2.9016,2.9002,2.9002,2.9002,2.9002,2.9002,2.9002,0.0,0.0,0.0,0.0,2.8971,2.8971,2.8907,2.8019,2.7703,2.7571,2.6782,2.6499,2.6499,0.0,0.0,0.0,0.0,0.0,0.0,0.0,3.1511,3.1511,3.1511,3.1511,3.1582,3.1824,3.2906,3.3684,3.3912,3.4752,0.0,0.0,0.0,0.0,0.0,0.0,0.0,0.0,3.56,3.56,3.56,3.56,3.56,3.56,3.56,3.56,3.56,0.0,0.0,0.0,0.0,0.0,0.0,0.0,0.0,0.0,0.0,0.0,0.0,0.0,0.0,0.0,0.0,0.0,0.0,0.0,0.0,0.0,3.4823,3.4178,0.0,3.3531,3.3443,3.3339,3.3547,3.3443,3.3339,3.3556,3.3582,3.3582,3.3582,3.3582,3.3547,3.3313,3.3287,3.3209,3.2971,3.2944,3.2772,0.0,0.0,0.0,0.0,0.0,0.0,0.0,0.0,0.0,0.0,0.0,0.0,3.4128,3.3918,3.3535,3.2922,3.2295,3.1622,3.098,3.0776,3.0703,3.0703,3.0703,3.0703,3.0703,3.0703,3.0419,0.0,0.0,0.0,0.0,2.9002,2.9002,2.8971,2.8716,2.8588,2.8556,2.8298,2.8214,2.8214,0.0,0.0,0.0,0.0,0.0,0.0,0.0,3.1511,3.1511,3.1511,3.1511,3.1611,3.1881,3.2917,3.371,3.3962,3.4981,0.0,0.0,0.0,0.0,0.0,0.0,0.0,3.56,3.56,3.56,3.56,3.56,3.56,3.56,3.56,3.56,3.56,3.56,3.56,0.0,0.0,0.0,0.0,0.0,0.0,3.56,0.0,0.0,0.0,0.0,0.0,0.0,0.0,0.0,0.0,0.0,0.0,0.0,0.0,3.5005,3.435,0.0,3.4161,3.4037,3.4301,3.4161,0.0,0.0,3.435,3.435,3.435,3.435,3.4276,3.4012,3.3987,3.3887,3.3633,3.3582,0.0,0.0,0.0,0.0,0.0,0.0,0.0,0.0,0.0,0.0,0.0,0.0,0.0,3.3499,3.326,3.3125,3.3125,3.2721,3.2168,3.1511,3.1511,3.1511,3.1511,3.1511,3.1511,3.1511,3.1511,3.1219,0.0,0.0,0.0,0.0,2.995,2.995,2.9919,2.9597,2.9473,2.9442,2.9129,2.9002,2.9002,0.0,0.0,0.0,0.0,0.0,0.0,0.0,3.1511,3.1511,3.1511,3.1511,3.1768,3.252,3.3182,3.3862,3.4528,0.0,0.0,0.0,0.0,0.0,0.0,0.0,0.0,3.56,3.56,3.56,3.56,3.56,3.56,3.56,3.56,3.56,3.56,3.56,3.56,0.0,0.0,0.0,0.0,3.56,3.56,0.0,0.0,0.0,0.0,0.0,0.0,0.0,0.0,0.0,0.0,0.0,0.0,0.0,0.0,0.0,0.0,0.0,3.5161,3.4807,0.0,0.0,0.0,3.547,3.56,0.0,3.56,3.56,3.5407,3.4783,3.4688,3.4455,3.3836,0.0,0.0,0.0,0.0,0.0,0.0,0.0,0.0,0.0,0.0,0.0,0.0,0.0,0.0,3.3517,3.2916,3.257,3.257,3.257,3.2226,3.1511,3.1511,3.1511,3.1511,3.1511,3.1511,3.1511,3.1511,3.1511,0.0,0.0,0.0,0.0,3.1511,3.1511,3.1438,3.0673,3.0389,3.0299,2.9473,2.9192,2.9192,0.0,0.0,0.0,0.0,0.0,0.0,0.0,0.0,0.0,0.0,3.1511,3.1768,3.252,3.3182,3.3862,0.0,0.0,0.0,0.0,0.0,0.0,0.0,0.0,0.0,3.56,3.56,3.56,3.56,3.56,3.56,3.56,3.56,3.56,3.56,3.56,3.56,0.0,0.0,0.0,0.0,3.56,3.56,0.0,0.0,0.0,0.0,3.56,3.56,0.0,0.0,0.0,0.0,0.0,0.0,0.0,0.0,3.56,3.56,3.56,0.0,3.5385,3.5577,3.547,3.5407,0.0,3.56,3.56,3.56,0.0,3.5538,3.5385,3.5362,3.5316,0.0,0.0,0.0,0.0,0.0,0.0,0.0,0.0,0.0,0.0,0.0,0.0,0.0,0.0,3.3592,3.3592,3.3434,3.334,3.334,3.334,3.2753,3.1511,3.1511,3.1511,3.1511,3.1511,3.1511,3.1511,3.1511,3.1511,0.0,0.0,0.0,3.1511,3.1511,3.1511,3.1467,3.1278,3.1219,3.119,3.0999,3.0896,3.0896,0.0,0.0,0.0,0.0,0.0,0.0,0.0,0.0,0.0,0.0,0.0,3.2272,3.2986,3.3659,0.0,0.0,0.0,0.0,0.0,0.0,0.0,0.0,0.0,3.56,3.56,3.56,3.56,3.56,3.56,3.56,3.56,3.56,3.56,3.56,3.56,3.56,0.0,0.0,0.0,0.0,3.56,0.0,0.0,0.0,0.0,0.0,3.56,3.56,0.0,3.56,3.56,3.56,0.0,0.0,0.0,0.0,3.56,3.56,3.56,3.56,3.56,3.56,3.56,3.56,3.56,3.56,3.56,0.0,0.0,0.0,0.0,0.0,0.0,0.0,0.0,0.0,0.0,0.0,0.0,0.0,0.0,0.0,0.0,0.0,0.0,0.0,0.0,3.3582,3.3582,3.3582,3.3582,3.3582,3.3582,3.3219,3.2489,3.216,3.2007,3.2007,3.1668,3.1511,3.1511,3.1511,3.1511,0.0,0.0,0.0,3.1511,3.1511,3.1511,3.1511,3.1511,3.1511,3.1511,3.1511,3.1511,3.1511,0.0,0.0,0.0,0.0,0.0,0.0,0.0,0.0,0.0,0.0,0.0,0.0,0.0,0.0,0.0,0.0,0.0,0.0,0.0,0.0,0.0,0.0,3.56,3.56,3.56,3.56,3.56,3.56,3.56,3.56,3.56,3.56,3.56,3.56,3.56,3.56,0.0,0.0,0.0,0.0,3.56,0.0,0.0,0.0,0.0,0.0,0.0,0.0,0.0,3.5644,3.56,3.56,3.56,0.0,0.0,0.0,0.0,0.0,3.56,3.56,3.56,3.56,3.56,3.56,3.56,0.0,0.0,0.0,0.0,0.0,0.0,0.0,0.0,0.0,0.0,0.0,0.0,0.0,0.0,0.0,0.0,0.0,0.0,0.0,0.0,0.0,0.0,3.3928,3.3928,3.3928,3.3928,3.3928,3.3928,3.3928,3.3928,3.3145,3.2734,3.2749,3.2132,3.1809,3.1809,3.1809,3.1809,3.1809,0.0,0.0,3.1809,3.171,3.1668,3.1668,3.1524,3.1511,3.1511,3.1511,3.1511,3.1511,0.0,0.0,0.0,0.0,0.0,0.0,0.0,0.0,0.0,0.0,0.0,0.0,0.0,0.0,0.0,0.0,0.0,0.0,0.0,0.0,0.0,3.56,3.56,3.56,3.56,3.56,3.56,3.56,3.56,3.56,3.56,3.56,3.56,3.56,3.56,3.56,3.56,3.56,0.0,3.56,3.56,0.0,0.0,0.0,0.0,0.0,0.0,0.0,0.0,3.5761,3.56,3.56,3.56,0.0,0.0,0.0,0.0,0.0,3.56,3.56,3.56,3.56,3.56,3.56,3.56,3.56,0.0,0.0,0.0,0.0,0.0,0.0,0.0,0.0,0.0,0.0,0.0,0.0,0.0,0.0,0.0,0.0,0.0,0.0,0.0,0.0,0.0,0.0,3.5293,3.5293,3.5293,3.5293,3.5293,3.5293,3.5293,3.4078,3.3443,3.3443,3.3339,3.3287,3.3287,3.3287,3.3287,3.3287,0.0,3.3287,3.3235,3.2668,3.2437,3.2382,3.1739,3.1511,3.1511,3.1511,3.1511,3.1511,0.0,0.0,0.0,0.0,0.0,0.0,0.0,0.0,0.0,0.0,0.0,0.0,0.0,0.0,0.0,0.0,0.0,0.0,0.0,0.0,3.56,3.56,3.56,3.56,3.56,3.56,3.56,3.56,3.56,3.56,3.56,3.56,3.56,3.56,3.56,3.56,3.56,3.56,3.56,3.56,0.0,0.0,0.0,0.0,0.0,0.0,0.0,0.0,0.0,0.0,3.5832,3.56,3.56,0.0,0.0,0.0,0.0,0.0,3.5672,3.56,3.5672,3.5963,3.6032,3.6118,3.6399,3.6249,3.6032,0.0,0.0,0.0,0.0,0.0,0.0,0.0,0.0,0.0,0.0,0.0,0.0,0.0,0.0,0.0,0.0,0.0,0.0,0.0,0.0,0.0,3.56,3.56,3.56,3.56,3.56,3.56,3.56,3.4981,3.4496,3.4137,3.3761,3.3582,3.3582,3.3582,3.3582,3.3582,0.0,3.3582,3.3598,3.3261,3.3145,3.3119,3.2772,3.2637,3.2637,3.2637,3.2637,3.2637,0.0,0.0,0.0,0.0,0.0,0.0,0.0,0.0,0.0,0.0,0.0,0.0,0.0,0.0,0.0,0.0,0.0,0.0,0.0,3.56,3.56,3.56,3.56,3.56,3.56,3.56,3.56,3.56,3.56,3.56,3.56,3.56,3.56,3.56,3.56,3.56,3.56,3.56,3.5672,3.5783,0.0,0.0,0.0,0.0,0.0,0.0,0.0,0.0,0.0,0.0,0.0,0.0,0.0,0.0,0.0,3.5941,3.6182,3.6498,3.6097,3.5968,3.6101,3.6623,3.6563,3.6539,3.7095,3.6882,3.66,0.0,0.0,0.0,0.0,0.0,0.0,0.0,0.0,0.0,0.0,0.0,0.0,0.0,0.0,0.0,0.0,0.0,0.0,0.0,0.0,0.0,3.56,3.56,3.56,3.56,3.56,3.56,3.56,3.56,3.5339,3.4847,3.4309,3.4078,3.4078,3.4078,3.4078,3.4078,3.4078,3.4078,3.4053,3.3887,3.3836,3.3811,3.3659,3.3582,3.3582,3.3582,3.3582,3.3582,0.0,0.0,0.0,0.0,0.0,0.0,0.0,0.0,0.0,0.0,0.0,0.0,0.0,0.0,0.0,0.0,0.0,0.0,0.0,3.56,3.56,3.56,3.56,3.56,3.56,3.56,3.56,3.56,3.56,3.56,3.56,3.56,3.56,3.56,3.56,3.56,3.56,3.56,3.5876,3.6333,3.6333,0.0,0.0,0.0,0.0,0.0,0.0,0.0,0.0,0.0,0.0,0.0,0.0,0.0,3.7038,3.6498,3.6724,3.7116,3.7114,3.7078,3.7192,3.7667,3.7079,3.6539,3.7095,3.7154,0.0,3.7135,0.0,0.0,0.0,0.0,0.0,0.0,0.0,0.0,0.0,0.0,0.0,0.0,0.0,0.0,0.0,0.0,0.0,0.0,0.0,0.0,3.56,3.56,3.56,3.56,3.56,3.56,3.56,3.56,3.5577,3.5515,3.547,3.5447,3.5447,3.5447,3.5447,3.5447,3.5447,3.5447,3.5424,3.4783,3.4528,3.4455,3.3836,3.3582,3.3582,3.3582,3.3582,3.3582,0.0,0.0,0.0,0.0,0.0,0.0,0.0,0.0,0.0,0.0,0.0,0.0,0.0,0.0,0.0,0.0,0.0,0.0,0.0,3.56,3.56,3.56,3.56,3.56,3.56,3.56,3.56,3.56,3.56,3.56,3.56,3.56,3.5783,3.6097,3.6097,3.6291,3.6586,3.6586,3.6706,3.6902,3.6902,3.702,0.0,0.0,0.0,0.0,0.0,0.0,0.0,0.0,3.7433,3.7154,3.696,3.7248,3.7542,3.7039,3.7248,3.7578,3.7267,3.7209,3.7304,3.7772,3.7596,3.747,0.0,3.7878,3.7632,3.7632,3.7396,0.0,0.0,0.0,0.0,0.0,0.0,0.0,0.0,0.0,0.0,0.0,0.0,0.0,0.0,0.0,0.0,0.0,0.0,0.0,0.0,3.56,3.56,3.56,3.56,3.56,3.56,3.56,3.56,3.56,3.56,3.56,3.56,3.56,3.56,3.56,3.56,3.56,3.5577,3.5339,3.523,3.5207,3.4934,3.484,3.484,3.484,3.484,3.484,0.0,0.0,0.0,0.0,0.0,0.0,0.0,0.0,0.0,0.0,0.0,0.0,0.0,0.0,0.0,0.0,0.0,0.0,3.56,3.56,3.56,3.56,3.56,3.56,3.56,3.56,3.56,3.56,3.5783,3.5854,3.5871,3.6032,3.6312,3.6643,3.6643,3.6862,3.7209,3.7209,3.7285,3.7415,3.7415,3.7506,0.0,0.0,0.0,0.0,0.0,0.0,0.0,0.0,3.7947,3.7632,3.747,3.7755,3.8048,3.756,3.7773,3.8082,3.7773,3.7667,3.7738,3.8065,3.8148,0.0,3.8627,3.8433,3.8148,3.8148,3.7895,0.0,0.0,0.0,0.0,0.0,0.0,0.0,0.0,0.0,0.0,0.0,0.0,0.0,0.0,0.0,0.0,0.0,0.0,0.0,0.0,3.6118,3.6118,3.6118,3.5941,3.5854,3.5854,3.5672,3.56,3.56,3.56,3.56,3.56,3.56,3.56,3.56,3.56,3.56,3.56,3.56,3.56,3.56,3.56,3.56,3.56,3.56,3.56,3.56,0.0,0.0,0.0,0.0,0.0,0.0,0.0,0.0,0.0,0.0,0.0,0.0,0.0,0.0,0.0,0.0,0.0,0.0,3.56,3.56,3.56,3.56,3.56,3.56,3.56,3.56,3.5622,3.5622,3.6139,3.6395,3.6416,3.696,3.7192,3.7209,3.7209,3.7209,3.721,3.721,3.7488,3.7893,3.7893,3.8234,3.8707,0.0,0.0,0.0,0.0,0.0,0.0,0.0,3.8707,3.8611,3.8082,3.8267,3.8611,3.8065,3.8283,3.8707,3.8707,3.8707,3.8707,0.0,0.0,0.0,3.8707,3.8707,3.8707,3.8707,0.0,3.8707,3.8707,0.0,0.0,0.0,0.0,0.0,0.0,0.0,0.0,0.0,0.0,0.0,0.0,0.0,0.0,0.0,0.0,0.0,0.0,3.7209,3.7209,3.7209,3.6684,3.6395,3.6395,3.5876,3.5622,3.5622,3.5622,3.5622,3.56,3.56,3.56,3.56,3.56,3.56,3.56,3.56,3.56,3.56,3.56,3.56,3.56,3.56,3.56,3.56,0.0,0.0,0.0,0.0,0.0,0.0,0.0,0.0,0.0,0.0,0.0,0.0,0.0,0.0,0.0,0.0,0.0,0.0,3.56,3.56,3.56,3.56,3.56,3.56,3.56,3.5985,3.6161,3.6161,3.6704,3.6962,3.698,3.7133,3.7378,3.7685,3.7685,3.7912,3.8252,3.8252,3.8334,3.8465,3.8465,3.8562,3.8707,0.0,0.0,0.0,0.0,0.0,0.0,0.0,0.0,0.0,3.8512,3.8562,3.8658,3.8496,3.8596,3.8707,3.8707,3.8707,0.0,3.8707,0.0,0.0,0.0,3.8707,0.0,0.0,3.8707,3.8707,0.0,0.0,0.0,0.0,0.0,0.0,0.0,0.0,0.0,0.0,0.0,0.0,0.0,0.0,0.0,0.0,0.0,0.0,0.0,3.7209,3.7209,3.7209,3.7057,3.6962,3.6962,3.6805,3.6744,3.6744,3.6744,3.6316,3.56,3.56,3.56,3.56,3.56,3.56,3.56,3.56,3.56,3.56,3.56,3.56,3.56,3.56,3.56,3.56,0.0,0.0,0.0,0.0,0.0,0.0,0.0,0.0,0.0,0.0,3.3977,3.4675,0.0,0.0,0.0,0.0,0.0,0.0,0.0,3.6512,3.6512,3.6512,3.6512,3.6383,3.6079,3.6488,3.6724,3.6724,3.7229,3.7488,3.7488,3.7703,3.7947,3.8216,3.8216,3.8399,3.8707,3.8707,3.8707,3.8707,3.8707,3.8707,3.8707,0.0,0.0,0.0,0.0,0.0,0.0,0.0,0.0,0.0,3.8707,3.8707,3.8707,3.8707,3.8707,3.8707,3.8707,3.8707,0.0,3.8707,3.8707,3.8707,3.8707,0.0,0.0,0.0,0.0,0.0,0.0,0.0,0.0,0.0,0.0,0.0,0.0,0.0,0.0,0.0,0.0,0.0,0.0,0.0,0.0,0.0,0.0,0.0,0.0,3.7791,3.7791,3.7791,3.7596,3.7488,3.7488,3.7285,3.7209,3.7209,3.7209,3.6865,3.6249,3.6249,3.6249,3.6249,3.6249,3.6101,3.592,3.592,3.5805,3.56,3.56,3.56,3.56,3.56,3.56,3.56,0.0,0.0,0.0,0.0,0.0,0.0,0.0,0.0,0.0,0.0,3.5224,3.5964,0.0,0.0,0.0,0.0,0.0,0.0,0.0,3.7905,3.7905,3.7905,3.7905,3.7574,3.6881,3.7155,3.7281,3.7267,3.7737,3.798,3.798,3.8465,3.8707,3.8707,3.8707,3.8707,3.8707,3.8707,3.8707,3.8707,3.8707,3.8707,3.8707,3.8707,0.0,0.0,0.0,0.0,0.0,0.0,0.0,0.0,3.8707,3.8707,3.8707,3.8707,3.8707,3.8707,3.8707,3.8707,0.0,3.8707,3.8707,0.0,3.8707,0.0,0.0,0.0,0.0,0.0,0.0,0.0,0.0,0.0,0.0,0.0,0.0,0.0,0.0,0.0,0.0,0.0,0.0,0.0,0.0,0.0,0.0,0.0,0.0,3.8707,3.8707,3.8707,3.8234,3.798,3.798,3.7542,3.734,3.734,3.734,3.734,3.734,3.7229,3.7209,3.7209,3.7209,3.6921,3.6478,3.6478,3.6203,3.5761,3.5761,3.5761,3.5761,3.5761,3.5761,3.5739,0.0,0.0,0.0,0.0,0.0,0.0,0.0,0.0,0.0,0.0,0.0,0.0,0.0,0.0,0.0,0.0,0.0,0.0,0.0,3.7905,3.7905,3.7905,3.7905,3.7727,3.7361,3.7825,3.7963,3.7755,3.8267,3.853,3.853,3.8643,3.8707,3.8707,3.8707,3.8707,3.8707,3.8707,3.8707,3.8707,3.8707,3.8707,3.8707,3.8707,3.8707,0.0,0.0,0.0,0.0,0.0,0.0,0.0,3.8707,3.8707,3.8707,3.8707,3.8707,3.8707,3.8707,3.8707,0.0,0.0,3.8707,3.8707,3.8707,0.0,0.0,0.0,0.0,0.0,0.0,0.0,0.0,0.0,0.0,0.0,0.0,0.0,0.0,0.0,0.0,0.0,0.0,0.0,0.0,0.0,0.0,0.0,3.8707,3.8707,3.8707,3.8707,3.8578,3.853,3.853,3.8433,3.8385,0.0,3.8385,3.8385,3.8352,3.756,3.7209,3.7209,3.7209,3.7116,3.7038,3.7038,3.6962,3.6845,3.6845,3.6845,3.6845,3.6845,3.6845,3.6803,0.0,0.0,0.0,0.0,0.0,0.0,0.0,0.0,0.0,0.0,0.0,0.0,0.0,0.0,0.0,0.0,0.0,0.0,0.0,0.0,3.8937,3.8937,3.8853,3.8751,3.8594,3.9027,3.8994,3.847,3.9015,3.9074,3.8707,3.8707,3.8707,3.8707,3.8707,3.8707,3.8707,3.8707,3.8707,3.8707,3.8707,3.8707,3.8707,3.8707,3.8707,3.8707,3.8707,0.0,0.0,0.0,0.0,0.0,0.0,0.0,3.8719,3.884,3.888,3.888,3.888,0.0,0.0,3.8735,0.0,3.8707,3.8707,0.0,0.0,0.0,0.0,0.0,0.0,0.0,0.0,0.0,0.0,0.0,0.0,0.0,0.0,0.0,0.0,0.0,0.0,0.0,0.0,0.0,0.0,3.8707,3.8707,3.8707,3.8707,3.8707,3.8707,3.8707,3.8707,3.8707,3.8707,3.8707,3.8707,3.8707,3.8692,3.8152,3.793,3.793,3.793,3.7755,3.7542,3.7542,3.7396,3.7209,3.7209,3.7209,3.7209,3.7209,3.7209,3.7154,0.0,0.0,0.0,0.0,0.0,0.0,0.0,0.0,0.0,0.0,0.0,0.0,0.0,0.0,0.0,0.0,0.0,0.0,0.0,0.0,0.0,4.0096,3.9945,3.9864,3.9951,4.0206,3.9987,3.9241,3.9685,3.9478,3.8707,3.8707,3.8707,3.8707,3.8707,3.8707,3.8707,3.8707,3.8707,3.8707,3.8707,3.8707,3.8707,3.8707,3.8707,3.8707,3.8707,3.8707,3.8707,3.8707,0.0,0.0,0.0,0.0,3.8888,3.9049,3.9133,3.9192,3.9192,0.0,3.9117,3.8792,3.8735,0.0,3.8704,0.0,0.0,0.0,0.0,0.0,0.0,0.0,0.0,0.0,0.0,0.0,0.0,0.0,0.0,0.0,0.0,0.0,0.0,0.0,0.0,0.0,0.0,3.8707,3.8707,3.8707,3.8707,3.8707,3.8707,3.8707,3.8707,3.8707,3.8707,3.8707,3.8707,3.8707,3.8707,3.8707,3.8707,3.8707,3.8707,3.8449,3.8048,3.8048,3.7808,3.7469,3.7469,3.7469,3.7469,3.7469,3.7469,3.7451,0.0,0.0,0.0,0.0,0.0,0.0,0.0,0.0,0.0,0.0,3.7308,0.0,0.0,0.0,0.0,0.0,0.0,0.0,4.0096,0.0,0.0,4.0096,4.0069,4.0195,4.0489,4.0533,4.0321,3.9784,3.9866,3.9478,3.8707,3.8707,3.8707,3.8707,3.8707,3.8707,3.8707,3.8707,3.8707,3.8707,3.8707,3.8707,3.8707,3.8707,3.8707,3.8707,3.8707,3.8707,3.8707,3.8707,3.884,0.0,0.0,0.0,3.9432,3.916,3.9302,3.9541,3.9541,0.0,3.9396,0.0,3.8884,3.8985,0.0,0.0,0.0,0.0,0.0,0.0,0.0,0.0,0.0,0.0,0.0,0.0,0.0,0.0,0.0,0.0,0.0,0.0,0.0,0.0,0.0,0.0,3.8707,3.8707,3.8707,3.8707,3.8707,3.8707,3.8707,3.8707,3.8707,3.8707,3.8707,3.8707,3.8707,3.8707,3.8707,3.8707,3.8707,3.8707,3.8707,3.8658,3.8578,3.8578,3.8546,3.8499,3.8499,3.8499,3.8499,3.8499,3.8499,3.8433,0.0,0.0,0.0,0.0,0.0,0.0,0.0,0.0,0.0,0.0,0.0,3.8092,0.0,0.0,0.0,4.0096,4.0096,4.0096,4.0096,4.0096,4.0096,4.0096,4.0392,4.0782,4.1273,4.1584,4.1593,4.124,4.0799,4.0157,3.935,3.8909,3.8707,3.8707,3.8707,3.8707,3.8707,3.8707,3.8707,3.8707,3.8707,3.8707,3.8707,3.8707,3.8707,3.8707,3.8707,0.0,3.8707,3.8707,3.8884,3.9085,3.8961,0.0,0.0,0.0,3.9765,3.988,3.988,3.9735,3.9529,0.0,3.9301,3.9358,3.9229,0.0,0.0,0.0,0.0,0.0,0.0,0.0,0.0,0.0,0.0,0.0,0.0,0.0,0.0,0.0,0.0,0.0,0.0,0.0,0.0,0.0,3.8707,3.8707,3.8707,3.8707,3.8707,3.8707,3.8707,3.8707,3.8707,3.8707,3.8707,3.8707,3.8707,3.8707,3.8707,3.8707,3.8707,3.8707,3.8707,3.8707,3.8707,3.8707,3.8707,3.8707,3.8707,3.8707,3.8707,3.8707,3.8707,3.8676,0.0,0.0,0.0,0.0,0.0,0.0,0.0,0.0,0.0,0.0,0.0,0.0,0.0,0.0,0.0,0.0,4.0096,4.0096,4.0096,4.0096,4.0096,4.0096,4.0473,4.0967,4.1556,4.2162,4.2353,4.2079,4.1614,4.0891,3.9882,3.9294,3.8909,3.8707,3.8707,3.8707,3.8707,3.8707,3.8707,3.8707,3.8707,3.8707,3.8707,3.8707,3.8732,3.8803,3.8803,0.0,0.0,0.0,0.0,0.0,0.0,0.0,0.0,0.0,0.0,0.0,0.0,0.0,3.9789,3.9645,3.9656,3.9701,0.0,0.0,0.0,0.0,0.0,0.0,0.0,0.0,0.0,0.0,0.0,0.0,0.0,0.0,0.0,0.0,0.0,0.0,0.0,0.0,0.0,0.0,3.8707,3.8707,3.8707,3.8707,3.8707,3.8707,3.8707,3.8707,3.8707,3.8707,3.8707,3.8707,3.8707,3.8707,3.8707,3.8707,3.8707,3.8707,3.8707,3.8707,3.8707,3.8707,3.8707,3.8707,3.8707,3.8707,3.8707,3.8707,3.8707,3.8707,0.0,0.0,0.0,0.0,0.0,0.0,0.0,0.0,0.0,0.0,0.0,0.0,3.8908,3.961,4.0096,4.0096,4.0096,4.0096,4.0096,4.0096,4.0096,4.0096,4.0121,0.0,4.0926,4.1534,4.1731,4.1449,4.1972,4.1442,3.99,3.9845,3.9423,3.8707,3.8707,3.8707,3.8707,3.8707,3.8707,3.8707,3.8707,3.8707,3.8707,3.8707,0.0,0.0,0.0,0.0,0.0,0.0,0.0,0.0,0.0,0.0,4.0406,0.0,0.0,0.0,0.0,4.0267,0.0,3.9746,3.9829,0.0,0.0,0.0,0.0,0.0,0.0,0.0,0.0,0.0,0.0,0.0,0.0,0.0,0.0,0.0,0.0,0.0,0.0,0.0,0.0,0.0,0.0,0.0,3.8707,3.8707,3.8707,3.8707,3.8707,3.8707,3.8707,3.8707,3.8707,3.8707,3.8707,3.8707,3.8707,3.8707,3.8707,3.8707,3.8707,3.8707,3.8707,3.8707,3.8707,3.8707,3.8707,3.8707,3.8707,3.8707,3.8707,3.8707,3.8707,3.8707,0.0,0.0,0.0,0.0,0.0,0.0,0.0,0.0,0.0,0.0,0.0,0.0,0.0,3.961,4.0096,4.0096,4.0096,4.0096,4.0096,4.0096,4.0096,4.0096,4.0441,4.0874,4.1468,4.208,4.2512,4.2758,4.244,4.1735,4.0671,4.0139,3.946,3.8707,3.8707,3.8707,3.8707,3.8707,3.8707,3.8707,0.0,0.0,0.0,0.0,0.0,0.0,0.0,0.0,0.0,0.0,0.0,0.0,0.0,4.0185,4.0481,4.0381,4.0414,0.0,0.0,0.0,0.0,4.0239,4.0276,0.0,0.0,0.0,0.0,0.0,0.0,0.0,0.0,0.0,0.0,0.0,0.0,0.0,0.0,0.0,0.0,0.0,0.0,0.0,0.0,0.0,0.0,0.0,0.0,3.8707,3.8707,3.8707,3.8707,3.8707,3.8707,3.8707,3.8707,3.8707,3.8707,3.8707,3.8707,3.8707,3.8707,3.8707,3.8707,3.8707,3.8707,3.8707,3.8707,3.8707,3.8707,3.8707,3.8707,3.8707,3.8707,3.8707,3.8707,3.8707,0.0,0.0,0.0,0.0,0.0,0.0,0.0,0.0,0.0,3.8149,0.0,0.0,0.0,0.0,4.0096,4.0096,4.0096,4.0096,4.0096,4.0096,4.0096,4.0096,4.0424,4.0897,4.149,4.1813,4.2385,4.3232,4.2622,4.1901,4.1095,4.0561,3.9735,3.8707,3.8707,3.8707,3.8707,3.8707,0.0,3.8707,0.0,0.0,3.8735,0.0,0.0,0.0,0.0,0.0,0.0,0.0,0.0,0.0,0.0,4.0356,4.0496,4.0496,4.0496,0.0,4.0496,0.0,0.0,0.0,0.0,0.0,0.0,0.0,0.0,0.0,0.0,0.0,0.0,0.0,0.0,0.0,0.0,0.0,0.0,0.0,0.0,0.0,0.0,0.0,0.0,0.0,0.0,0.0,0.0,0.0,3.8707,3.8707,3.8707,3.8707,3.8707,3.8707,3.8707,3.8707,3.8707,3.8707,3.8707,3.8707,3.8707,3.8707,3.8707,3.8707,3.8707,3.8707,3.8707,3.8707,3.8707,3.8707,3.8707,3.8707,3.8707,3.8707,3.8707,3.8707,0.0,0.0,0.0,0.0,0.0,0.0,0.0,0.0,3.8104,3.8854,0.0,0.0,0.0,0.0,0.0,4.0096,4.0096,4.0096,4.0096,4.0121,4.0121,4.0121,4.0171,4.0417,4.0949,4.0791,4.1352,4.2713,4.2465,4.1919,4.1095,4.1095,4.0233,3.8707,3.8707,3.8707,3.8707,0.0,3.8707,3.8707,0.0,3.8707,3.8735,0.0,0.0,0.0,3.9982,4.0267,0.0,0.0,0.0,0.0,0.0,4.0496,4.0496,4.0496,4.0496,0.0,0.0,0.0,0.0,0.0,0.0,0.0,0.0,0.0,0.0,0.0,0.0,0.0,0.0,0.0,0.0,0.0,0.0,0.0,0.0,0.0,0.0,0.0,0.0,0.0,0.0,0.0,0.0,0.0,3.8738,3.8719,3.8704,3.8707,3.8707,3.8707,3.8707,3.8707,3.8707,3.8707,3.8707,3.8707,3.8707,3.8707,3.8707,3.8707,3.8707,3.8707,3.8707,3.8707,3.8707,3.8707,3.8707,3.8707,3.8707,3.8707,3.8707,3.8707,3.8707,3.8707,0.0,0.0,0.0,0.0,0.0,3.8032,3.8213,3.8951,3.9532,0.0,0.0,0.0,4.0096,4.0096,4.0096,4.0096,4.0096,4.0096,4.0096,4.0473,4.0679,4.0679,4.1508,4.2038,4.2203,4.2535,4.2905,4.3268,4.3207,4.2451,4.1095,4.1095,4.0233,3.8707,3.8707,3.8707,3.8707,3.8707,0.0,3.8707,3.8707,3.8707,0.0,0.0,0.0,0.0,0.0,4.0267,4.0496,0.0,4.0496,4.0496,0.0,0.0,0.0,4.0496,0.0,0.0,4.0496,0.0,0.0,0.0,0.0,0.0,0.0,0.0,0.0,0.0,0.0,0.0,0.0,0.0,0.0,0.0,0.0,0.0,0.0,0.0,0.0,0.0,0.0,0.0,0.0,0.0,0.0,0.0,3.9352,3.9236,3.8999,3.8803,3.8707,3.8707,3.8707,3.8707,3.8707,3.8707,3.8707,3.8707,3.8707,3.8707,3.8707,3.8707,3.8707,3.8707,3.8707,3.8707,3.8707,3.8707,3.8707,3.8707,3.8707,3.8707,3.8707,3.8707,3.8707,3.8707,0.0,0.0,0.0,0.0,0.0,3.8553,3.8854,3.9289,3.9731,0.0,0.0,0.0,4.0096,4.0096,4.0096,4.0096,4.0096,4.0096,4.0096,4.0392,4.0655,4.088,4.1578,4.2183,4.2692,4.265,4.2902,4.3515,4.3149,4.2359,4.1095,4.1095,4.0233,3.8707,3.8707,3.8707,3.8707,0.0,0.0,0.0,3.8707,0.0,0.0,3.8999,3.9302,0.0,0.0,0.0,4.0496,4.0496,4.0496,0.0,0.0,0.0,0.0,0.0,0.0,0.0,0.0,0.0,0.0,0.0,0.0,0.0,4.0496,4.0496,0.0,0.0,0.0,0.0,0.0,0.0,0.0,0.0,0.0,0.0,0.0,0.0,0.0,0.0,0.0,0.0,0.0,3.9808,3.9754,3.9611,3.9599,3.9498,3.9314,3.9163,3.9078,3.9078,3.9078,3.9008,3.8869,3.9008,3.9008,3.8869,3.9008,3.9078,3.9078,3.8942,3.8937,3.9078,3.8942,3.8956,3.9064,3.8909,3.8803,3.8707,3.8707,3.8707,3.8707,3.8707,3.8707,3.8707,0.0,0.0,3.795,3.8035,3.8064,3.829,3.8935,3.9016,3.9289,0.0,4.0096,4.0096,4.0096,4.0096,4.0096,4.0096,4.0146,4.0179,4.0179,4.0311,4.0594,4.1087,4.1161,4.169,4.2769,4.2029,4.225,4.3515,4.2782,4.1992,4.1095,4.1095,4.0233,3.8707,3.8707,0.0,0.0,0.0,0.0,3.8707,3.8707,3.8707,0.0,0.0,3.9282,0.0,3.9932,4.0241,4.0496,4.0496,4.0496,0.0,0.0,0.0,0.0,0.0,4.0496,0.0,0.0,0.0,0.0,0.0,0.0,0.0,4.0496,4.0496,4.0496,0.0,0.0,0.0,0.0,0.0,0.0,0.0,0.0,0.0,0.0,0.0,0.0,0.0,0.0,0.0,4.0167,4.0139,4.0032,3.9724,3.9668,3.9656,3.9656,3.9622,3.9599,3.9599,3.9599,3.9469,3.9165,3.9438,3.9438,3.9165,3.945,3.9599,3.9599,3.9289,3.9314,3.9587,3.9276,3.9314,3.9576,3.9276,3.8985,3.8732,3.8704,3.8707,3.8707,3.8707,3.8707,3.8707,0.0,3.869,3.8897,3.9532,3.9653,3.9705,3.9833,3.9876,3.9927,4.007,4.0096,4.0096,4.0096,4.0096,4.0096,4.0096,4.048,4.0733,4.0733,4.166,4.2241,4.2342,4.2753,4.3105,4.3339,4.3192,4.3209,4.3515,4.3332,4.2525,4.1095,4.1095,4.0233,3.8707,3.8707,3.8707,0.0,0.0,0.0,3.8707,3.8707,0.0,3.8707,3.8762,3.9127,3.9611,3.9668,4.0034,4.0496,0.0,4.0496,4.0496,0.0,0.0,0.0,0.0,0.0,0.0,0.0,0.0,0.0,0.0,0.0,0.0,4.0496,4.0496,4.0496,0.0,0.0,0.0,0.0,0.0,0.0,0.0,0.0,0.0,0.0,0.0,0.0,0.0,0.0,0.0,4.0433,4.0414,4.0397,4.0336,4.0129,4.0002,4.0002,3.9754,3.9599,3.9599,3.9599,3.9576,3.9498,3.9576,3.9576,3.9498,3.9576,3.9599,3.9599,3.9541,3.9541,3.9599,3.9541,3.9541,3.9599,3.9541,3.932,3.8999,3.8773,3.8707,3.8707,3.8707,3.8707,3.8707,3.9358,3.9489,3.9728,4.051,4.0646,4.0764,4.1145,4.1213,4.1213,4.1213,4.0891,4.0493,4.0146,4.0096,4.0096,4.0096,4.0601,4.0903,4.0903,4.175,4.24,4.2692,4.2958,4.3232,4.3479,4.3515,4.3515,4.3515,4.3515,4.2671,4.1095,4.1095,4.0233,3.8707,3.8707,3.8707,0.0,0.0,3.8707,3.8707,3.8707,0.0,3.8707,3.8707,3.9059,3.9599,3.9599,3.9994,4.0496,4.0496,4.0496,0.0,0.0,4.0496,4.0496,0.0,4.0496,4.0496,0.0,0.0,0.0,4.0496,0.0,0.0,0.0,4.0496,4.0496,4.0496,0.0,0.0,0.0,0.0,0.0,0.0,0.0,0.0,0.0,0.0,0.0,0.0,0.0,0.0,4.0496,4.0496,4.0496,4.0496,4.0372,4.0304,4.0304,4.0138,4.0053,4.0053,4.0053,3.9984,3.984,3.9984,3.9984,3.984,3.9984,4.0053,4.0043,3.9903,3.9913,4.0043,3.9903,3.9924,4.0034,3.9903,3.9754,3.9564,3.9268,3.9154,3.9154,3.9154,3.9154,3.9127,4.0417,4.0519,4.0722,4.1305,4.1407,4.161,4.2202,4.2286,4.2236,4.21,4.1576,4.0968,4.0322,4.0237,4.0286,4.0434,4.092,4.1246,4.1246,4.1814,4.2344,4.2845,4.2864,4.305,4.3479,4.3515,4.3515,4.3515,4.3515,4.2671,4.1095,4.1095,4.0233,3.8707,3.8707,3.8707,0.0,0.0,0.0,3.8707,0.0,3.8707,3.8707,3.8762,3.9087,3.9529,3.9645,4.0034,4.0496,4.0496,0.0,4.0496,4.0496,4.0496,0.0,0.0,0.0,0.0,0.0,0.0,0.0,0.0,0.0,4.0496,0.0,0.0,0.0,4.0496,0.0,0.0,0.0,0.0,0.0,0.0,0.0,0.0,0.0,0.0,0.0,0.0,0.0,0.0,0.0,4.0496,4.0496,4.0496,4.0496,4.0496,4.0496,4.0496,4.0496,4.0496,4.0496,4.0389,4.0177,4.0389,4.0389,4.0177,4.0389,4.0496,4.0489,4.0286,4.0304,4.0489,4.0258,4.0304,4.0481,4.0278,4.0177,4.0148,3.9746,3.9599,3.9599,3.9599,3.9599,3.9564,4.2033,4.2033,4.2066,4.2151,4.2168,4.2202,4.2286,4.2286,4.2066,4.1407,4.1255,4.1112,4.0843,4.0803,0.0,0.0,0.0,0.0,4.25,0.0,4.3339,4.341,4.341,4.3427,4.3515,4.3515,4.3515,4.3515,4.3515,4.2671,4.1095,4.1095,4.0233,3.8707,3.8707,0.0,0.0,0.0,3.8707,0.0,3.8707,3.8707,0.0,3.8957,3.9099,3.9225,3.9819,4.0241,4.0496,0.0,4.0496,4.0496,0.0,4.0496,0.0,0.0,0.0,0.0,0.0,0.0,0.0,0.0,4.0496,0.0,0.0,0.0,4.0496,4.0496,0.0,0.0,0.0,0.0,0.0,0.0,0.0,0.0,0.0,0.0,0.0,0.0,0.0,0.0,0.0,4.0496,4.0496,4.0496,4.0496,4.0496,4.0496,4.0496,4.0496,4.0496,4.0496,4.0481,4.0457,4.0481,4.0481,4.0457,4.0481,4.0496,4.0496,4.0473,4.0473,4.0496,4.0473,4.0473,4.0496,4.0473,4.0457,4.0397,3.9821,3.9599,3.9599,3.9599,3.9599,3.9599,4.2371,4.2286,4.2422,4.2861,4.2946,4.3098,4.3555,4.3633,4.321,4.1999,4.183,4.1477,0.0,0.0,0.0,0.0,0.0,4.2711,0.0,0.0,4.3515,4.3515,4.3515,0.0,4.3515,4.3515,4.3515,4.3515,4.3515,4.2671,4.1095,4.1095,4.0233,3.8707,3.8707,0.0,3.8707,0.0,3.8707,0.0,0.0,0.0,0.0,3.8999,3.9212,3.945,3.9922,4.0167,4.0285,0.0,4.0496,0.0,0.0,0.0,0.0,0.0,0.0,0.0,0.0,0.0,0.0,0.0,0.0,0.0,4.0496,0.0,4.0496,0.0,0.0,0.0,0.0,0.0,0.0,0.0,4.0285,0.0,0.0,0.0,0.0,0.0,0.0,0.0,0.0,0.0,0.0,0.0,4.0496,4.0496,4.0496,4.0496,4.0496,4.0496,4.0496,4.0496,4.0496,4.0496,4.0496,4.0496,4.0496,4.0496,4.0496,4.0496,4.0496,4.0496,4.0496,4.0496,4.0496,4.0496,4.0496,4.0481,4.0211,4.011,4.011,4.011,4.011,4.011,4.3031,0.0,0.0,4.3639,4.3741,4.3927,4.4513,4.4615,4.4056,4.2489,4.2428,0.0,4.0717,4.1059,0.0,0.0,4.2424,4.292,0.0,0.0,4.3515,0.0,0.0,0.0,0.0,4.3515,4.3515,4.3515,4.3277,4.2451,4.1095,4.0857,4.0029,3.8707,0.0,3.8707,3.8707,0.0,0.0,3.8707,3.8707,3.8732,3.8829,3.9022,3.9302,3.9634,3.988,4.0022,4.0129,4.033,4.0449,0.0,4.0496,0.0,0.0,0.0,0.0,0.0,4.0496,0.0,0.0,0.0,0.0,0.0,0.0,0.0,0.0,0.0,0.0,0.0,0.0,0.0,0.0,0.0,0.0,0.0,0.0,0.0,0.0,0.0,0.0,0.0,0.0,0.0,0.0,4.0496,4.0496,4.0496,4.0496,4.0496,4.0496,4.0496,4.0496,4.0496,4.0496,4.0496,4.0496,4.0496,4.0496,4.0496,4.0496,4.0496,4.0496,4.0496,4.0496,4.0496,4.0496,4.0496,4.0496,4.0496,4.0496,4.0496,4.0496,4.0496,4.0496,4.0473,4.453,4.453,0.0,0.0,4.4564,4.4581,4.4615,4.4615,4.4056,4.2489,0.0,0.0,0.0,0.0,0.0,0.0,0.0,4.3462,4.3462,0.0,4.3515,0.0,0.0,4.3515,0.0,0.0,0.0,4.3515,4.2708,4.1919,4.1077,4.0304,3.9496,3.8707,3.8707,3.8707,3.8707,3.8707,3.8707,3.8707,3.8707,3.8873,3.9085,0.0,3.9302,3.9599,3.9611,0.0,0.0,4.011,4.0295,0.0,0.0,0.0,0.0,0.0,0.0,0.0,0.0,0.0,0.0,4.0496,0.0,0.0,0.0,0.0,4.0496,0.0,0.0,0.0,0.0,0.0,0.0,0.0,0.0,0.0,0.0,0.0,0.0,0.0,0.0,0.0,0.0,0.0,0.0,4.0496,4.0496,4.0496,4.0496,4.0496,4.0496,4.0496,4.0496,4.0496,4.0496,4.0496,4.0496,4.0496,4.0496,4.0496,4.0496,4.0496,4.0496,4.0496,4.0496,4.0496,4.0496,4.0496,4.0496,4.0496,4.0496,4.0496,4.0496,4.0496,4.0496,4.0496,0.0,0.0,0.0,0.0,0.0,4.4615,4.4615,4.4615,4.4177,0.0,0.0,0.0,0.0,4.2342,4.2769,0.0,0.0,4.3515,4.3515,4.3515,0.0,0.0,0.0,4.3515,0.0,0.0,0.0,0.0,4.269,4.1901,4.1077,4.0286,3.946,3.8707,3.8707,3.8707,0.0,0.0,0.0,0.0,0.0,3.8747,3.8844,0.0,0.0,3.9264,3.9264,3.9339,0.0,3.969,3.9983,4.0251,4.0251,4.0356,4.0496,4.0496,4.0496,0.0,0.0,0.0,4.0496,4.0496,0.0,0.0,0.0,0.0,0.0,0.0,0.0,0.0,0.0,0.0,0.0,0.0,0.0,0.0,0.0,0.0,0.0,0.0,0.0,0.0,0.0,0.0,0.0,4.0496,4.0496,4.0496,4.0496,4.0496,4.0496,4.0496,4.0496,4.0496,4.0496,4.0496,4.0496,4.0496,4.0496,4.0496,4.0496,4.0496,4.0496,4.0496,4.0496,4.0496,4.0496,4.0496,4.0496,4.0496,4.0496,4.0496,4.0496,4.0496,4.0496,4.0496,4.4615,0.0,0.0,0.0,0.0,4.4615,4.4615,0.0,0.0,0.0,4.3318,0.0,4.2205,0.0,4.2976,0.0,4.3303,4.3515,4.3515,4.3515,0.0,4.3515,4.3515,0.0,0.0,0.0,0.0,0.0,0.0,4.1625,4.1077,3.9974,3.9203,3.8707,3.8707,3.8707,3.8707,0.0,3.8707,0.0,0.0,3.8707,0.0,0.0,3.8818,3.8957,0.0,3.9112,3.912,3.9339,3.9645,3.9922,3.9922,4.012,4.0356,4.0356,4.0433,4.0496,4.0496,4.0496,0.0,4.0496,4.0496,0.0,4.0496,0.0,0.0,0.0,0.0,0.0,0.0,0.0,0.0,0.0,0.0,0.0,0.0,4.0496,0.0,0.0,0.0,0.0,0.0,0.0,4.0496,4.0496,4.0496,4.0496,0.0,0.0,4.0496,4.0496,4.0496,4.0496,4.0496,4.0496,4.0496,4.0496,4.0496,4.0496,4.0496,4.0496,4.0496,4.0496,4.0496,4.0496,4.0496,4.0496,4.0496,4.0496,4.0496,4.0496,4.0496,4.0496,4.0496,4.0496,0.0,0.0,0.0,0.0,4.4654,0.0,0.0,0.0,4.4083,0.0,4.3584,4.352,4.2821,4.3196,4.3515,4.3515,4.3515,0.0,4.3515,4.3515,0.0,0.0,4.3515,4.3515,4.3515,0.0,0.0,0.0,0.0,4.1077,4.1003,3.9441,3.8707,3.8707,3.8707,0.0,3.8707,3.8707,3.8707,3.8707,3.8707,3.8707,3.8707,3.8707,3.8707,3.8735,3.8985,3.9085,3.9085,3.9085,3.9289,3.9576,3.9576,3.9808,4.0081,4.0091,4.0286,4.0481,4.0496,4.0496,4.0496,4.0496,0.0,0.0,0.0,0.0,4.0496,0.0,0.0,0.0,0.0,0.0,0.0,0.0,0.0,0.0,0.0,0.0,0.0,0.0,0.0,0.0,0.0,4.0496,4.0496,4.0496,4.0496,4.0496,0.0,0.0,4.0496,4.0496,4.0496,4.0496,4.0496,4.0496,4.0496,4.0496,4.0496,4.0496,4.0496,4.0496,4.0496,4.0496,4.0496,4.0496,4.0496,4.0496,4.0496,4.0496,4.0496,4.0496,4.0496,4.0496,4.0496,4.0496,4.4615,4.4615,4.4748,0.0,4.5267,4.5407,0.0,0.0,0.0,0.0,4.4112,4.3657,4.3341,4.341,4.3515,4.3515,4.3515,0.0,0.0,0.0,0.0,4.3515,4.3515,4.3515,4.3515,4.3515,0.0,4.2598,0.0,0.0,4.0194,3.9166,3.8707,3.8707,0.0,0.0,3.8707,3.8707,3.8707,3.8707,3.8707,3.8707,0.0,0.0,3.8707,3.8723,3.8792,3.8803,3.8803,3.8803,3.899,3.9225,3.9225,3.945,3.9775,4.0022,4.0148,4.026,4.0449,4.0496,4.0496,4.0496,4.0496,4.0496,0.0,0.0,0.0,0.0,0.0,0.0,0.0,0.0,0.0,0.0,0.0,0.0,0.0,0.0,0.0,0.0,0.0,0.0,0.0,4.0496,4.0496,4.0496,4.0496,4.0496,4.0496,0.0,0.0,4.0496,4.0496,4.0496,4.0496,4.0496,4.0496,4.0496,4.0496,4.0496,4.0496,4.0496,4.0496,4.0496,4.0496,4.0496,4.0496,4.0496,4.0496,4.0496,4.0496,4.0496,4.0496,4.0496,4.0496,4.0496,4.4615,0.0,0.0,4.6161,0.0,0.0,4.5923,4.5729,0.0,4.5068,4.484,0.0,4.4563,4.4544,4.4544,4.4544,4.4232,0.0,4.4011,0.0,0.0,4.3515,4.3515,4.3515,4.3515,4.3515,0.0,4.2304,0.0,0.0,3.9879,3.9074,3.8707,3.8707,0.0,3.8707,0.0,3.8707,3.8707,3.8707,3.8707,0.0,0.0,3.8707,3.8707,3.8707,3.8707,3.8707,3.8707,3.8707,3.8803,3.8937,3.8937,3.9236,3.9634,3.9819,4.0072,4.0313,4.0465,4.0496,4.0496,4.0496,4.0496,4.0496,4.0496,4.0496,4.0496,0.0,0.0,0.0,0.0,0.0,0.0,0.0,0.0,0.0,0.0,0.0,0.0,0.0,0.0,0.0,0.0,4.0496,4.0496,4.0496,4.0496,4.0496,0.0,0.0,0.0,4.0496,4.0496,4.0496,4.0496,4.0496,4.0496,4.0496,4.0496,4.0496,4.0496,4.0496,4.0496,4.0496,4.0496,4.0496,4.0496,4.0496,4.0496,4.0496,4.0496,4.0496,4.0496,4.0496,4.0496,4.0496,0.0,0.0,0.0,0.0,0.0,0.0,0.0,4.5943,0.0,4.5355,0.0,4.5902,4.5902,4.5902,4.5902,4.5902,0.0,4.4801,4.4727,4.4048,4.3608,4.3515,4.3515,4.3515,4.3515,4.3515,0.0,0.0,0.0,0.0,3.9717,3.9038,3.8707,3.8707,0.0,0.0,0.0,3.8707,3.8707,3.8707,3.8707,3.8707,3.8707,3.8707,3.8707,3.8707,3.8707,3.8707,3.8707,3.8707,3.8707,3.8707,3.8707,3.9064,3.9493,3.9576,3.9965,4.0406,4.0481,4.0496,4.0496,4.0496,4.0496,4.0496,4.0496,4.0496,4.0496,4.0496,4.0496,4.0496,0.0,0.0,0.0,0.0,0.0,0.0,0.0,0.0,0.0,0.0,0.0,0.0,0.0,0.0,4.0496,4.0496,4.0496,4.0496,0.0,0.0,0.0,4.0496,4.0496,4.0496,4.0496,0.0,4.0496,4.0496,4.0496,4.0496,4.0496,4.0496,4.0496,4.0496,4.0496,4.0496,4.0496,4.0496,4.0496,4.0496,4.0496,4.0496,4.0496,4.0496,4.0496,4.0496,0.0,0.0,0.0,0.0,0.0,4.7259,4.6822,4.6867,4.6888,4.6742,4.625,4.5902,4.5902,4.5902,4.5902,4.5902,4.5773,0.0,0.0,0.0,0.0,4.3533,4.3515,4.3515,4.3515,4.3515,4.2782,0.0,0.0,0.0,3.8909,3.8781,3.8707,3.8707,0.0,0.0,3.8707,3.8707,0.0,3.8707,3.8707,3.8707,3.8707,3.8707,3.8707,3.8707,3.8707,3.8707,3.8707,3.8707,3.8707,3.8707,3.8707,3.8762,3.896,3.9445,3.9679,3.9863,4.0362,4.0496,4.0496,4.0496,4.0496,4.0496,4.0496,4.0496,4.0496,4.0496,4.0496,4.0496,4.0496,0.0,0.0,0.0,0.0,0.0,0.0,0.0,0.0,0.0,0.0,0.0,0.0,0.0,0.0,0.0,0.0,0.0,0.0,0.0,0.0,0.0,4.0496,0.0,0.0,0.0,4.0496,4.0496,4.0496,4.0496,4.0496,4.0496,4.0496,4.0496,4.0496,4.0496,4.0496,4.0496,4.0496,4.0496,4.0496,4.0496,4.0496,4.0496,4.0496,4.0496,0.0,0.0,0.0,0.0,0.0,0.0,0.0,4.7718,0.0,4.7149,4.7131,4.715,4.715,4.715,4.715,4.715,4.6764,4.6195,4.5388,4.4947,4.4342,4.3551,4.3515,0.0,4.3515,4.3515,4.2708,4.1095,0.0,0.0,3.8707,3.8707,3.8707,3.8707,0.0,3.8707,0.0,0.0,0.0,3.8707,3.8707,3.8707,3.8707,3.8707,3.8707,3.8707,3.8707,3.8707,3.8707,3.8707,3.8707,3.8707,3.8707,3.8788,3.8961,3.9257,3.945,3.9701,4.0167,4.0285,4.033,4.0465,4.0496,4.0496,4.0496,4.0496,4.0496,4.0496,4.0496,4.0496,4.0496,4.0496,0.0,0.0,0.0,0.0,0.0,0.0,0.0,0.0,0.0,0.0,0.0,0.0,0.0,0.0,0.0,0.0,0.0,0.0,0.0,0.0,0.0,0.0,0.0,0.0,0.0,4.0496,4.0496,4.0496,4.0496,4.0496,4.0496,4.0496,4.0496,4.0496,4.0496,4.0496,4.0496,4.0496,4.0496,4.0496,4.0496,4.0496,4.0496,4.0496,0.0,4.7593,0.0,0.0,4.8306,0.0,4.8306,4.8306,4.8086,4.7443,4.7901,4.8306,4.8306,4.8306,4.8306,4.8306,4.7718,4.7003,4.6214,4.5406,4.4599,4.3791,4.3589,4.3515,4.3515,4.3515,4.28,0.0,0.0,0.0,0.0,3.8781,0.0,0.0,0.0,0.0,0.0,0.0,3.8707,3.8707,3.8707,3.8707,3.8707,3.8707,3.8707,3.8707,3.8707,3.8707,3.8707,3.8707,3.8707,3.8707,3.8707,3.8826,3.9022,3.9085,3.9289,3.9587,3.9992,4.0101,4.0158,4.0422,4.0496,4.0496,4.0496,4.0496,4.0496,4.0496,4.0496,4.0496,4.0496,4.0496,0.0,0.0,0.0,0.0,0.0,0.0,0.0,0.0,0.0,0.0,0.0,0.0,0.0,0.0,0.0,0.0,0.0,0.0,0.0,0.0,0.0,4.0496,4.0496,0.0,4.0496,4.0496,4.0496,4.0496,4.0496,4.0496,4.0496,4.0496,4.0496,4.0496,4.0496,4.0496,4.0496,4.0496,4.0496,4.0496,4.0496,4.0496,4.0496,4.0496,0.0,0.0,0.0,0.0,0.0,0.0,4.8306,4.8306,4.8269,4.8214,4.8251,4.8306,4.8306,4.8306,4.8306,4.8306,4.8233,4.7846,4.7039,4.6232,4.5424,4.4618,4.3883,4.3515,4.3515,4.3515,4.3057,0.0,0.0,0.0,0.0,0.0,0.0,0.0,0.0,0.0,0.0,3.8707,3.8707,3.8707,3.8707,3.8707,3.8707,3.8707,3.8707,3.8707,3.8707,3.8707,3.8707,3.8707,3.8707,3.8707,3.8707,3.8719,3.8792,3.9022,3.9107,3.9295,3.9922,4.0101,4.0158,4.0422,4.0496,4.0496,4.0496,4.0496,4.0496,4.0496,4.0496,4.0496,4.0496,4.0496,4.0496,0.0,0.0,0.0,0.0,0.0,0.0,0.0,0.0,0.0,0.0,4.0496,0.0,0.0,0.0,0.0,0.0,0.0,0.0,4.0496,0.0,4.0496,4.0496,4.0496,4.0496,4.0496,4.0496,4.0496,4.0496,4.0496,4.0496,4.0496,4.0496,4.0496,4.0496,4.0496,4.0496,4.0496,4.0496,4.0496,4.0496,4.0496,4.0496,4.0496,0.0,0.0,0.0,0.0,0.0,0.0,0.0,4.8306,4.8306,4.8306,4.8306,4.8306,4.8306,4.8306,4.8306,4.8306,4.8306,4.7957,4.7149,4.6801,4.6049,4.4746,4.4397,4.3993,4.3515,4.3515,4.3112,0.0,0.0,0.0,0.0,0.0,0.0,0.0,0.0,3.8707,3.8707,3.8707,3.8707,3.8707,3.8707,3.8707,3.8707,3.8707,3.8707,3.8707,3.8707,3.8707,3.8707,3.8707,3.8707,3.8707,3.8707,3.8707,3.8719,3.8829,3.8855,3.8952,3.9383,3.9645,3.9872,4.0167,4.0381,4.0496,4.0496,4.0496,4.0496,4.0496,4.0496,4.0496,4.0496,4.0496,4.0496,0.0,0.0,0.0,0.0,0.0,0.0,0.0,0.0,0.0,0.0,0.0,4.0496,0.0,0.0,0.0,0.0,0.0,0.0,4.0496,0.0,4.0496,4.0496,4.0496,4.0496,4.0496,4.0496,4.0496,4.0496,4.0496,4.0496,4.0496,4.0496,4.0496,4.0496,4.0496,4.0496,4.0496,4.0496,4.0496,4.0496,4.0496,4.0496,4.0496,4.8306,0.0,4.8306,0.0,4.8306,4.8306,4.8306,4.8306,4.8306,4.8306,4.8306,4.8306,4.8306,4.8306,4.8306,4.8306,4.8306,4.8067,4.748,4.7223,4.6489,4.5112,4.4837,0.0,4.3533,4.3515,4.3222,4.2653,4.2415,0.0,0.0,0.0,0.0,0.0,3.9056,3.8927,3.8707,3.8707,3.8707,3.8707,3.8707,3.8707,3.8707,3.8707,3.8707,3.8707,3.8707,3.8707,3.8704,3.8788,3.8833,3.8803,3.8719,3.8707,3.8707,3.8707,3.8707,3.8777,3.9157,3.9414,3.9701,4.011,4.0364,4.0496,4.0496,4.0496,4.0496,4.0496,4.0496,4.0496,4.0496,4.0496,4.0496,4.0496,0.0,0.0,0.0,0.0,0.0,0.0,0.0,4.0496,4.0496,4.0496,0.0,0.0,0.0,0.0,0.0,0.0,0.0,0.0,0.0,0.0,4.0496,4.0496,4.0496,4.0496,4.0496,4.0496,4.0496,4.0496,4.0496,4.0496,4.0496,4.0496,4.0496,4.0496,4.0496,4.0496,4.0496,4.0496,4.0496,4.0496,4.0496,4.0496,4.8306,4.8306,4.8306,4.8306,4.8306,4.8306,4.8306,4.8306,4.8306,4.8306,4.8306,4.8306,4.8306,4.8306,4.8306,4.8306,4.8306,4.8306,4.8306,4.7535,4.6727,0.0,0.0,4.4323,4.3533,4.3515,4.3515,4.3496,0.0,0.0,4.2268,0.0,4.0671,3.9882,3.9882,3.9441,3.8707,3.8707,3.8707,3.8707,3.8707,3.8707,3.8707,3.8707,3.8707,3.8707,3.8707,3.8707,3.875,3.9013,3.9099,3.9049,3.8773,3.8707,3.8707,3.8707,3.8707,3.8818,3.942,3.9599,3.9746,4.0345,4.0496,4.0496,4.0496,4.0496,4.0496,4.0496,4.0496,4.0496,4.0496,4.0496,4.0496,4.0496,0.0,0.0,0.0,0.0,0.0,0.0,4.0496,4.0496,4.0496,0.0,0.0,0.0,0.0,0.0,0.0,0.0,0.0,4.0496,4.0496,0.0,4.0496,4.0496,4.0496,4.0496,4.0496,4.0496,4.0496,4.0496,4.0496,4.0496,4.0496,4.0496,4.0496,4.0496,4.0496,4.0496,4.0496,4.0496,4.0496,4.0496,4.0496,4.0496,4.8306,4.8306,4.8306,4.8306,4.8306,4.8306,4.8306,4.8306,4.8306,4.8306,4.8306,4.8306,4.8306,4.8306,4.8306,0.0,4.8306,4.8306,0.0,4.8067,4.7553,4.6746,4.5957,4.5149,4.4342,4.3773,4.3515,4.3515,0.0,0.0,0.0,4.2047,4.1497,4.0726,4.0726,4.0579,4.0288,3.9753,3.9515,3.946,3.8927,3.8707,3.8707,3.8707,3.8707,3.8707,3.8707,3.8707,3.875,3.9013,3.9112,3.9125,3.9275,3.9314,3.9314,3.9314,3.9314,3.9352,3.9552,3.9775,3.9992,4.0186,4.0364,4.0496,4.0496,4.0496,4.0496,4.0496,4.0496,4.0496,4.0496,4.0496,4.0496,4.0496,4.0496,0.0,0.0,0.0,0.0,0.0,4.0496,4.0549,0.0,4.0643,0.0,0.0,0.0,0.0,0.0,0.0,0.0,0.0,4.0545,0.0,4.0496,4.0496,4.0496,4.0496,4.0496,4.0496,4.0496,4.0496,4.0496,4.0496,4.0496,4.0496,4.0496,4.0496,4.0496,4.0496,4.0496,4.0496,4.0496,4.0496,4.0496,4.0496,4.8306,4.8306,4.8306,4.8306,4.8306,4.8306,4.8306,4.8306,4.8306,4.8306,4.8306,4.8306,4.8306,4.8306,0.0,4.8306,4.8306,4.8306,4.8306,4.8306,4.7938,4.7131,4.6617,4.5828,4.4709,4.4213,0.0,4.3515,4.3515,4.3239,4.2745,4.2745,4.2323,4.1535,4.1535,4.137,4.1058,4.0561,4.0359,4.0304,3.9808,3.9591,3.9591,3.9591,3.9591,3.9622,3.9736,3.9709,3.9642,3.9857,3.984,3.9765,3.9905,3.9935,3.9894,3.9668,3.9599,3.9622,3.9754,3.9932,4.012,4.0242,4.0372,4.0496,4.0496,4.0496,4.0496,4.0496,4.0496,4.0496,4.0496,4.0496,4.0496,4.0496,4.0496,4.0496,4.0496,0.0,0.0,0.0,0.0,0.0,0.0,4.0697,4.0721,0.0,0.0,0.0,0.0,0.0,0.0,4.0722,4.0636,0.0,4.0581,4.0534,4.0496,4.0496,4.0496,4.0496,4.0496,4.0496,4.0496,4.0496,4.0496,4.0496,4.0496,4.0496,4.0496,4.0496,4.0496,4.0496,4.0496,4.0496,4.0496,4.0496,4.8471,4.8471,4.8471,0.0,4.8471,0.0,4.8398,4.8398,4.8379,4.8324,4.8306,4.8306,4.8306,4.8306,4.8306,4.8306,0.0,0.0,0.0,4.8306,4.7957,4.7223,4.7131,4.636,4.4837,4.4728,4.4305,4.3515,4.3515,4.3515,4.3515,4.3515,4.3094,4.2378,4.2378,4.1974,4.126,4.1205,4.1168,4.1168,4.1113,4.1095,4.1095,4.1095,4.1111,4.119,4.1493,4.1408,4.1197,4.1329,4.1182,4.0893,4.0733,4.0689,4.0551,3.987,3.9668,3.9724,4.0042,4.0129,4.0186,4.0449,4.0496,4.0496,4.0496,4.0496,4.0496,4.0496,4.0496,4.0496,4.0496,4.0496,4.0496,4.0496,4.0496,4.0496,4.0496,0.0,0.0,0.0,0.0,0.0,0.0,4.0715,4.0742,0.0,0.0,0.0,0.0,0.0,4.0816,4.0809,4.0742,4.0697,4.0697,4.0574,4.0496,4.0496,4.0496,4.0496,4.0496,4.0496,4.0496,4.0496,4.0496,4.0496,4.0496,4.0496,4.0496,4.0496,4.0496,4.0496,4.0496,4.0496,4.0535,4.0593,0.0,0.0,5.0215,5.0215,5.0215,4.9994,4.939,4.9279,4.904,4.8398,4.8306,4.8306,4.8306,4.8306,4.8306,4.8306,4.8306,4.8306,4.8306,4.8306,4.8214,4.8012,4.7424,4.6617,4.5645,4.5021,4.4305,4.3515,4.3515,4.3515,4.3515,4.3515,4.3387,4.3222,4.3222,4.3112,4.2892,4.2286,4.2029,4.1974,4.1352,4.1095,4.1095,4.1095,4.1264,4.1493,4.1576,4.1712,4.1907,4.2197,4.2235,4.2216,4.2424,4.247,4.2203,4.072,4.0283,4.0292,4.0381,4.0417,4.0414,4.0481,4.0496,4.0496,4.0496,4.0496,4.0496,4.0496,4.0496,4.0496,4.0496,4.0496,4.0496,4.0496,4.0496,4.0496,4.0496,4.0496,0.0,0.0,4.0496,4.057,4.0757,4.0779,4.0877,0.0,0.0,0.0,0.0,4.1126,4.1055,4.0957,4.0791,4.0697,4.0697,4.0574,4.0496,4.0496,4.0496,4.0496,4.0496,4.0496,4.0496,4.0496,4.0496,4.0496,4.0496,4.0496,4.0496,4.0496,4.0496,4.0496,4.0496,4.0496,4.0912,4.1489,5.0802,5.0802,5.0802,5.0802,5.0802,5.0527,4.9721,4.961,4.9298,4.8416,4.8306,4.8306,4.8306,4.8306,4.8306,4.8306,4.8306,4.8306,4.8306,4.8306,4.8306,4.8306,4.7865,4.7259,4.6471,4.5663,4.4672,4.3515,4.3515,4.3515,4.3515,4.3515,4.3515,4.3515,4.3515,4.3515,4.3478,4.302,4.2837,4.28,4.2378,4.2194,4.2194,4.2194,4.2416,4.2719,4.2903,4.3092,4.3264,4.3357,4.3292,4.3146,4.3113,4.3104,4.2912,4.197,4.1681,4.1681,4.1681,4.1681,4.1585,4.1181,4.1085,4.0989,4.0593,4.0496,4.0496,4.0496,4.0496,4.0496,4.0496,4.0496,4.0496,4.0496,4.0496,4.0496,4.0496,4.0496,0.0,4.0496,4.0496,4.0584,4.0777,4.0797,4.0914,4.1171,4.1191,0.0,4.1191,4.1191,4.1171,4.1083,4.0922,4.0843,4.0843,4.0701,4.0623,4.0582,4.0582,4.0559,4.0496,4.0496,4.0496,4.0496,4.0496,4.0496,4.0496,4.0496,4.0496,4.0496,4.0496,4.0746,4.1085,4.1085,4.1643,4.2393,5.1169,5.1169,5.1169,5.1169,5.1169,5.0894,5.0088,4.9867,4.9462,4.8618,4.8379,4.8306,4.8306,4.8306,4.8306,4.8306,4.8306,4.8306,4.8306,4.8306,4.8306,4.8306,4.8306,4.7921,4.7113,4.6195,4.5039,4.3681,4.357,4.3515,4.3515,4.3515,4.3515,4.3496,4.3546,4.358,4.358,4.358,4.3614,4.3646,4.3597,4.3614,4.3681,4.3681,4.3865,4.4219,4.4553,4.4707,4.4716,4.4547,4.4317,4.4008,4.3602,4.347,4.347,4.347,4.347,4.3412,4.3162,4.3104,4.2912,4.2181,4.2,4.1797,4.1054,4.09,4.0862,4.0727,4.0708,4.0669,4.0516,4.0496,4.0496,4.0496,4.0496,4.0496,4.0496,0.0,4.0496,4.0496,4.0496,4.0584,4.0777,4.0797,4.0914,4.1171,4.1191,4.1191,4.1191,4.1191,4.1191,4.1191,4.1077,4.0992,4.0964,4.086,4.0781,4.0697,4.0697,4.0636,4.0496,4.0496,4.0496,4.0496,4.0496,4.0496,4.0496,4.0496,4.0573,4.0708,4.0708,4.1219,4.2,4.2,4.2547,4.3278,5.2839,5.2839,5.2839,5.2839,5.2839,5.2564,5.1738,5.1041,5.0325,4.95,4.8765,4.8306,4.8306,4.8306,4.8306,4.8306,4.8306,4.8306,4.8306,4.8306,4.8306,4.8306,4.8306,4.7921,4.7113,4.5645,4.4746,4.4525,4.3828,4.3515,4.3515,4.3515,4.3515,4.3513,4.3804,4.3924,4.3924,4.3924,4.4121,4.4406,4.4061,4.4121,4.4419,4.4419,4.4644,4.4943,4.4988,4.5211,4.5438,4.5414,4.5357,4.5311,4.5231,4.521,4.521,4.521,4.521,4.4902,4.347,4.3104,4.3066,4.2931,4.2893,4.2854,4.272,4.2701,4.2489,4.1758,4.1604,4.1373,4.065,4.0496,4.0496,4.0496,4.0496,4.0496,4.0496,0.0,4.0496,4.0496,4.0496,4.0584,4.0777,4.0797,4.0914,4.1171,4.1191,4.1191,4.1191,4.1191,4.1191,4.1191,4.1077,4.0952,4.0824,4.0805,4.0781,4.0697,4.0697,4.0636,4.0496,4.0496,4.0496,4.0496,4.0496,4.0496,4.0496,4.0496,4.0931,4.1604,4.1604,4.2124,4.2893,4.2893,4.3412,4.4105,5.3185,5.3185,5.3185,5.3185,5.3185,5.2931,5.2105,5.1316,5.0508,4.9721,4.8838,4.8306,4.8306,4.8306,4.8306,4.8306,4.8306,4.8306,4.8306,4.8306,4.8306,4.8306,4.8306,4.7921,4.7113,4.636,4.5572,4.4691,4.4342,4.392,4.3515,4.3515,4.3515,4.3513,4.3849,4.4001,4.3998,4.4219,4.4433,4.458,4.4406,4.4428,4.4593,4.4593,4.4812,4.5096,4.5096,4.5322,4.5594,4.5594,4.5594,4.5594,4.5594,4.5594,4.5594,4.5594,4.5594,4.5441,4.4671,4.4451,4.4335,4.3855,4.3739,4.3624,4.3201,4.3104,4.2989,4.2585,4.2508,4.2374,4.197,4.1893,4.1739,4.1277,4.12,0.0,0.0,4.0496,4.0496,4.0496,4.0496,4.0568,4.0722,4.0784,4.0877,4.1078,4.1151,4.1191,4.1191,4.1191,4.1191,4.1191,4.1149,4.108,4.1021,4.093,4.087,4.0757,4.0718,4.0636,4.0496,4.0496,4.0496,4.0496,4.0496,4.0766,4.12,4.12,4.172,4.2508,4.2508,4.3008,4.3739,4.3739,4.4278,4.4998,5.3185,5.3185,5.3185,5.3185,5.3185,5.3004,5.2362,5.1444,5.0582,4.9978,4.8948,4.8306,4.8306,4.8306,4.8306,4.8306,4.8306,4.8306,4.8306,4.8306,4.8306,4.8306,4.8306,4.8012,4.7388,4.7204,4.6489,4.526,4.4874,4.4378,4.3773,4.3672,4.3631,4.3629,4.4058,4.4261,4.429,4.4593,4.4757,4.4837,4.4745,4.4757,4.483,4.483,4.4988,4.5211,4.5211,4.5371,4.5594,4.5594,4.5594,4.5594,4.5594,4.5594,4.5594,4.5594,4.5594,4.5594,4.5594,4.5594,4.5441,4.4759,4.4605,4.4432,4.3816,4.3682,4.3624,4.3412,4.3374,4.3316,4.3124,4.3104,4.2874,4.222,0.0,0.0,0.0,4.1112,4.1112,4.1112,4.1112,4.115,4.126,4.1175,4.1169,4.1283,4.1244,4.1191,4.1191,4.1191,4.1289,4.1465,4.1308,4.1191,4.1191,4.1103,4.0959,4.0797,4.0742,4.0636,4.0516,4.0708,4.0804,4.0804,4.1016,4.147,4.2104,4.2104,4.2604,4.3374,4.3374,4.3874,4.4605,4.4605,4.5037,4.5594,5.3185,5.3185,5.3185,5.3185,5.3185,5.3167,5.3112,5.1811,5.0784,5.0729,4.9297,4.8306,4.8306,4.8306,4.8306,4.8306,4.8306,4.8306,4.8306,4.8306,4.8306,4.8306,4.8306,4.8269,4.8214,4.748,4.7039,4.6911,4.5425,4.4654,4.4599,4.4172,4.3971,4.4001,4.4701,4.5011,4.5011,4.5052,4.5243,4.5504,4.5191,4.5243,4.5522,4.5522,4.5531,4.5568,4.5568,4.5577,4.5594,4.5594,4.5594,4.5594,4.5594,4.5594,4.5594,4.5594,4.5594,4.5594,4.5594,4.5594,4.5575,4.5518,4.5498,4.5498,4.5441,4.5421,4.519,4.4374,4.4201,4.397,4.3239,4.3104,4.3085,4.3008,0.0,0.0,4.2912,4.2912,4.2912,4.2912,4.2912,4.2934,4.3015,4.2393,4.2061,4.2195,4.1575,4.1191,4.1191,4.1191,4.1543,4.2285,4.1582,4.1191,4.1191,4.1191,4.1054,4.0797,4.0789,4.0682,4.0535,4.1335,4.1692,4.1758,4.2566,4.2931,4.3008,4.3008,4.347,4.4201,4.4201,4.4739,4.5498,4.5498,4.5537,4.5594,5.3185,5.3185,5.3185,5.3185,5.3185,5.3185,5.3185,5.183,5.0802,5.0802,4.9352,4.8306,4.8306,4.8306,4.8306,4.8306,4.8306,4.8306,4.8306,4.8306,4.8306,4.8306,4.8306,4.8306,4.8306,4.8012,4.759,4.7094,4.6489,4.592,4.5424,4.4755,4.4547,4.4758,4.4793,4.4908,4.5107,4.5322,4.5485,4.5586,4.5448,4.5495,4.5594,4.5594,4.5594,4.5594,4.5594,4.5594,4.5594,4.5594,4.5594,4.5594,4.5594,4.5594,4.5594,4.5594,4.5594,4.5594,4.5594,4.5594,4.5594,4.5594,4.5594,4.5594,4.5594,4.5594,4.5518,4.5171,4.5114,4.5017,4.471,4.4643,4.447,4.3932,0.0,4.3662,4.3162,4.3104,4.3104,4.3104,4.3104,4.3135,4.3189,4.3025,4.296,4.3099,4.2885,4.2754,4.2754,4.2754,4.2891,4.3203,4.291,4.2754,4.2754,4.2708,4.2646,4.2543,4.2454,4.234,4.2189,4.251,4.2652,4.2624,4.297,4.3374,4.3835,4.3835,4.4335,4.5114,4.5114,4.5306,4.5594,4.5594,4.5594,4.5594,5.3185,5.3185,5.3185,5.3185,5.3185,5.3185,5.3185,5.183,5.0802,5.0802,4.9352,4.8306,4.8306,4.8306,4.8306,4.8306,4.8306,4.8306,4.8306,4.8306,4.8306,4.8306,4.8306,4.8306,4.8306,4.8306,4.8031,4.748,4.7223,4.6819,4.6269,4.5567,4.53,4.5372,4.5202,4.519,4.5263,4.5504,4.5594,4.5594,4.5594,4.5594,4.5594,4.5594,4.5594,4.5594,4.5594,4.5594,4.5594,4.5594,4.5594,4.5594,4.5594,4.5594,4.5594,4.5594,4.5594,4.5594,4.5594,4.5594,4.5594,4.5594,4.5594,4.5594,4.5594,4.5594,4.5594,4.5594,4.5594,4.5594,4.5594,4.5594,4.5402,4.4797,4.4701,4.4509,4.3951,4.3893,4.3893,4.3893,4.3893,4.3925,4.4008,4.3879,4.386,4.3979,4.3803,4.3691,4.3691,4.3965,4.4101,4.4101,4.4375,4.4512,4.4512,4.3938,4.3629,4.3595,4.3512,4.3397,4.3269,4.3509,4.3588,4.3555,4.3772,4.4201,4.4701,4.4701,4.5056,4.5594,4.5594,4.5594,4.5594,4.5594,4.5594,4.5594,5.3185,5.3185,5.3185,5.3185,5.3185,5.3185,5.3185,5.183,5.0802,5.0802,4.9352,4.8306,4.8306,4.8306,4.8306,4.8306,4.8306,4.8306,4.8306,4.8306,4.8306,4.8306,4.8306,4.8306,4.8306,4.8306,4.8306,4.8306,4.7498,4.7113,4.7113,4.6637,4.6199,4.583,4.6143,4.6037,4.5614,4.5594,4.5594,4.5594,4.5594,4.5594,4.5594,4.5594,4.5594,4.5594,4.5594,4.5594,4.5594,4.5594,4.5594,4.5594,4.5594,4.5594,4.5594,4.5594,4.5594,4.5594,4.5594,4.5594,4.5594,4.5594,4.5594,4.5594,4.5594,4.5594,4.5594,4.5594,4.5594,4.5594,4.5594,4.5594,4.5594,4.5594,4.5594,4.5594,4.5594,4.5594,4.5594,4.5594,4.5594,4.5648,4.579,4.5137,4.4732,4.4814,4.4134,4.3711,4.3711,4.4531,4.5019,4.5019,4.5859,4.6308,4.6308,4.457,4.3687,4.3615,4.3615,4.3546,4.344,4.4181,4.4511,4.4557,4.5282,4.5594,4.5594,4.5594,4.5594,4.5594,4.5594,4.5594,4.5594,4.5594,4.5594,4.5594,5.3185,5.3185,5.3185,5.3185,5.3185,5.3185,5.3185,5.183,5.0802,5.0802,4.9352,4.8306,4.8306,4.8306,4.8306,4.8306,4.8306,4.8306,4.8306,4.8306,4.8306,4.8306,4.8306,4.8306,4.8306,4.8306,4.8306,4.8306,4.8067,4.7938,4.7939,4.7224,4.7103,4.7452,4.6414,4.6157,4.6471,4.5864,4.5594,4.5594,4.5594,4.5594,4.5594,4.5594,4.5594,4.5594,4.5594,4.5594,4.5594,4.5594,4.5594,4.5594,4.5594,4.5594,4.5594,4.5594,4.5594,4.5594,4.5594,4.5594,4.5594,4.5594,4.5594,4.5594,4.5594,4.5594,4.5594,4.5594,4.5594,4.5594,4.5594,4.5594,4.5594,4.5594,4.568,4.574,4.574,4.579,4.5803,4.5803,4.5777,4.5821,4.5986,4.5729,4.5621,4.5834,4.5644,4.5527,4.5527,4.5762,4.5918,4.5918,4.6152,4.6308,4.6308,4.5781,4.5507,4.5485,4.5485,4.5413,4.5304,4.5511,4.5555,4.5409,4.5645,4.574,4.5725,4.5635,4.5668,4.5725,4.5635,4.5594,4.5594,4.5594,4.5594,4.5594,5.3185,5.3185,5.3185,5.3185,5.3185,5.3185,5.3185,5.2105,5.1151,5.0839,4.9646,4.8673,4.8343,4.8306,4.8306,4.8306,4.8306,4.8306,4.8306,4.8306,4.8306,4.8306,4.8306,4.8306,4.8306,4.8306,4.8306,4.8306,4.8306,4.8306,4.8306,4.7791,4.7801,4.8155,4.7174,4.6977,4.7317,4.6471,4.6105,4.6086,4.5748,4.5594,4.5594,4.5594,4.5594,4.5594,4.5594,4.5594,4.5594,4.5594,4.5594,4.5594,4.5594,4.5594,4.5594,4.5594,4.5594,4.5594,4.5594,4.5594,4.5594,4.5594,4.5594,4.5594,4.5594,4.5594,4.5594,4.5594,4.5594,4.5594,4.5594,4.5594,4.562,4.5673,4.5747,4.5803,4.585,4.5872,4.5899,4.5899,4.5852,4.5906,4.608,4.6033,4.6075,4.6289,4.6308,4.6308,4.6308,4.6308,4.6308,4.6308,4.6308,4.6308,4.6308,4.6308,4.6308,4.6308,4.6308,4.6268,4.6175,4.6119,4.6024,4.5915,4.5864,4.5836,4.583,4.5751,4.577,4.583,4.5744,4.5722,4.5722,4.5722,4.5722,4.5715,5.3185,5.3185,5.3185,5.3185,5.3185,5.3185,5.3185,5.2527,5.1701,5.0912,5.0086,4.928,4.8398,4.8306,4.8306,4.8306,4.8306,4.8306,4.8306,4.8306,4.8306,4.8306,4.8306,4.8306,4.8306,4.8306,4.8306,4.8306,4.8306,4.8306,4.8306,4.8306,4.8302,4.8306,4.823,4.8213,4.8163,4.7355,4.6962,4.6827,4.6028,4.5671,4.5594,4.5594,4.5594,4.5594,4.5594,4.5594,4.5594,4.5594,4.5594,4.5594,4.5594,4.5594,4.5594,4.5594,4.5594,4.5594,4.5594,4.5594,4.5594,4.5594,4.5594,4.5594,4.5594,4.5594,4.5594,4.5594,4.5594,4.5594,4.5594,4.5594,4.5643,4.5769,4.5816,4.5819,4.5918,4.5924,4.5948,4.5948,4.592,4.5974,4.6091,4.6117,4.6173,4.6289,4.6308,4.6308,4.6308,4.6308,4.6308,4.6308,4.6308,4.6308,4.6308,4.6308,4.6308,4.6308,4.6308,4.6308,4.6308,4.6174,4.6115,4.6087,4.5974,4.5916,4.5916,4.5903,4.5907,4.5916,4.5903,4.5899,4.5899,4.5899,4.5899,4.5885,5.3185,5.3185,5.3185,5.3185,5.3185,5.3185,5.3185,5.2527,5.1701,5.0912,5.0086,4.928,4.8398,4.8306,4.8306,4.8306,4.8306,4.8306,4.8306,4.8306,4.8306,4.8306,4.8306,4.8306,4.8306,4.8306,4.8306,4.8306,4.8306,4.8306,4.8306,4.8306,4.8635,4.9187,4.8508,4.8548,4.9067,4.8202,4.749,4.6885,4.6701,4.6201,4.5594,4.5594,4.5594,4.5594,4.5594,4.5594,4.5594,4.5594,4.5594,4.5594,4.5594,4.5594,4.5594,4.5594,4.5594,4.5594,4.5594,4.5594,4.5594,4.5594,4.5594,4.5594,4.5594,4.5594,4.5594,4.5594,4.5594,4.5594,4.5594,4.5594,4.5643,4.5769,4.5847,4.5923,4.6039,4.6147,4.6203,4.6203,4.6117,4.6113,4.6247,4.6267,4.6268,4.6308,4.6308,4.6308,4.6308,4.6308,4.6308,4.6308,4.6308,4.6308,4.6308,4.6308,4.6308,4.6308,4.6308,4.6308,4.6308,4.6268,4.62,4.6108,4.6075,4.6069,4.6045,4.5936,4.5971,4.6045,4.5936,4.5899,4.5899,4.5899,4.5899,4.5894,5.3185,5.3185,5.3185,5.3185,5.3185,5.3185,5.3185,5.2839,5.2289,5.1481,5.0674,4.9848,4.9003,4.8545,4.8306,4.8306,4.8306,4.8306,4.8306,4.8306,4.8306,4.8306,4.8306,4.8306,4.8306,4.8306,4.8306,4.8306,4.8306,4.8306,4.8306,4.8306,4.8728,4.947,4.9018,4.9271,4.9952,4.9086,4.849,4.8067,4.7644,4.6971,4.622,4.622,4.5951,4.5594,4.5594,4.5594,4.5594,4.5594,4.5594,4.5594,4.5594,4.5594,4.5594,4.5594,4.5594,4.5594,4.5594,4.5594,4.5594,4.5594,4.5594,4.5594,4.5594,4.5594,4.5594,4.5594,4.5594,4.5594,4.5594,4.5594,4.5645,4.5819,4.5877,4.5974,4.6173,4.6267,4.6308,4.6308,4.6246,4.6224,4.6289,4.6308,4.6308,4.6308,4.6308,4.6308,4.6308,4.6308,4.6308,4.6308,4.6308,4.6308,4.6308,4.6308,4.6308,4.6308,4.6308,4.6308,4.6308,4.6308,4.6268,4.6199,4.6199,4.6199,4.6198,4.6117,4.6122,4.6198,4.6117,4.6084,4.6084,4.6084,4.6045,4.5998,5.3185,5.3185,5.3185,5.3185,5.3185,5.3185,5.3185,5.3185,5.2913,5.2105,5.1426,5.0637,4.9702,4.882,4.8306,4.8306,4.8306,4.8306,4.8306,4.8306,4.8306,4.8306,4.8306,4.8306,4.8306,4.8306,4.8306,4.8306,4.8306,4.8306,4.8306,4.8306,4.8728,4.9489,4.9489,4.9949,5.0654,4.9933,4.9529,4.9336,4.8606,4.7836,4.7096,4.7096,4.6567,4.5825,4.5825,4.5729,4.5594,4.5594,4.5594,4.5594,4.5594,4.5594,4.5594,4.5594,4.5594,4.5594,4.5594,4.5594,4.5594,4.5594,4.5594,4.5594,4.5594,4.5594,4.5594,4.5594,4.5594,4.5594,4.5594,4.5594,4.5677,4.5881,4.5899,4.5992,4.6268,4.6308,4.6308,4.6308,4.6308,4.6308,4.6308,4.6308,4.6308,4.6308,4.6308,4.6308,4.6308,4.6308,4.6308,4.6308,4.6308,4.6308,4.6308,4.6308,4.6308,4.6308,4.6308,4.6308,4.6308,4.6308,4.6308,4.6308,4.6308,4.6308,4.6308,4.6308,4.6308,4.6308,4.6308,4.6308,4.6308,4.6308,4.6225,4.6147,5.3185,5.3185,5.3185,5.3185,5.3185,5.3185,5.3185,5.3185,5.2913,5.2105,5.1903,5.1261,4.9757,4.882,4.8306,4.8306,4.8306,4.8306,4.8306,4.8306,4.8306,4.8306,4.8306,4.8306,4.8306,4.8306,4.8306,4.8306,4.8306,4.8306,4.8306,4.8306,4.8728,4.9489,4.9489,4.9949,5.0693,5.0577,5.0087,4.9394,4.926,4.8702,4.7952,4.7952,4.7432,4.6721,4.6721,4.624,4.5594,4.5594,4.5594,4.5594,4.5594,4.5594,4.5594,4.5594,4.5594,4.5594,4.5594,4.5594,4.5594,4.5594,4.5594,4.5594,4.5594,4.5594,4.5594,4.5594,4.5594,4.5594,4.5594,4.5594,4.5677,4.5881,4.5899,4.5992,4.6268,4.6308,4.6308,4.6308,4.6308,4.6308,4.6308,4.6308,4.6308,4.6308,4.6308,4.6308,4.6308,4.6308,4.6308,4.6308,4.6308,4.6308,4.6308,4.6308,4.6308,4.6308,4.6308,4.6308,4.6308,4.6308,4.6308,4.6308,4.6308,4.6308,4.6308,4.6308,4.6308,4.6308,4.6308,4.6308,4.6308,4.6308,4.6289,4.6288,5.3185,5.3185,5.3185,5.3185,5.3185,5.3185,5.3185,5.3185,5.3057,5.2729,5.227,5.172,5.1024,4.9774,4.9022,4.9022,4.8581,4.8306,4.8306,4.8306,4.8306,4.8306,4.8306,4.8306,4.8306,4.8306,4.8306,4.8306,4.8306,4.8306,4.8306,4.8306,4.8728,4.9489,4.9489,4.9949,5.0712,5.0712,5.0481,5.0125,5.0125,4.9606,4.8836,4.8836,4.8298,4.7567,4.7567,4.7317,4.6932,4.6471,4.6336,4.624,4.5748,4.5594,4.5594,4.5594,4.5594,4.5594,4.5594,4.5594,4.5594,4.5594,4.5594,4.5594,4.5594,4.5594,4.5594,4.5594,4.5594,4.5594,4.5594,4.5594,4.5677,4.5881,4.5899,4.5992,4.6268,4.6308,4.6308,4.6308,4.6308,4.6308,4.6308,4.6308,4.6308,4.6308,4.6308,4.6308,4.6308,4.6308,4.6308,4.6308,4.6308,4.6308,4.6308,4.6308,4.6308,4.6308,4.6308,4.6308,4.6308,4.6308,4.6308,4.6308,4.6308,4.6308,4.6308,4.6308,4.6308,4.6308,4.6308,4.6308,4.6308,4.6308,4.6308,4.6308]}]]